<?xml version="1.0" encoding="UTF-8" standalone="no" ?>
<gpx xmlns="http://www.topografix.com/GPX/1/1" xmlns:xsi="http://www.w3.org/2001/XMLSchema-instance" xsi:schemaLocation="http://www.topografix.com/GPX/1/1 http://www.topografix.com/GPX/1/1/gpx.xsd" version="1.1" creator="VisuGPX - https://www.visugpx.com">
  <metadata>
    <name>st arnoult rochefort</name>
    <desc><![CDATA[AVF Antony -st arnoult rochefort]]></desc>
  </metadata>
  <trk>
    <name><![CDATA[Track 027]]></name>
    <desc><![CDATA[24 mars 2016  9:42 am]]></desc>
    <trkseg>
      <trkpt lat="48.57209" lon="1.93708">
        <ele>129.663</ele>
        <time>2016-03-24T08:44:59.999Z</time>
      </trkpt>
      <trkpt lat="48.57209" lon="1.93708">
        <ele>129.63</ele>
        <time>2016-03-24T08:45:00.099Z</time>
      </trkpt>
      <trkpt lat="48.57209" lon="1.93708">
        <ele>129.549</ele>
        <time>2016-03-24T08:45:03.999Z</time>
      </trkpt>
      <trkpt lat="48.57209" lon="1.93708">
        <ele>129.508</ele>
        <time>2016-03-24T08:51:22.931Z</time>
      </trkpt>
      <trkpt lat="48.57211" lon="1.93722">
        <ele>129.425</ele>
        <time>2016-03-24T08:51:40.450Z</time>
      </trkpt>
      <trkpt lat="48.57212" lon="1.93736">
        <ele>128.832</ele>
        <time>2016-03-24T08:51:48.000Z</time>
      </trkpt>
      <trkpt lat="48.57212" lon="1.93736">
        <ele>127.348</ele>
        <time>2016-03-24T08:51:48.000Z</time>
      </trkpt>
      <trkpt lat="48.57212" lon="1.93736">
        <ele>126.097</ele>
        <time>2016-03-24T08:51:56.660Z</time>
      </trkpt>
      <trkpt lat="48.57198" lon="1.93749">
        <ele>126.066</ele>
        <time>2016-03-24T08:52:13.957Z</time>
      </trkpt>
      <trkpt lat="48.57188" lon="1.9375">
        <ele>126.412</ele>
        <time>2016-03-24T08:52:22.554Z</time>
      </trkpt>
      <trkpt lat="48.57179" lon="1.93753">
        <ele>126.147</ele>
        <time>2016-03-24T08:52:31.654Z</time>
      </trkpt>
      <trkpt lat="48.57169" lon="1.93754">
        <ele>125.388</ele>
        <time>2016-03-24T08:52:43.432Z</time>
      </trkpt>
      <trkpt lat="48.5716" lon="1.93761">
        <ele>124.581</ele>
        <time>2016-03-24T08:52:51.230Z</time>
      </trkpt>
      <trkpt lat="48.57151" lon="1.93768">
        <ele>123.891</ele>
        <time>2016-03-24T08:52:56.775Z</time>
      </trkpt>
      <trkpt lat="48.57143" lon="1.93773">
        <ele>123.366</ele>
        <time>2016-03-24T08:53:01.807Z</time>
      </trkpt>
      <trkpt lat="48.57135" lon="1.93779">
        <ele>122.934</ele>
        <time>2016-03-24T08:53:07.000Z</time>
      </trkpt>
      <trkpt lat="48.57135" lon="1.93779">
        <ele>122.539</ele>
        <time>2016-03-24T08:53:14.000Z</time>
      </trkpt>
      <trkpt lat="48.57135" lon="1.93779">
        <ele>122.294</ele>
        <time>2016-03-24T08:53:16.246Z</time>
      </trkpt>
      <trkpt lat="48.57135" lon="1.93798">
        <ele>122.259</ele>
        <time>2016-03-24T08:53:36.496Z</time>
      </trkpt>
      <trkpt lat="48.57139" lon="1.93811">
        <ele>122.323</ele>
        <time>2016-03-24T08:53:44.690Z</time>
      </trkpt>
      <trkpt lat="48.57146" lon="1.93821">
        <ele>122.441</ele>
        <time>2016-03-24T08:53:52.749Z</time>
      </trkpt>
      <trkpt lat="48.57154" lon="1.9383">
        <ele>122.758</ele>
        <time>2016-03-24T08:54:01.067Z</time>
      </trkpt>
      <trkpt lat="48.57161" lon="1.93839">
        <ele>123.401</ele>
        <time>2016-03-24T08:54:08.927Z</time>
      </trkpt>
      <trkpt lat="48.5716" lon="1.93854">
        <ele>124.244</ele>
        <time>2016-03-24T08:54:16.646Z</time>
      </trkpt>
      <trkpt lat="48.57162" lon="1.93868">
        <ele>125.008</ele>
        <time>2016-03-24T08:54:23.122Z</time>
      </trkpt>
      <trkpt lat="48.57165" lon="1.93881">
        <ele>125.55</ele>
        <time>2016-03-24T08:54:29.670Z</time>
      </trkpt>
      <trkpt lat="48.57163" lon="1.93898">
        <ele>125.89</ele>
        <time>2016-03-24T08:54:36.454Z</time>
      </trkpt>
      <trkpt lat="48.57163" lon="1.93913">
        <ele>126.076</ele>
        <time>2016-03-24T08:54:41.973Z</time>
      </trkpt>
      <trkpt lat="48.57163" lon="1.93927">
        <ele>126.162</ele>
        <time>2016-03-24T08:54:47.103Z</time>
      </trkpt>
      <trkpt lat="48.57173" lon="1.9393">
        <ele>126.205</ele>
        <time>2016-03-24T08:54:52.889Z</time>
      </trkpt>
      <trkpt lat="48.57176" lon="1.93944">
        <ele>126.241</ele>
        <time>2016-03-24T08:55:00.000Z</time>
      </trkpt>
      <trkpt lat="48.57176" lon="1.93944">
        <ele>126.286</ele>
        <time>2016-03-24T08:55:04.000Z</time>
      </trkpt>
      <trkpt lat="48.57176" lon="1.93944">
        <ele>126.298</ele>
        <time>2016-03-24T08:55:44.634Z</time>
      </trkpt>
      <trkpt lat="48.57169" lon="1.93953">
        <ele>126.174</ele>
        <time>2016-03-24T08:55:56.962Z</time>
      </trkpt>
      <trkpt lat="48.5718" lon="1.93953">
        <ele>126.1</ele>
        <time>2016-03-24T08:56:05.140Z</time>
      </trkpt>
      <trkpt lat="48.57176" lon="1.93968">
        <ele>126</ele>
        <time>2016-03-24T08:56:13.675Z</time>
      </trkpt>
      <trkpt lat="48.57168" lon="1.93979">
        <ele>125.929</ele>
        <time>2016-03-24T08:56:22.000Z</time>
      </trkpt>
      <trkpt lat="48.57168" lon="1.93979">
        <ele>125.938</ele>
        <time>2016-03-24T08:56:29.000Z</time>
      </trkpt>
      <trkpt lat="48.57168" lon="1.93979">
        <ele>125.953</ele>
        <time>2016-03-24T08:56:31.205Z</time>
      </trkpt>
      <trkpt lat="48.57168" lon="1.93992">
        <ele>125.902</ele>
        <time>2016-03-24T08:57:02.000Z</time>
      </trkpt>
      <trkpt lat="48.57168" lon="1.93992">
        <ele>125.822</ele>
        <time>2016-03-24T08:57:04.000Z</time>
      </trkpt>
      <trkpt lat="48.57168" lon="1.93992">
        <ele>125.76</ele>
        <time>2016-03-24T08:57:06.199Z</time>
      </trkpt>
      <trkpt lat="48.57144" lon="1.94003">
        <ele>125.714</ele>
        <time>2016-03-24T08:57:14.000Z</time>
      </trkpt>
      <trkpt lat="48.57144" lon="1.94003">
        <ele>125.669</ele>
        <time>2016-03-24T08:57:18.000Z</time>
      </trkpt>
      <trkpt lat="48.57144" lon="1.94003">
        <ele>125.612</ele>
        <time>2016-03-24T08:57:18.100Z</time>
      </trkpt>
      <trkpt lat="48.57168" lon="1.94">
        <ele>125.555</ele>
        <time>2016-03-24T08:57:25.000Z</time>
      </trkpt>
      <trkpt lat="48.57168" lon="1.94">
        <ele>125.519</ele>
        <time>2016-03-24T08:57:35.000Z</time>
      </trkpt>
      <trkpt lat="48.57168" lon="1.94">
        <ele>125.489</ele>
        <time>2016-03-24T08:59:11.698Z</time>
      </trkpt>
      <trkpt lat="48.57163" lon="1.94013">
        <ele>125.401</ele>
        <time>2016-03-24T08:59:27.999Z</time>
      </trkpt>
      <trkpt lat="48.57163" lon="1.94013">
        <ele>125.374</ele>
        <time>2016-03-24T08:59:38.999Z</time>
      </trkpt>
      <trkpt lat="48.57163" lon="1.94013">
        <ele>125.35</ele>
        <time>2016-03-24T08:59:39.099Z</time>
      </trkpt>
      <trkpt lat="48.57168" lon="1.94">
        <ele>125.31</ele>
        <time>2016-03-24T09:00:14.999Z</time>
      </trkpt>
      <trkpt lat="48.57168" lon="1.94">
        <ele>125.266</ele>
        <time>2016-03-24T09:00:20.999Z</time>
      </trkpt>
      <trkpt lat="48.57168" lon="1.94">
        <ele>125.229</ele>
        <time>2016-03-24T09:02:59.349Z</time>
      </trkpt>
      <trkpt lat="48.57178" lon="1.94002">
        <ele>125.147</ele>
        <time>2016-03-24T09:03:17.864Z</time>
      </trkpt>
      <trkpt lat="48.57187" lon="1.93996">
        <ele>125.225</ele>
        <time>2016-03-24T09:03:25.540Z</time>
      </trkpt>
      <trkpt lat="48.57195" lon="1.93988">
        <ele>125.545</ele>
        <time>2016-03-24T09:03:32.672Z</time>
      </trkpt>
      <trkpt lat="48.57204" lon="1.93982">
        <ele>125.982</ele>
        <time>2016-03-24T09:03:40.638Z</time>
      </trkpt>
      <trkpt lat="48.57212" lon="1.93976">
        <ele>126.421</ele>
        <time>2016-03-24T09:03:49.427Z</time>
      </trkpt>
      <trkpt lat="48.5722" lon="1.93967">
        <ele>126.878</ele>
        <time>2016-03-24T09:03:59.999Z</time>
      </trkpt>
      <trkpt lat="48.5722" lon="1.93967">
        <ele>127.24</ele>
        <time>2016-03-24T09:04:03.999Z</time>
      </trkpt>
      <trkpt lat="48.5722" lon="1.93967">
        <ele>127.36</ele>
        <time>2016-03-24T09:04:09.957Z</time>
      </trkpt>
      <trkpt lat="48.57229" lon="1.93964">
        <ele>127.162</ele>
        <time>2016-03-24T09:04:26.263Z</time>
      </trkpt>
      <trkpt lat="48.57238" lon="1.93959">
        <ele>127.2</ele>
        <time>2016-03-24T09:04:34.464Z</time>
      </trkpt>
      <trkpt lat="48.57248" lon="1.93956">
        <ele>127.535</ele>
        <time>2016-03-24T09:04:41.951Z</time>
      </trkpt>
      <trkpt lat="48.57256" lon="1.93951">
        <ele>128.06</ele>
        <time>2016-03-24T09:04:47.999Z</time>
      </trkpt>
      <trkpt lat="48.57256" lon="1.93951">
        <ele>128.521</ele>
        <time>2016-03-24T09:04:54.999Z</time>
      </trkpt>
      <trkpt lat="48.57256" lon="1.93951">
        <ele>128.72</ele>
        <time>2016-03-24T09:04:55.099Z</time>
      </trkpt>
      <trkpt lat="48.57274" lon="1.93945">
        <ele>128.643</ele>
        <time>2016-03-24T09:05:17.716Z</time>
      </trkpt>
      <trkpt lat="48.57283" lon="1.9394">
        <ele>129.064</ele>
        <time>2016-03-24T09:05:26.275Z</time>
      </trkpt>
      <trkpt lat="48.57292" lon="1.93935">
        <ele>130.54</ele>
        <time>2016-03-24T09:05:34.452Z</time>
      </trkpt>
      <trkpt lat="48.57301" lon="1.9393">
        <ele>132.232</ele>
        <time>2016-03-24T09:05:42.807Z</time>
      </trkpt>
      <trkpt lat="48.5731" lon="1.93927">
        <ele>133.252</ele>
        <time>2016-03-24T09:05:50.557Z</time>
      </trkpt>
      <trkpt lat="48.5732" lon="1.93925">
        <ele>133.739</ele>
        <time>2016-03-24T09:05:58.236Z</time>
      </trkpt>
      <trkpt lat="48.57329" lon="1.93922">
        <ele>134.008</ele>
        <time>2016-03-24T09:06:05.669Z</time>
      </trkpt>
      <trkpt lat="48.57339" lon="1.93918">
        <ele>134.2</ele>
        <time>2016-03-24T09:06:14.858Z</time>
      </trkpt>
      <trkpt lat="48.57348" lon="1.93911">
        <ele>134.351</ele>
        <time>2016-03-24T09:06:24.918Z</time>
      </trkpt>
      <trkpt lat="48.57357" lon="1.93917">
        <ele>134.506</ele>
        <time>2016-03-24T09:06:34.532Z</time>
      </trkpt>
      <trkpt lat="48.57362" lon="1.93929">
        <ele>134.737</ele>
        <time>2016-03-24T09:06:43.324Z</time>
      </trkpt>
      <trkpt lat="48.57368" lon="1.9394">
        <ele>135.037</ele>
        <time>2016-03-24T09:06:52.325Z</time>
      </trkpt>
      <trkpt lat="48.57377" lon="1.93945">
        <ele>135.302</ele>
        <time>2016-03-24T09:07:01.724Z</time>
      </trkpt>
      <trkpt lat="48.57385" lon="1.93952">
        <ele>135.441</ele>
        <time>2016-03-24T09:07:10.767Z</time>
      </trkpt>
      <trkpt lat="48.57395" lon="1.93953">
        <ele>135.543</ele>
        <time>2016-03-24T09:07:20.471Z</time>
      </trkpt>
      <trkpt lat="48.57402" lon="1.93944">
        <ele>136.05</ele>
        <time>2016-03-24T09:07:30.891Z</time>
      </trkpt>
      <trkpt lat="48.5741" lon="1.93937">
        <ele>137.094</ele>
        <time>2016-03-24T09:07:41.754Z</time>
      </trkpt>
      <trkpt lat="48.57418" lon="1.93929">
        <ele>137.963</ele>
        <time>2016-03-24T09:07:50.999Z</time>
      </trkpt>
      <trkpt lat="48.57418" lon="1.93929">
        <ele>138.119</ele>
        <time>2016-03-24T09:08:00.999Z</time>
      </trkpt>
      <trkpt lat="48.57418" lon="1.93929">
        <ele>137.911</ele>
        <time>2016-03-24T09:08:01.099Z</time>
      </trkpt>
      <trkpt lat="48.57432" lon="1.93922">
        <ele>137.765</ele>
        <time>2016-03-24T09:08:16.655Z</time>
      </trkpt>
      <trkpt lat="48.57441" lon="1.93928">
        <ele>137.511</ele>
        <time>2016-03-24T09:08:24.233Z</time>
      </trkpt>
      <trkpt lat="48.57444" lon="1.93941">
        <ele>136.846</ele>
        <time>2016-03-24T09:08:31.999Z</time>
      </trkpt>
      <trkpt lat="48.57444" lon="1.93941">
        <ele>136.032</ele>
        <time>2016-03-24T09:08:33.000Z</time>
      </trkpt>
      <trkpt lat="48.57444" lon="1.93941">
        <ele>135.577</ele>
        <time>2016-03-24T09:08:35.060Z</time>
      </trkpt>
      <trkpt lat="48.5745" lon="1.93953">
        <ele>135.721</ele>
        <time>2016-03-24T09:08:52.481Z</time>
      </trkpt>
      <trkpt lat="48.57454" lon="1.93966">
        <ele>135.62</ele>
        <time>2016-03-24T09:09:03.183Z</time>
      </trkpt>
      <trkpt lat="48.57459" lon="1.93979">
        <ele>134.953</ele>
        <time>2016-03-24T09:09:13.126Z</time>
      </trkpt>
      <trkpt lat="48.57462" lon="1.93991">
        <ele>133.955</ele>
        <time>2016-03-24T09:09:22.121Z</time>
      </trkpt>
      <trkpt lat="48.57466" lon="1.94004">
        <ele>133.116</ele>
        <time>2016-03-24T09:09:30.802Z</time>
      </trkpt>
      <trkpt lat="48.57471" lon="1.94017">
        <ele>132.676</ele>
        <time>2016-03-24T09:09:39.684Z</time>
      </trkpt>
      <trkpt lat="48.57477" lon="1.94029">
        <ele>132.615</ele>
        <time>2016-03-24T09:09:48.303Z</time>
      </trkpt>
      <trkpt lat="48.57482" lon="1.94042">
        <ele>132.74</ele>
        <time>2016-03-24T09:09:57.218Z</time>
      </trkpt>
      <trkpt lat="48.57487" lon="1.94055">
        <ele>132.906</ele>
        <time>2016-03-24T09:10:05.980Z</time>
      </trkpt>
      <trkpt lat="48.57492" lon="1.94067">
        <ele>133.075</ele>
        <time>2016-03-24T09:10:14.519Z</time>
      </trkpt>
      <trkpt lat="48.57497" lon="1.94078">
        <ele>133.207</ele>
        <time>2016-03-24T09:10:22.681Z</time>
      </trkpt>
      <trkpt lat="48.57502" lon="1.9409">
        <ele>133.24</ele>
        <time>2016-03-24T09:10:31.255Z</time>
      </trkpt>
      <trkpt lat="48.57508" lon="1.94102">
        <ele>133.175</ele>
        <time>2016-03-24T09:10:40.005Z</time>
      </trkpt>
      <trkpt lat="48.57513" lon="1.94115">
        <ele>133.101</ele>
        <time>2016-03-24T09:10:48.804Z</time>
      </trkpt>
      <trkpt lat="48.57517" lon="1.94127">
        <ele>133.084</ele>
        <time>2016-03-24T09:10:56.718Z</time>
      </trkpt>
      <trkpt lat="48.57522" lon="1.9414">
        <ele>133.104</ele>
        <time>2016-03-24T09:11:04.869Z</time>
      </trkpt>
      <trkpt lat="48.57528" lon="1.94151">
        <ele>133.088</ele>
        <time>2016-03-24T09:11:12.534Z</time>
      </trkpt>
      <trkpt lat="48.57534" lon="1.94162">
        <ele>132.941</ele>
        <time>2016-03-24T09:11:19.888Z</time>
      </trkpt>
      <trkpt lat="48.5754" lon="1.94173">
        <ele>132.688</ele>
        <time>2016-03-24T09:11:27.323Z</time>
      </trkpt>
      <trkpt lat="48.57545" lon="1.94185">
        <ele>132.52</ele>
        <time>2016-03-24T09:11:35.128Z</time>
      </trkpt>
      <trkpt lat="48.57551" lon="1.94197">
        <ele>132.555</ele>
        <time>2016-03-24T09:11:43.533Z</time>
      </trkpt>
      <trkpt lat="48.57556" lon="1.94208">
        <ele>132.768</ele>
        <time>2016-03-24T09:11:51.704Z</time>
      </trkpt>
      <trkpt lat="48.57563" lon="1.94219">
        <ele>133.142</ele>
        <time>2016-03-24T09:11:59.736Z</time>
      </trkpt>
      <trkpt lat="48.5757" lon="1.9423">
        <ele>133.681</ele>
        <time>2016-03-24T09:12:07.687Z</time>
      </trkpt>
      <trkpt lat="48.57576" lon="1.94241">
        <ele>134.315</ele>
        <time>2016-03-24T09:12:15.484Z</time>
      </trkpt>
      <trkpt lat="48.57583" lon="1.94252">
        <ele>134.927</ele>
        <time>2016-03-24T09:12:23.841Z</time>
      </trkpt>
      <trkpt lat="48.57589" lon="1.94263">
        <ele>135.485</ele>
        <time>2016-03-24T09:12:32.621Z</time>
      </trkpt>
      <trkpt lat="48.57596" lon="1.94273">
        <ele>136.086</ele>
        <time>2016-03-24T09:12:40.708Z</time>
      </trkpt>
      <trkpt lat="48.57602" lon="1.94283">
        <ele>136.813</ele>
        <time>2016-03-24T09:12:48.999Z</time>
      </trkpt>
      <trkpt lat="48.57602" lon="1.94283">
        <ele>137.538</ele>
        <time>2016-03-24T09:12:48.999Z</time>
      </trkpt>
      <trkpt lat="48.57602" lon="1.94283">
        <ele>137.914</ele>
        <time>2016-03-24T09:13:04.003Z</time>
      </trkpt>
      <trkpt lat="48.57606" lon="1.94296">
        <ele>137.563</ele>
        <time>2016-03-24T09:13:26.060Z</time>
      </trkpt>
      <trkpt lat="48.57614" lon="1.94308">
        <ele>137.648</ele>
        <time>2016-03-24T09:13:35.197Z</time>
      </trkpt>
      <trkpt lat="48.57619" lon="1.9432">
        <ele>138.308</ele>
        <time>2016-03-24T09:13:43.062Z</time>
      </trkpt>
      <trkpt lat="48.57625" lon="1.94331">
        <ele>139.128</ele>
        <time>2016-03-24T09:13:51.224Z</time>
      </trkpt>
      <trkpt lat="48.5763" lon="1.94344">
        <ele>139.733</ele>
        <time>2016-03-24T09:14:00.009Z</time>
      </trkpt>
      <trkpt lat="48.57634" lon="1.94356">
        <ele>140.174</ele>
        <time>2016-03-24T09:14:09.142Z</time>
      </trkpt>
      <trkpt lat="48.5764" lon="1.94368">
        <ele>140.397</ele>
        <time>2016-03-24T09:14:18.857Z</time>
      </trkpt>
      <trkpt lat="48.57644" lon="1.94382">
        <ele>140.274</ele>
        <time>2016-03-24T09:14:28.875Z</time>
      </trkpt>
      <trkpt lat="48.57648" lon="1.94394">
        <ele>139.785</ele>
        <time>2016-03-24T09:14:38.238Z</time>
      </trkpt>
      <trkpt lat="48.57653" lon="1.94407">
        <ele>138.956</ele>
        <time>2016-03-24T09:14:47.538Z</time>
      </trkpt>
      <trkpt lat="48.57658" lon="1.94419">
        <ele>137.987</ele>
        <time>2016-03-24T09:14:56.646Z</time>
      </trkpt>
      <trkpt lat="48.57661" lon="1.94433">
        <ele>137.133</ele>
        <time>2016-03-24T09:15:06.622Z</time>
      </trkpt>
      <trkpt lat="48.57664" lon="1.94447">
        <ele>136.387</ele>
        <time>2016-03-24T09:15:15.916Z</time>
      </trkpt>
      <trkpt lat="48.5767" lon="1.94458">
        <ele>135.592</ele>
        <time>2016-03-24T09:15:24.844Z</time>
      </trkpt>
      <trkpt lat="48.57673" lon="1.94471">
        <ele>134.782</ele>
        <time>2016-03-24T09:15:33.292Z</time>
      </trkpt>
      <trkpt lat="48.57677" lon="1.94485">
        <ele>134.087</ele>
        <time>2016-03-24T09:15:41.984Z</time>
      </trkpt>
      <trkpt lat="48.57681" lon="1.94498">
        <ele>133.522</ele>
        <time>2016-03-24T09:15:50.591Z</time>
      </trkpt>
      <trkpt lat="48.57687" lon="1.9451">
        <ele>133.054</ele>
        <time>2016-03-24T09:15:58.846Z</time>
      </trkpt>
      <trkpt lat="48.57693" lon="1.9452">
        <ele>132.697</ele>
        <time>2016-03-24T09:16:05.808Z</time>
      </trkpt>
      <trkpt lat="48.57697" lon="1.94533">
        <ele>132.461</ele>
        <time>2016-03-24T09:16:13.249Z</time>
      </trkpt>
      <trkpt lat="48.57703" lon="1.94544">
        <ele>132.303</ele>
        <time>2016-03-24T09:16:20.734Z</time>
      </trkpt>
      <trkpt lat="48.5771" lon="1.94553">
        <ele>132.112</ele>
        <time>2016-03-24T09:16:29.435Z</time>
      </trkpt>
      <trkpt lat="48.57715" lon="1.94566">
        <ele>131.85</ele>
        <time>2016-03-24T09:16:38.447Z</time>
      </trkpt>
      <trkpt lat="48.57721" lon="1.94577">
        <ele>131.613</ele>
        <time>2016-03-24T09:16:47.581Z</time>
      </trkpt>
      <trkpt lat="48.57725" lon="1.9459">
        <ele>131.473</ele>
        <time>2016-03-24T09:16:55.596Z</time>
      </trkpt>
      <trkpt lat="48.57728" lon="1.94603">
        <ele>131.408</ele>
        <time>2016-03-24T09:17:03.406Z</time>
      </trkpt>
      <trkpt lat="48.57733" lon="1.94616">
        <ele>131.39</ele>
        <time>2016-03-24T09:17:11.237Z</time>
      </trkpt>
      <trkpt lat="48.57738" lon="1.94627">
        <ele>131.349</ele>
        <time>2016-03-24T09:17:18.245Z</time>
      </trkpt>
      <trkpt lat="48.57742" lon="1.94641">
        <ele>131.226</ele>
        <time>2016-03-24T09:17:26.154Z</time>
      </trkpt>
      <trkpt lat="48.57747" lon="1.94654">
        <ele>131.068</ele>
        <time>2016-03-24T09:17:34.321Z</time>
      </trkpt>
      <trkpt lat="48.57751" lon="1.94667">
        <ele>130.937</ele>
        <time>2016-03-24T09:17:41.985Z</time>
      </trkpt>
      <trkpt lat="48.57754" lon="1.9468">
        <ele>130.849</ele>
        <time>2016-03-24T09:17:49.674Z</time>
      </trkpt>
      <trkpt lat="48.57758" lon="1.94692">
        <ele>130.786</ele>
        <time>2016-03-24T09:17:57.748Z</time>
      </trkpt>
      <trkpt lat="48.57762" lon="1.94707">
        <ele>130.722</ele>
        <time>2016-03-24T09:18:06.454Z</time>
      </trkpt>
      <trkpt lat="48.57766" lon="1.9472">
        <ele>130.626</ele>
        <time>2016-03-24T09:18:14.032Z</time>
      </trkpt>
      <trkpt lat="48.5777" lon="1.94733">
        <ele>130.486</ele>
        <time>2016-03-24T09:18:21.263Z</time>
      </trkpt>
      <trkpt lat="48.57773" lon="1.94747">
        <ele>130.292</ele>
        <time>2016-03-24T09:18:29.268Z</time>
      </trkpt>
      <trkpt lat="48.57775" lon="1.94761">
        <ele>129.985</ele>
        <time>2016-03-24T09:18:37.034Z</time>
      </trkpt>
      <trkpt lat="48.57778" lon="1.94773">
        <ele>129.493</ele>
        <time>2016-03-24T09:18:44.543Z</time>
      </trkpt>
      <trkpt lat="48.57781" lon="1.94787">
        <ele>128.911</ele>
        <time>2016-03-24T09:18:52.690Z</time>
      </trkpt>
      <trkpt lat="48.57788" lon="1.94797">
        <ele>128.256</ele>
        <time>2016-03-24T09:19:00.532Z</time>
      </trkpt>
      <trkpt lat="48.57794" lon="1.94809">
        <ele>127.421</ele>
        <time>2016-03-24T09:19:08.822Z</time>
      </trkpt>
      <trkpt lat="48.57798" lon="1.94823">
        <ele>126.583</ele>
        <time>2016-03-24T09:19:16.646Z</time>
      </trkpt>
      <trkpt lat="48.57804" lon="1.94834">
        <ele>126.043</ele>
        <time>2016-03-24T09:19:24.000Z</time>
      </trkpt>
      <trkpt lat="48.57804" lon="1.94834">
        <ele>125.814</ele>
        <time>2016-03-24T09:19:32.000Z</time>
      </trkpt>
      <trkpt lat="48.57804" lon="1.94834">
        <ele>125.768</ele>
        <time>2016-03-24T09:19:32.100Z</time>
      </trkpt>
      <trkpt lat="48.5781" lon="1.94853">
        <ele>125.769</ele>
        <time>2016-03-24T09:19:47.914Z</time>
      </trkpt>
      <trkpt lat="48.57816" lon="1.94864">
        <ele>125.622</ele>
        <time>2016-03-24T09:19:56.435Z</time>
      </trkpt>
      <trkpt lat="48.57822" lon="1.94873">
        <ele>125.281</ele>
        <time>2016-03-24T09:20:04.656Z</time>
      </trkpt>
      <trkpt lat="48.57829" lon="1.94883">
        <ele>124.983</ele>
        <time>2016-03-24T09:20:13.027Z</time>
      </trkpt>
      <trkpt lat="48.57836" lon="1.94895">
        <ele>124.912</ele>
        <time>2016-03-24T09:20:21.411Z</time>
      </trkpt>
      <trkpt lat="48.57843" lon="1.94904">
        <ele>124.976</ele>
        <time>2016-03-24T09:20:29.468Z</time>
      </trkpt>
      <trkpt lat="48.5785" lon="1.94915">
        <ele>125.032</ele>
        <time>2016-03-24T09:20:38.009Z</time>
      </trkpt>
      <trkpt lat="48.57859" lon="1.94923">
        <ele>125.033</ele>
        <time>2016-03-24T09:20:46.271Z</time>
      </trkpt>
      <trkpt lat="48.57866" lon="1.94931">
        <ele>125.019</ele>
        <time>2016-03-24T09:20:53.924Z</time>
      </trkpt>
      <trkpt lat="48.57875" lon="1.94938">
        <ele>125.051</ele>
        <time>2016-03-24T09:21:01.431Z</time>
      </trkpt>
      <trkpt lat="48.57884" lon="1.94944">
        <ele>125.117</ele>
        <time>2016-03-24T09:21:09.494Z</time>
      </trkpt>
      <trkpt lat="48.57893" lon="1.94946">
        <ele>125.183</ele>
        <time>2016-03-24T09:21:17.107Z</time>
      </trkpt>
      <trkpt lat="48.57903" lon="1.94944">
        <ele>125.238</ele>
        <time>2016-03-24T09:21:24.864Z</time>
      </trkpt>
      <trkpt lat="48.57912" lon="1.94946">
        <ele>125.289</ele>
        <time>2016-03-24T09:21:32.017Z</time>
      </trkpt>
      <trkpt lat="48.57922" lon="1.94948">
        <ele>125.377</ele>
        <time>2016-03-24T09:21:40.353Z</time>
      </trkpt>
      <trkpt lat="48.57932" lon="1.94951">
        <ele>125.567</ele>
        <time>2016-03-24T09:21:48.796Z</time>
      </trkpt>
      <trkpt lat="48.57942" lon="1.94953">
        <ele>125.885</ele>
        <time>2016-03-24T09:21:56.995Z</time>
      </trkpt>
      <trkpt lat="48.57951" lon="1.94954">
        <ele>126.264</ele>
        <time>2016-03-24T09:22:04.361Z</time>
      </trkpt>
      <trkpt lat="48.5796" lon="1.94955">
        <ele>126.607</ele>
        <time>2016-03-24T09:22:11.497Z</time>
      </trkpt>
      <trkpt lat="48.57969" lon="1.94957">
        <ele>126.903</ele>
        <time>2016-03-24T09:22:18.416Z</time>
      </trkpt>
      <trkpt lat="48.57978" lon="1.94958">
        <ele>127.171</ele>
        <time>2016-03-24T09:22:25.960Z</time>
      </trkpt>
      <trkpt lat="48.57987" lon="1.9496">
        <ele>127.425</ele>
        <time>2016-03-24T09:22:33.391Z</time>
      </trkpt>
      <trkpt lat="48.57997" lon="1.94961">
        <ele>127.699</ele>
        <time>2016-03-24T09:22:41.272Z</time>
      </trkpt>
      <trkpt lat="48.58007" lon="1.94963">
        <ele>127.962</ele>
        <time>2016-03-24T09:22:49.127Z</time>
      </trkpt>
      <trkpt lat="48.58016" lon="1.94964">
        <ele>128.138</ele>
        <time>2016-03-24T09:22:56.851Z</time>
      </trkpt>
      <trkpt lat="48.58026" lon="1.94965">
        <ele>128.295</ele>
        <time>2016-03-24T09:23:05.245Z</time>
      </trkpt>
      <trkpt lat="48.58036" lon="1.94965">
        <ele>128.577</ele>
        <time>2016-03-24T09:23:13.998Z</time>
      </trkpt>
      <trkpt lat="48.58036" lon="1.94965">
        <ele>128.926</ele>
        <time>2016-03-24T09:23:20.998Z</time>
      </trkpt>
      <trkpt lat="48.58036" lon="1.94965">
        <ele>129.109</ele>
        <time>2016-03-24T09:23:43.770Z</time>
      </trkpt>
      <trkpt lat="48.58045" lon="1.94963">
        <ele>128.882</ele>
        <time>2016-03-24T09:23:57.998Z</time>
      </trkpt>
      <trkpt lat="48.58056" lon="1.94964">
        <ele>128.958</ele>
        <time>2016-03-24T09:24:06.193Z</time>
      </trkpt>
      <trkpt lat="48.58066" lon="1.94966">
        <ele>129.477</ele>
        <time>2016-03-24T09:24:12.666Z</time>
      </trkpt>
      <trkpt lat="48.58076" lon="1.94966">
        <ele>130.235</ele>
        <time>2016-03-24T09:24:18.998Z</time>
      </trkpt>
      <trkpt lat="48.58076" lon="1.94966">
        <ele>130.831</ele>
        <time>2016-03-24T09:24:30.998Z</time>
      </trkpt>
      <trkpt lat="48.58076" lon="1.94966">
        <ele>131.059</ele>
        <time>2016-03-24T09:25:42.414Z</time>
      </trkpt>
      <trkpt lat="48.58087" lon="1.94957">
        <ele>130.971</ele>
        <time>2016-03-24T09:25:55.579Z</time>
      </trkpt>
      <trkpt lat="48.58089" lon="1.94943">
        <ele>130.989</ele>
        <time>2016-03-24T09:26:02.810Z</time>
      </trkpt>
      <trkpt lat="48.58093" lon="1.94929">
        <ele>131.395</ele>
        <time>2016-03-24T09:26:10.998Z</time>
      </trkpt>
      <trkpt lat="48.58093" lon="1.94929">
        <ele>131.853</ele>
        <time>2016-03-24T09:26:19.998Z</time>
      </trkpt>
      <trkpt lat="48.58093" lon="1.94929">
        <ele>131.99</ele>
        <time>2016-03-24T09:26:20.098Z</time>
      </trkpt>
      <trkpt lat="48.58096" lon="1.94906">
        <ele>131.892</ele>
        <time>2016-03-24T09:26:40.674Z</time>
      </trkpt>
      <trkpt lat="48.58098" lon="1.94892">
        <ele>131.762</ele>
        <time>2016-03-24T09:26:49.069Z</time>
      </trkpt>
      <trkpt lat="48.581" lon="1.94877">
        <ele>131.682</ele>
        <time>2016-03-24T09:26:57.227Z</time>
      </trkpt>
      <trkpt lat="48.58102" lon="1.94863">
        <ele>131.637</ele>
        <time>2016-03-24T09:27:04.921Z</time>
      </trkpt>
      <trkpt lat="48.58104" lon="1.9485">
        <ele>131.635</ele>
        <time>2016-03-24T09:27:12.800Z</time>
      </trkpt>
      <trkpt lat="48.58107" lon="1.94837">
        <ele>131.688</ele>
        <time>2016-03-24T09:27:21.141Z</time>
      </trkpt>
      <trkpt lat="48.58108" lon="1.94823">
        <ele>131.761</ele>
        <time>2016-03-24T09:27:29.328Z</time>
      </trkpt>
      <trkpt lat="48.58109" lon="1.94807">
        <ele>131.789</ele>
        <time>2016-03-24T09:27:37.471Z</time>
      </trkpt>
      <trkpt lat="48.5811" lon="1.94794">
        <ele>131.732</ele>
        <time>2016-03-24T09:27:44.674Z</time>
      </trkpt>
      <trkpt lat="48.58113" lon="1.9478">
        <ele>131.61</ele>
        <time>2016-03-24T09:27:52.449Z</time>
      </trkpt>
      <trkpt lat="48.58114" lon="1.94766">
        <ele>131.494</ele>
        <time>2016-03-24T09:27:59.921Z</time>
      </trkpt>
      <trkpt lat="48.58116" lon="1.94752">
        <ele>131.444</ele>
        <time>2016-03-24T09:28:07.705Z</time>
      </trkpt>
      <trkpt lat="48.58118" lon="1.94738">
        <ele>131.461</ele>
        <time>2016-03-24T09:28:15.172Z</time>
      </trkpt>
      <trkpt lat="48.5812" lon="1.94724">
        <ele>131.507</ele>
        <time>2016-03-24T09:28:22.866Z</time>
      </trkpt>
      <trkpt lat="48.58122" lon="1.94709">
        <ele>131.537</ele>
        <time>2016-03-24T09:28:30.930Z</time>
      </trkpt>
      <trkpt lat="48.58123" lon="1.94694">
        <ele>131.546</ele>
        <time>2016-03-24T09:28:38.949Z</time>
      </trkpt>
      <trkpt lat="48.58124" lon="1.94679">
        <ele>131.602</ele>
        <time>2016-03-24T09:28:46.932Z</time>
      </trkpt>
      <trkpt lat="48.58125" lon="1.94665">
        <ele>131.83</ele>
        <time>2016-03-24T09:28:54.441Z</time>
      </trkpt>
      <trkpt lat="48.58126" lon="1.94651">
        <ele>132.215</ele>
        <time>2016-03-24T09:29:01.882Z</time>
      </trkpt>
      <trkpt lat="48.58128" lon="1.94637">
        <ele>132.571</ele>
        <time>2016-03-24T09:29:09.542Z</time>
      </trkpt>
      <trkpt lat="48.5813" lon="1.94623">
        <ele>132.872</ele>
        <time>2016-03-24T09:29:17.438Z</time>
      </trkpt>
      <trkpt lat="48.58132" lon="1.9461">
        <ele>133.217</ele>
        <time>2016-03-24T09:29:25.826Z</time>
      </trkpt>
      <trkpt lat="48.58136" lon="1.94598">
        <ele>133.538</ele>
        <time>2016-03-24T09:29:35.000Z</time>
      </trkpt>
      <trkpt lat="48.58136" lon="1.94598">
        <ele>133.712</ele>
        <time>2016-03-24T09:29:37.000Z</time>
      </trkpt>
      <trkpt lat="48.58136" lon="1.94598">
        <ele>133.725</ele>
        <time>2016-03-24T09:29:37.100Z</time>
      </trkpt>
      <trkpt lat="48.58148" lon="1.94595">
        <ele>133.578</ele>
        <time>2016-03-24T09:29:52.556Z</time>
      </trkpt>
      <trkpt lat="48.58157" lon="1.94598">
        <ele>133.649</ele>
        <time>2016-03-24T09:30:01.001Z</time>
      </trkpt>
      <trkpt lat="48.58166" lon="1.94601">
        <ele>133.994</ele>
        <time>2016-03-24T09:30:09.167Z</time>
      </trkpt>
      <trkpt lat="48.58175" lon="1.94605">
        <ele>134.533</ele>
        <time>2016-03-24T09:30:17.030Z</time>
      </trkpt>
      <trkpt lat="48.58185" lon="1.94609">
        <ele>135.09</ele>
        <time>2016-03-24T09:30:25.897Z</time>
      </trkpt>
      <trkpt lat="48.58194" lon="1.94612">
        <ele>135.642</ele>
        <time>2016-03-24T09:30:33.862Z</time>
      </trkpt>
      <trkpt lat="48.58203" lon="1.94615">
        <ele>136.224</ele>
        <time>2016-03-24T09:30:41.879Z</time>
      </trkpt>
      <trkpt lat="48.58211" lon="1.94618">
        <ele>136.8</ele>
        <time>2016-03-24T09:30:49.992Z</time>
      </trkpt>
      <trkpt lat="48.58222" lon="1.94624">
        <ele>137.325</ele>
        <time>2016-03-24T09:30:59.843Z</time>
      </trkpt>
      <trkpt lat="48.58231" lon="1.94626">
        <ele>137.845</ele>
        <time>2016-03-24T09:31:08.852Z</time>
      </trkpt>
      <trkpt lat="48.58241" lon="1.94627">
        <ele>138.475</ele>
        <time>2016-03-24T09:31:18.459Z</time>
      </trkpt>
      <trkpt lat="48.5825" lon="1.9463">
        <ele>139.223</ele>
        <time>2016-03-24T09:31:27.510Z</time>
      </trkpt>
      <trkpt lat="48.58259" lon="1.94634">
        <ele>139.958</ele>
        <time>2016-03-24T09:31:37.600Z</time>
      </trkpt>
      <trkpt lat="48.58269" lon="1.94634">
        <ele>140.594</ele>
        <time>2016-03-24T09:31:47.362Z</time>
      </trkpt>
      <trkpt lat="48.58278" lon="1.94635">
        <ele>141.225</ele>
        <time>2016-03-24T09:31:56.091Z</time>
      </trkpt>
      <trkpt lat="48.58288" lon="1.94638">
        <ele>141.918</ele>
        <time>2016-03-24T09:32:05.286Z</time>
      </trkpt>
      <trkpt lat="48.58297" lon="1.9464">
        <ele>142.595</ele>
        <time>2016-03-24T09:32:15.226Z</time>
      </trkpt>
      <trkpt lat="48.58306" lon="1.94641">
        <ele>143.232</ele>
        <time>2016-03-24T09:32:26.028Z</time>
      </trkpt>
      <trkpt lat="48.58316" lon="1.94642">
        <ele>143.891</ele>
        <time>2016-03-24T09:32:34.784Z</time>
      </trkpt>
      <trkpt lat="48.58326" lon="1.94641">
        <ele>144.581</ele>
        <time>2016-03-24T09:32:42.672Z</time>
      </trkpt>
      <trkpt lat="48.58335" lon="1.94641">
        <ele>145.275</ele>
        <time>2016-03-24T09:32:50.881Z</time>
      </trkpt>
      <trkpt lat="48.58345" lon="1.94641">
        <ele>145.952</ele>
        <time>2016-03-24T09:33:01.484Z</time>
      </trkpt>
      <trkpt lat="48.58356" lon="1.94641">
        <ele>146.627</ele>
        <time>2016-03-24T09:33:13.868Z</time>
      </trkpt>
      <trkpt lat="48.58366" lon="1.94641">
        <ele>147.469</ele>
        <time>2016-03-24T09:33:23.966Z</time>
      </trkpt>
      <trkpt lat="48.58375" lon="1.94639">
        <ele>148.561</ele>
        <time>2016-03-24T09:33:32.764Z</time>
      </trkpt>
      <trkpt lat="48.58384" lon="1.94634">
        <ele>149.774</ele>
        <time>2016-03-24T09:33:41.928Z</time>
      </trkpt>
      <trkpt lat="48.58393" lon="1.94632">
        <ele>150.986</ele>
        <time>2016-03-24T09:33:51.034Z</time>
      </trkpt>
      <trkpt lat="48.58403" lon="1.94631">
        <ele>152.258</ele>
        <time>2016-03-24T09:33:59.849Z</time>
      </trkpt>
      <trkpt lat="48.58413" lon="1.9463">
        <ele>153.643</ele>
        <time>2016-03-24T09:34:09.697Z</time>
      </trkpt>
      <trkpt lat="48.58422" lon="1.94634">
        <ele>155.061</ele>
        <time>2016-03-24T09:34:20.429Z</time>
      </trkpt>
      <trkpt lat="48.58431" lon="1.94637">
        <ele>156.524</ele>
        <time>2016-03-24T09:34:30.447Z</time>
      </trkpt>
      <trkpt lat="48.58441" lon="1.94641">
        <ele>158.112</ele>
        <time>2016-03-24T09:34:39.986Z</time>
      </trkpt>
      <trkpt lat="48.5845" lon="1.94645">
        <ele>159.76</ele>
        <time>2016-03-24T09:34:49.539Z</time>
      </trkpt>
      <trkpt lat="48.5846" lon="1.94645">
        <ele>161.288</ele>
        <time>2016-03-24T09:34:59.204Z</time>
      </trkpt>
      <trkpt lat="48.58469" lon="1.94648">
        <ele>162.417</ele>
        <time>2016-03-24T09:35:07.606Z</time>
      </trkpt>
      <trkpt lat="48.58478" lon="1.94653">
        <ele>162.995</ele>
        <time>2016-03-24T09:35:16.265Z</time>
      </trkpt>
      <trkpt lat="48.58485" lon="1.94662">
        <ele>163.235</ele>
        <time>2016-03-24T09:35:25.121Z</time>
      </trkpt>
      <trkpt lat="48.58494" lon="1.94668">
        <ele>163.379</ele>
        <time>2016-03-24T09:35:35.366Z</time>
      </trkpt>
      <trkpt lat="48.58501" lon="1.94675">
        <ele>163.479</ele>
        <time>2016-03-24T09:35:45.950Z</time>
      </trkpt>
      <trkpt lat="48.58509" lon="1.94683">
        <ele>163.496</ele>
        <time>2016-03-24T09:35:55.043Z</time>
      </trkpt>
      <trkpt lat="48.58518" lon="1.94688">
        <ele>163.331</ele>
        <time>2016-03-24T09:36:03.811Z</time>
      </trkpt>
      <trkpt lat="48.58527" lon="1.94693">
        <ele>162.888</ele>
        <time>2016-03-24T09:36:12.746Z</time>
      </trkpt>
      <trkpt lat="48.58537" lon="1.94695">
        <ele>162.259</ele>
        <time>2016-03-24T09:36:20.610Z</time>
      </trkpt>
      <trkpt lat="48.58545" lon="1.94699">
        <ele>161.631</ele>
        <time>2016-03-24T09:36:27.818Z</time>
      </trkpt>
      <trkpt lat="48.58555" lon="1.94701">
        <ele>161.059</ele>
        <time>2016-03-24T09:36:36.243Z</time>
      </trkpt>
      <trkpt lat="48.58564" lon="1.94705">
        <ele>160.511</ele>
        <time>2016-03-24T09:36:45.201Z</time>
      </trkpt>
      <trkpt lat="48.58574" lon="1.94708">
        <ele>160.041</ele>
        <time>2016-03-24T09:36:54.126Z</time>
      </trkpt>
      <trkpt lat="48.58583" lon="1.94709">
        <ele>159.757</ele>
        <time>2016-03-24T09:37:01.784Z</time>
      </trkpt>
      <trkpt lat="48.58592" lon="1.94717">
        <ele>159.664</ele>
        <time>2016-03-24T09:37:10.539Z</time>
      </trkpt>
      <trkpt lat="48.58603" lon="1.94722">
        <ele>159.673</ele>
        <time>2016-03-24T09:37:19.993Z</time>
      </trkpt>
      <trkpt lat="48.58611" lon="1.94728">
        <ele>159.621</ele>
        <time>2016-03-24T09:37:27.770Z</time>
      </trkpt>
      <trkpt lat="48.5862" lon="1.94733">
        <ele>159.429</ele>
        <time>2016-03-24T09:37:36.420Z</time>
      </trkpt>
      <trkpt lat="48.5863" lon="1.94735">
        <ele>159.224</ele>
        <time>2016-03-24T09:37:45.808Z</time>
      </trkpt>
      <trkpt lat="48.5864" lon="1.94737">
        <ele>159.134</ele>
        <time>2016-03-24T09:37:55.398Z</time>
      </trkpt>
      <trkpt lat="48.58649" lon="1.9474">
        <ele>159.046</ele>
        <time>2016-03-24T09:38:03.601Z</time>
      </trkpt>
      <trkpt lat="48.58658" lon="1.94745">
        <ele>158.796</ele>
        <time>2016-03-24T09:38:12.698Z</time>
      </trkpt>
      <trkpt lat="48.58667" lon="1.94746">
        <ele>158.435</ele>
        <time>2016-03-24T09:38:21.037Z</time>
      </trkpt>
      <trkpt lat="48.58677" lon="1.94747">
        <ele>158.139</ele>
        <time>2016-03-24T09:38:28.402Z</time>
      </trkpt>
      <trkpt lat="48.58686" lon="1.9475">
        <ele>157.901</ele>
        <time>2016-03-24T09:38:35.712Z</time>
      </trkpt>
      <trkpt lat="48.58696" lon="1.94754">
        <ele>157.564</ele>
        <time>2016-03-24T09:38:43.057Z</time>
      </trkpt>
      <trkpt lat="48.58706" lon="1.94759">
        <ele>157.062</ele>
        <time>2016-03-24T09:38:51.136Z</time>
      </trkpt>
      <trkpt lat="48.58713" lon="1.94768">
        <ele>156.407</ele>
        <time>2016-03-24T09:39:00.133Z</time>
      </trkpt>
      <trkpt lat="48.5872" lon="1.94778">
        <ele>155.579</ele>
        <time>2016-03-24T09:39:09.064Z</time>
      </trkpt>
      <trkpt lat="48.58728" lon="1.94783">
        <ele>154.544</ele>
        <time>2016-03-24T09:39:17.685Z</time>
      </trkpt>
      <trkpt lat="48.58736" lon="1.94791">
        <ele>153.342</ele>
        <time>2016-03-24T09:39:26.007Z</time>
      </trkpt>
      <trkpt lat="48.58745" lon="1.94798">
        <ele>152.023</ele>
        <time>2016-03-24T09:39:34.517Z</time>
      </trkpt>
      <trkpt lat="48.58754" lon="1.94804">
        <ele>150.741</ele>
        <time>2016-03-24T09:39:41.786Z</time>
      </trkpt>
      <trkpt lat="48.58763" lon="1.9481">
        <ele>149.726</ele>
        <time>2016-03-24T09:39:49.451Z</time>
      </trkpt>
      <trkpt lat="48.58773" lon="1.94813">
        <ele>149.02</ele>
        <time>2016-03-24T09:39:56.674Z</time>
      </trkpt>
      <trkpt lat="48.58781" lon="1.94819">
        <ele>148.432</ele>
        <time>2016-03-24T09:40:03.714Z</time>
      </trkpt>
      <trkpt lat="48.5879" lon="1.94825">
        <ele>147.801</ele>
        <time>2016-03-24T09:40:10.349Z</time>
      </trkpt>
      <trkpt lat="48.58797" lon="1.94835">
        <ele>147.04</ele>
        <time>2016-03-24T09:40:17.359Z</time>
      </trkpt>
      <trkpt lat="48.58804" lon="1.94845">
        <ele>146.15</ele>
        <time>2016-03-24T09:40:25.058Z</time>
      </trkpt>
      <trkpt lat="48.58812" lon="1.94854">
        <ele>145.277</ele>
        <time>2016-03-24T09:40:33.417Z</time>
      </trkpt>
      <trkpt lat="48.5882" lon="1.9486">
        <ele>144.565</ele>
        <time>2016-03-24T09:40:41.903Z</time>
      </trkpt>
      <trkpt lat="48.58829" lon="1.94867">
        <ele>143.935</ele>
        <time>2016-03-24T09:40:51.498Z</time>
      </trkpt>
      <trkpt lat="48.58836" lon="1.94876">
        <ele>143.244</ele>
        <time>2016-03-24T09:41:00.841Z</time>
      </trkpt>
      <trkpt lat="48.58845" lon="1.94884">
        <ele>142.532</ele>
        <time>2016-03-24T09:41:09.628Z</time>
      </trkpt>
      <trkpt lat="48.58853" lon="1.94891">
        <ele>141.878</ele>
        <time>2016-03-24T09:41:16.880Z</time>
      </trkpt>
      <trkpt lat="48.58863" lon="1.94896">
        <ele>141.293</ele>
        <time>2016-03-24T09:41:24.600Z</time>
      </trkpt>
      <trkpt lat="48.58871" lon="1.94903">
        <ele>140.845</ele>
        <time>2016-03-24T09:41:32.258Z</time>
      </trkpt>
      <trkpt lat="48.58878" lon="1.94911">
        <ele>140.524</ele>
        <time>2016-03-24T09:41:40.093Z</time>
      </trkpt>
      <trkpt lat="48.58886" lon="1.94919">
        <ele>140.17</ele>
        <time>2016-03-24T09:41:48.756Z</time>
      </trkpt>
      <trkpt lat="48.58895" lon="1.94927">
        <ele>139.748</ele>
        <time>2016-03-24T09:41:57.583Z</time>
      </trkpt>
      <trkpt lat="48.58903" lon="1.94935">
        <ele>139.394</ele>
        <time>2016-03-24T09:42:05.360Z</time>
      </trkpt>
      <trkpt lat="48.58911" lon="1.94942">
        <ele>139.215</ele>
        <time>2016-03-24T09:42:13.344Z</time>
      </trkpt>
      <trkpt lat="48.58919" lon="1.94951">
        <ele>139.193</ele>
        <time>2016-03-24T09:42:21.149Z</time>
      </trkpt>
      <trkpt lat="48.58926" lon="1.94961">
        <ele>139.132</ele>
        <time>2016-03-24T09:42:28.410Z</time>
      </trkpt>
      <trkpt lat="48.58934" lon="1.94969">
        <ele>138.856</ele>
        <time>2016-03-24T09:42:35.843Z</time>
      </trkpt>
      <trkpt lat="48.58941" lon="1.9498">
        <ele>138.394</ele>
        <time>2016-03-24T09:42:43.777Z</time>
      </trkpt>
      <trkpt lat="48.58949" lon="1.94989">
        <ele>137.888</ele>
        <time>2016-03-24T09:42:51.741Z</time>
      </trkpt>
      <trkpt lat="48.58956" lon="1.94997">
        <ele>137.423</ele>
        <time>2016-03-24T09:42:58.945Z</time>
      </trkpt>
      <trkpt lat="48.58963" lon="1.95006">
        <ele>137.05</ele>
        <time>2016-03-24T09:43:06.357Z</time>
      </trkpt>
      <trkpt lat="48.5897" lon="1.95016">
        <ele>136.772</ele>
        <time>2016-03-24T09:43:14.681Z</time>
      </trkpt>
      <trkpt lat="48.58978" lon="1.95025">
        <ele>136.571</ele>
        <time>2016-03-24T09:43:22.702Z</time>
      </trkpt>
      <trkpt lat="48.58985" lon="1.95033">
        <ele>136.36</ele>
        <time>2016-03-24T09:43:30.026Z</time>
      </trkpt>
      <trkpt lat="48.58992" lon="1.95044">
        <ele>136.085</ele>
        <time>2016-03-24T09:43:38.482Z</time>
      </trkpt>
      <trkpt lat="48.58998" lon="1.95055">
        <ele>135.776</ele>
        <time>2016-03-24T09:43:46.089Z</time>
      </trkpt>
      <trkpt lat="48.59006" lon="1.95065">
        <ele>135.484</ele>
        <time>2016-03-24T09:43:53.399Z</time>
      </trkpt>
      <trkpt lat="48.59013" lon="1.95072">
        <ele>135.258</ele>
        <time>2016-03-24T09:44:00.339Z</time>
      </trkpt>
      <trkpt lat="48.59022" lon="1.95082">
        <ele>135.115</ele>
        <time>2016-03-24T09:44:08.732Z</time>
      </trkpt>
      <trkpt lat="48.5903" lon="1.95091">
        <ele>135.01</ele>
        <time>2016-03-24T09:44:16.769Z</time>
      </trkpt>
      <trkpt lat="48.59039" lon="1.95098">
        <ele>134.861</ele>
        <time>2016-03-24T09:44:25.352Z</time>
      </trkpt>
      <trkpt lat="48.59045" lon="1.95108">
        <ele>134.613</ele>
        <time>2016-03-24T09:44:34.343Z</time>
      </trkpt>
      <trkpt lat="48.59051" lon="1.95119">
        <ele>134.349</ele>
        <time>2016-03-24T09:44:46.000Z</time>
      </trkpt>
      <trkpt lat="48.59051" lon="1.95119">
        <ele>134.189</ele>
        <time>2016-03-24T09:44:50.000Z</time>
      </trkpt>
      <trkpt lat="48.59051" lon="1.95119">
        <ele>134.119</ele>
        <time>2016-03-24T09:45:20.172Z</time>
      </trkpt>
      <trkpt lat="48.59063" lon="1.95134">
        <ele>134.076</ele>
        <time>2016-03-24T09:46:07.946Z</time>
      </trkpt>
      <trkpt lat="48.59072" lon="1.95141">
        <ele>133.902</ele>
        <time>2016-03-24T09:46:17.047Z</time>
      </trkpt>
      <trkpt lat="48.5908" lon="1.95148">
        <ele>133.498</ele>
        <time>2016-03-24T09:46:25.795Z</time>
      </trkpt>
      <trkpt lat="48.59089" lon="1.95157">
        <ele>133.053</ele>
        <time>2016-03-24T09:46:34.924Z</time>
      </trkpt>
      <trkpt lat="48.59097" lon="1.95165">
        <ele>132.799</ele>
        <time>2016-03-24T09:46:43.340Z</time>
      </trkpt>
      <trkpt lat="48.59106" lon="1.95171">
        <ele>132.711</ele>
        <time>2016-03-24T09:46:51.000Z</time>
      </trkpt>
      <trkpt lat="48.59114" lon="1.95178">
        <ele>132.639</ele>
        <time>2016-03-24T09:46:58.307Z</time>
      </trkpt>
      <trkpt lat="48.59122" lon="1.95186">
        <ele>132.48</ele>
        <time>2016-03-24T09:47:07.011Z</time>
      </trkpt>
      <trkpt lat="48.5913" lon="1.95193">
        <ele>132.254</ele>
        <time>2016-03-24T09:47:16.805Z</time>
      </trkpt>
      <trkpt lat="48.59137" lon="1.95203">
        <ele>132.046</ele>
        <time>2016-03-24T09:47:25.596Z</time>
      </trkpt>
      <trkpt lat="48.59144" lon="1.9521">
        <ele>131.893</ele>
        <time>2016-03-24T09:47:32.798Z</time>
      </trkpt>
      <trkpt lat="48.59152" lon="1.95217">
        <ele>131.796</ele>
        <time>2016-03-24T09:47:40.095Z</time>
      </trkpt>
      <trkpt lat="48.59159" lon="1.95226">
        <ele>131.717</ele>
        <time>2016-03-24T09:47:48.433Z</time>
      </trkpt>
      <trkpt lat="48.59166" lon="1.95235">
        <ele>131.58</ele>
        <time>2016-03-24T09:47:57.174Z</time>
      </trkpt>
      <trkpt lat="48.59173" lon="1.95243">
        <ele>131.324</ele>
        <time>2016-03-24T09:48:04.821Z</time>
      </trkpt>
      <trkpt lat="48.59181" lon="1.9525">
        <ele>131.004</ele>
        <time>2016-03-24T09:48:12.675Z</time>
      </trkpt>
      <trkpt lat="48.59189" lon="1.95258">
        <ele>130.737</ele>
        <time>2016-03-24T09:48:20.296Z</time>
      </trkpt>
      <trkpt lat="48.59197" lon="1.95264">
        <ele>130.572</ele>
        <time>2016-03-24T09:48:28.086Z</time>
      </trkpt>
      <trkpt lat="48.59204" lon="1.95272">
        <ele>130.419</ele>
        <time>2016-03-24T09:48:35.425Z</time>
      </trkpt>
      <trkpt lat="48.59213" lon="1.95281">
        <ele>130.205</ele>
        <time>2016-03-24T09:48:43.364Z</time>
      </trkpt>
      <trkpt lat="48.59221" lon="1.95288">
        <ele>129.96</ele>
        <time>2016-03-24T09:48:51.472Z</time>
      </trkpt>
      <trkpt lat="48.59229" lon="1.95296">
        <ele>129.709</ele>
        <time>2016-03-24T09:48:59.187Z</time>
      </trkpt>
      <trkpt lat="48.59237" lon="1.95304">
        <ele>129.482</ele>
        <time>2016-03-24T09:49:06.188Z</time>
      </trkpt>
      <trkpt lat="48.59246" lon="1.95312">
        <ele>129.337</ele>
        <time>2016-03-24T09:49:12.312Z</time>
      </trkpt>
      <trkpt lat="48.59254" lon="1.95319">
        <ele>129.252</ele>
        <time>2016-03-24T09:49:18.894Z</time>
      </trkpt>
      <trkpt lat="48.59262" lon="1.95328">
        <ele>129.181</ele>
        <time>2016-03-24T09:49:26.088Z</time>
      </trkpt>
      <trkpt lat="48.59271" lon="1.95333">
        <ele>129.302</ele>
        <time>2016-03-24T09:49:32.926Z</time>
      </trkpt>
      <trkpt lat="48.59279" lon="1.95341">
        <ele>129.795</ele>
        <time>2016-03-24T09:49:40.226Z</time>
      </trkpt>
      <trkpt lat="48.59286" lon="1.9535">
        <ele>130.427</ele>
        <time>2016-03-24T09:49:47.727Z</time>
      </trkpt>
      <trkpt lat="48.59295" lon="1.95358">
        <ele>130.823</ele>
        <time>2016-03-24T09:49:56.138Z</time>
      </trkpt>
      <trkpt lat="48.59303" lon="1.95366">
        <ele>130.928</ele>
        <time>2016-03-24T09:50:03.763Z</time>
      </trkpt>
      <trkpt lat="48.59312" lon="1.95375">
        <ele>130.844</ele>
        <time>2016-03-24T09:50:12.051Z</time>
      </trkpt>
      <trkpt lat="48.59319" lon="1.95385">
        <ele>130.638</ele>
        <time>2016-03-24T09:50:20.770Z</time>
      </trkpt>
      <trkpt lat="48.59327" lon="1.95395">
        <ele>130.363</ele>
        <time>2016-03-24T09:50:30.868Z</time>
      </trkpt>
      <trkpt lat="48.59334" lon="1.95403">
        <ele>130.086</ele>
        <time>2016-03-24T09:50:39.788Z</time>
      </trkpt>
      <trkpt lat="48.59342" lon="1.95411">
        <ele>129.846</ele>
        <time>2016-03-24T09:50:48.086Z</time>
      </trkpt>
      <trkpt lat="48.5935" lon="1.95417">
        <ele>129.617</ele>
        <time>2016-03-24T09:50:56.545Z</time>
      </trkpt>
      <trkpt lat="48.59357" lon="1.95426">
        <ele>129.363</ele>
        <time>2016-03-24T09:51:04.396Z</time>
      </trkpt>
      <trkpt lat="48.59365" lon="1.95433">
        <ele>129.13</ele>
        <time>2016-03-24T09:51:11.187Z</time>
      </trkpt>
      <trkpt lat="48.59374" lon="1.95439">
        <ele>128.975</ele>
        <time>2016-03-24T09:51:18.058Z</time>
      </trkpt>
      <trkpt lat="48.59383" lon="1.95445">
        <ele>128.886</ele>
        <time>2016-03-24T09:51:24.922Z</time>
      </trkpt>
      <trkpt lat="48.59389" lon="1.95456">
        <ele>128.772</ele>
        <time>2016-03-24T09:51:32.617Z</time>
      </trkpt>
      <trkpt lat="48.59397" lon="1.95464">
        <ele>128.574</ele>
        <time>2016-03-24T09:51:41.245Z</time>
      </trkpt>
      <trkpt lat="48.59404" lon="1.95474">
        <ele>128.37</ele>
        <time>2016-03-24T09:51:49.251Z</time>
      </trkpt>
      <trkpt lat="48.59412" lon="1.95481">
        <ele>128.254</ele>
        <time>2016-03-24T09:51:57.187Z</time>
      </trkpt>
      <trkpt lat="48.59421" lon="1.95485">
        <ele>128.209</ele>
        <time>2016-03-24T09:52:07.000Z</time>
      </trkpt>
      <trkpt lat="48.59421" lon="1.95485">
        <ele>128.188</ele>
        <time>2016-03-24T09:52:09.000Z</time>
      </trkpt>
      <trkpt lat="48.59421" lon="1.95485">
        <ele>128.159</ele>
        <time>2016-03-24T09:54:02.699Z</time>
      </trkpt>
      <trkpt lat="48.59429" lon="1.95493">
        <ele>128.111</ele>
        <time>2016-03-24T09:54:15.042Z</time>
      </trkpt>
      <trkpt lat="48.59438" lon="1.95495">
        <ele>127.341</ele>
        <time>2016-03-24T09:54:23.278Z</time>
      </trkpt>
      <trkpt lat="48.59447" lon="1.955">
        <ele>125.409</ele>
        <time>2016-03-24T09:54:32.000Z</time>
      </trkpt>
      <trkpt lat="48.59447" lon="1.955">
        <ele>123.432</ele>
        <time>2016-03-24T09:54:38.000Z</time>
      </trkpt>
      <trkpt lat="48.59447" lon="1.955">
        <ele>122.582</ele>
        <time>2016-03-24T09:54:58.342Z</time>
      </trkpt>
      <trkpt lat="48.59436" lon="1.95505">
        <ele>122.652</ele>
        <time>2016-03-24T09:55:36.206Z</time>
      </trkpt>
      <trkpt lat="48.59428" lon="1.95499">
        <ele>122.86</ele>
        <time>2016-03-24T09:56:00.835Z</time>
      </trkpt>
      <trkpt lat="48.5942" lon="1.95491">
        <ele>122.714</ele>
        <time>2016-03-24T09:56:26.104Z</time>
      </trkpt>
      <trkpt lat="48.59427" lon="1.95501">
        <ele>122.392</ele>
        <time>2016-03-24T09:56:50.831Z</time>
      </trkpt>
      <trkpt lat="48.59436" lon="1.95508">
        <ele>121.846</ele>
        <time>2016-03-24T09:57:17.651Z</time>
      </trkpt>
      <trkpt lat="48.59443" lon="1.95518">
        <ele>120.858</ele>
        <time>2016-03-24T09:57:44.396Z</time>
      </trkpt>
      <trkpt lat="48.59451" lon="1.95524">
        <ele>119.878</ele>
        <time>2016-03-24T09:58:09.074Z</time>
      </trkpt>
      <trkpt lat="48.59458" lon="1.95533">
        <ele>119.391</ele>
        <time>2016-03-24T09:58:34.737Z</time>
      </trkpt>
      <trkpt lat="48.59466" lon="1.9554">
        <ele>119.285</ele>
        <time>2016-03-24T09:58:59.563Z</time>
      </trkpt>
      <trkpt lat="48.59474" lon="1.95546">
        <ele>119.328</ele>
        <time>2016-03-24T09:59:25.221Z</time>
      </trkpt>
      <trkpt lat="48.59483" lon="1.95554">
        <ele>119.346</ele>
        <time>2016-03-24T09:59:46.297Z</time>
      </trkpt>
      <trkpt lat="48.5949" lon="1.95563">
        <ele>119.272</ele>
        <time>2016-03-24T10:00:02.866Z</time>
      </trkpt>
      <trkpt lat="48.59498" lon="1.9557">
        <ele>119.173</ele>
        <time>2016-03-24T10:00:19.625Z</time>
      </trkpt>
      <trkpt lat="48.59505" lon="1.95581">
        <ele>119.118</ele>
        <time>2016-03-24T10:00:36.523Z</time>
      </trkpt>
      <trkpt lat="48.59514" lon="1.95586">
        <ele>119.109</ele>
        <time>2016-03-24T10:00:53.000Z</time>
      </trkpt>
      <trkpt lat="48.59514" lon="1.95586">
        <ele>119.121</ele>
        <time>2016-03-24T10:01:02.000Z</time>
      </trkpt>
      <trkpt lat="48.59514" lon="1.95586">
        <ele>119.108</ele>
        <time>2016-03-24T10:01:35.808Z</time>
      </trkpt>
      <trkpt lat="48.59529" lon="1.95609">
        <ele>119.055</ele>
        <time>2016-03-24T10:02:04.600Z</time>
      </trkpt>
      <trkpt lat="48.59537" lon="1.95614">
        <ele>119.02</ele>
        <time>2016-03-24T10:02:13.608Z</time>
      </trkpt>
      <trkpt lat="48.59547" lon="1.9562">
        <ele>119.048</ele>
        <time>2016-03-24T10:02:22.400Z</time>
      </trkpt>
      <trkpt lat="48.59555" lon="1.95626">
        <ele>119.111</ele>
        <time>2016-03-24T10:02:29.750Z</time>
      </trkpt>
      <trkpt lat="48.59563" lon="1.95634">
        <ele>119.166</ele>
        <time>2016-03-24T10:02:37.812Z</time>
      </trkpt>
      <trkpt lat="48.59571" lon="1.95641">
        <ele>119.256</ele>
        <time>2016-03-24T10:02:46.002Z</time>
      </trkpt>
      <trkpt lat="48.59581" lon="1.95644">
        <ele>119.416</ele>
        <time>2016-03-24T10:02:55.540Z</time>
      </trkpt>
      <trkpt lat="48.59591" lon="1.95646">
        <ele>119.591</ele>
        <time>2016-03-24T10:03:04.751Z</time>
      </trkpt>
      <trkpt lat="48.596" lon="1.95647">
        <ele>119.73</ele>
        <time>2016-03-24T10:03:12.958Z</time>
      </trkpt>
      <trkpt lat="48.5961" lon="1.95646">
        <ele>119.844</ele>
        <time>2016-03-24T10:03:21.572Z</time>
      </trkpt>
      <trkpt lat="48.5962" lon="1.95641">
        <ele>119.977</ele>
        <time>2016-03-24T10:03:30.274Z</time>
      </trkpt>
      <trkpt lat="48.59629" lon="1.95642">
        <ele>120.155</ele>
        <time>2016-03-24T10:03:38.126Z</time>
      </trkpt>
      <trkpt lat="48.59639" lon="1.95641">
        <ele>120.357</ele>
        <time>2016-03-24T10:03:46.476Z</time>
      </trkpt>
      <trkpt lat="48.59649" lon="1.95643">
        <ele>120.565</ele>
        <time>2016-03-24T10:03:55.363Z</time>
      </trkpt>
      <trkpt lat="48.59658" lon="1.95645">
        <ele>120.758</ele>
        <time>2016-03-24T10:04:04.530Z</time>
      </trkpt>
      <trkpt lat="48.59667" lon="1.95645">
        <ele>120.905</ele>
        <time>2016-03-24T10:04:12.815Z</time>
      </trkpt>
      <trkpt lat="48.59677" lon="1.95648">
        <ele>120.995</ele>
        <time>2016-03-24T10:04:20.868Z</time>
      </trkpt>
      <trkpt lat="48.59686" lon="1.95651">
        <ele>121.078</ele>
        <time>2016-03-24T10:04:29.131Z</time>
      </trkpt>
      <trkpt lat="48.59695" lon="1.95654">
        <ele>121.183</ele>
        <time>2016-03-24T10:04:38.249Z</time>
      </trkpt>
      <trkpt lat="48.59706" lon="1.95654">
        <ele>121.302</ele>
        <time>2016-03-24T10:04:46.936Z</time>
      </trkpt>
      <trkpt lat="48.59715" lon="1.95655">
        <ele>121.411</ele>
        <time>2016-03-24T10:04:54.809Z</time>
      </trkpt>
      <trkpt lat="48.59724" lon="1.95661">
        <ele>121.481</ele>
        <time>2016-03-24T10:05:02.787Z</time>
      </trkpt>
      <trkpt lat="48.59734" lon="1.95665">
        <ele>121.489</ele>
        <time>2016-03-24T10:05:11.441Z</time>
      </trkpt>
      <trkpt lat="48.59743" lon="1.9567">
        <ele>121.426</ele>
        <time>2016-03-24T10:05:20.046Z</time>
      </trkpt>
      <trkpt lat="48.59752" lon="1.95674">
        <ele>121.293</ele>
        <time>2016-03-24T10:05:29.070Z</time>
      </trkpt>
      <trkpt lat="48.59761" lon="1.95675">
        <ele>121.151</ele>
        <time>2016-03-24T10:05:37.521Z</time>
      </trkpt>
      <trkpt lat="48.5977" lon="1.95681">
        <ele>121.09</ele>
        <time>2016-03-24T10:05:46.073Z</time>
      </trkpt>
      <trkpt lat="48.59779" lon="1.95685">
        <ele>121.155</ele>
        <time>2016-03-24T10:05:54.498Z</time>
      </trkpt>
      <trkpt lat="48.59788" lon="1.95687">
        <ele>121.335</ele>
        <time>2016-03-24T10:06:02.113Z</time>
      </trkpt>
      <trkpt lat="48.59798" lon="1.95692">
        <ele>121.643</ele>
        <time>2016-03-24T10:06:10.460Z</time>
      </trkpt>
      <trkpt lat="48.59807" lon="1.95695">
        <ele>122.035</ele>
        <time>2016-03-24T10:06:18.156Z</time>
      </trkpt>
      <trkpt lat="48.59816" lon="1.95693">
        <ele>122.463</ele>
        <time>2016-03-24T10:06:25.979Z</time>
      </trkpt>
      <trkpt lat="48.59825" lon="1.95689">
        <ele>122.953</ele>
        <time>2016-03-24T10:06:34.298Z</time>
      </trkpt>
      <trkpt lat="48.59834" lon="1.95686">
        <ele>123.481</ele>
        <time>2016-03-24T10:06:43.224Z</time>
      </trkpt>
      <trkpt lat="48.59843" lon="1.95684">
        <ele>123.918</ele>
        <time>2016-03-24T10:06:51.734Z</time>
      </trkpt>
      <trkpt lat="48.59853" lon="1.95681">
        <ele>124.198</ele>
        <time>2016-03-24T10:07:00.711Z</time>
      </trkpt>
      <trkpt lat="48.59863" lon="1.95683">
        <ele>124.372</ele>
        <time>2016-03-24T10:07:11.000Z</time>
      </trkpt>
      <trkpt lat="48.59863" lon="1.95683">
        <ele>124.522</ele>
        <time>2016-03-24T10:07:16.000Z</time>
      </trkpt>
      <trkpt lat="48.59863" lon="1.95683">
        <ele>124.592</ele>
        <time>2016-03-24T10:07:20.017Z</time>
      </trkpt>
      <trkpt lat="48.59886" lon="1.95687">
        <ele>124.534</ele>
        <time>2016-03-24T10:07:54.767Z</time>
      </trkpt>
      <trkpt lat="48.59895" lon="1.95683">
        <ele>124.567</ele>
        <time>2016-03-24T10:08:03.233Z</time>
      </trkpt>
      <trkpt lat="48.59904" lon="1.95683">
        <ele>124.925</ele>
        <time>2016-03-24T10:08:10.926Z</time>
      </trkpt>
      <trkpt lat="48.59914" lon="1.95683">
        <ele>125.506</ele>
        <time>2016-03-24T10:08:19.411Z</time>
      </trkpt>
      <trkpt lat="48.59924" lon="1.95682">
        <ele>126.052</ele>
        <time>2016-03-24T10:08:29.354Z</time>
      </trkpt>
      <trkpt lat="48.59934" lon="1.95681">
        <ele>126.524</ele>
        <time>2016-03-24T10:08:38.718Z</time>
      </trkpt>
      <trkpt lat="48.59943" lon="1.95677">
        <ele>126.984</ele>
        <time>2016-03-24T10:08:47.991Z</time>
      </trkpt>
      <trkpt lat="48.59952" lon="1.95676">
        <ele>127.439</ele>
        <time>2016-03-24T10:08:56.471Z</time>
      </trkpt>
      <trkpt lat="48.59961" lon="1.95679">
        <ele>127.825</ele>
        <time>2016-03-24T10:09:04.199Z</time>
      </trkpt>
      <trkpt lat="48.5997" lon="1.9568">
        <ele>128.016</ele>
        <time>2016-03-24T10:09:11.561Z</time>
      </trkpt>
      <trkpt lat="48.5998" lon="1.95681">
        <ele>127.861</ele>
        <time>2016-03-24T10:09:18.822Z</time>
      </trkpt>
      <trkpt lat="48.59989" lon="1.95686">
        <ele>127.37</ele>
        <time>2016-03-24T10:09:26.130Z</time>
      </trkpt>
      <trkpt lat="48.59997" lon="1.95692">
        <ele>126.701</ele>
        <time>2016-03-24T10:09:33.840Z</time>
      </trkpt>
      <trkpt lat="48.60004" lon="1.95701">
        <ele>125.974</ele>
        <time>2016-03-24T10:09:41.366Z</time>
      </trkpt>
      <trkpt lat="48.60011" lon="1.95712">
        <ele>125.305</ele>
        <time>2016-03-24T10:09:49.700Z</time>
      </trkpt>
      <trkpt lat="48.60017" lon="1.95722">
        <ele>124.765</ele>
        <time>2016-03-24T10:09:56.999Z</time>
      </trkpt>
      <trkpt lat="48.60022" lon="1.95735">
        <ele>124.23</ele>
        <time>2016-03-24T10:10:04.952Z</time>
      </trkpt>
      <trkpt lat="48.60027" lon="1.95747">
        <ele>123.641</ele>
        <time>2016-03-24T10:10:12.836Z</time>
      </trkpt>
      <trkpt lat="48.60031" lon="1.9576">
        <ele>123.129</ele>
        <time>2016-03-24T10:10:20.571Z</time>
      </trkpt>
      <trkpt lat="48.60035" lon="1.95772">
        <ele>122.785</ele>
        <time>2016-03-24T10:10:27.977Z</time>
      </trkpt>
      <trkpt lat="48.6004" lon="1.95784">
        <ele>122.569</ele>
        <time>2016-03-24T10:10:35.521Z</time>
      </trkpt>
      <trkpt lat="48.60046" lon="1.95797">
        <ele>122.378</ele>
        <time>2016-03-24T10:10:43.475Z</time>
      </trkpt>
      <trkpt lat="48.6005" lon="1.95809">
        <ele>122.109</ele>
        <time>2016-03-24T10:10:51.313Z</time>
      </trkpt>
      <trkpt lat="48.60055" lon="1.95821">
        <ele>121.754</ele>
        <time>2016-03-24T10:11:00.130Z</time>
      </trkpt>
      <trkpt lat="48.60061" lon="1.95833">
        <ele>121.415</ele>
        <time>2016-03-24T10:11:08.000Z</time>
      </trkpt>
      <trkpt lat="48.60061" lon="1.95833">
        <ele>121.204</ele>
        <time>2016-03-24T10:11:11.000Z</time>
      </trkpt>
      <trkpt lat="48.60061" lon="1.95833">
        <ele>121.112</ele>
        <time>2016-03-24T10:11:13.574Z</time>
      </trkpt>
      <trkpt lat="48.60065" lon="1.95848">
        <ele>121.059</ele>
        <time>2016-03-24T10:11:29.978Z</time>
      </trkpt>
      <trkpt lat="48.60073" lon="1.95856">
        <ele>120.972</ele>
        <time>2016-03-24T10:11:38.859Z</time>
      </trkpt>
      <trkpt lat="48.60082" lon="1.95862">
        <ele>120.723</ele>
        <time>2016-03-24T10:11:46.657Z</time>
      </trkpt>
      <trkpt lat="48.6009" lon="1.95867">
        <ele>120.381</ele>
        <time>2016-03-24T10:11:53.807Z</time>
      </trkpt>
      <trkpt lat="48.60098" lon="1.95875">
        <ele>120.072</ele>
        <time>2016-03-24T10:12:01.805Z</time>
      </trkpt>
      <trkpt lat="48.60105" lon="1.95886">
        <ele>119.857</ele>
        <time>2016-03-24T10:12:10.479Z</time>
      </trkpt>
      <trkpt lat="48.60111" lon="1.95896">
        <ele>119.769</ele>
        <time>2016-03-24T10:12:19.418Z</time>
      </trkpt>
      <trkpt lat="48.60116" lon="1.95908">
        <ele>119.849</ele>
        <time>2016-03-24T10:12:28.894Z</time>
      </trkpt>
      <trkpt lat="48.60119" lon="1.95922">
        <ele>120.105</ele>
        <time>2016-03-24T10:12:37.632Z</time>
      </trkpt>
      <trkpt lat="48.60122" lon="1.95936">
        <ele>120.43</ele>
        <time>2016-03-24T10:12:45.954Z</time>
      </trkpt>
      <trkpt lat="48.60125" lon="1.9595">
        <ele>120.772</ele>
        <time>2016-03-24T10:12:54.679Z</time>
      </trkpt>
      <trkpt lat="48.60128" lon="1.95965">
        <ele>121.168</ele>
        <time>2016-03-24T10:13:03.616Z</time>
      </trkpt>
      <trkpt lat="48.60132" lon="1.95977">
        <ele>121.543</ele>
        <time>2016-03-24T10:13:11.564Z</time>
      </trkpt>
      <trkpt lat="48.60134" lon="1.9599">
        <ele>121.818</ele>
        <time>2016-03-24T10:13:19.647Z</time>
      </trkpt>
      <trkpt lat="48.60137" lon="1.96005">
        <ele>122.088</ele>
        <time>2016-03-24T10:13:28.322Z</time>
      </trkpt>
      <trkpt lat="48.60138" lon="1.96018">
        <ele>122.403</ele>
        <time>2016-03-24T10:13:36.485Z</time>
      </trkpt>
      <trkpt lat="48.6014" lon="1.96033">
        <ele>122.749</ele>
        <time>2016-03-24T10:13:44.887Z</time>
      </trkpt>
      <trkpt lat="48.60146" lon="1.96044">
        <ele>123.166</ele>
        <time>2016-03-24T10:13:52.774Z</time>
      </trkpt>
      <trkpt lat="48.60144" lon="1.96058">
        <ele>123.626</ele>
        <time>2016-03-24T10:14:02.044Z</time>
      </trkpt>
      <trkpt lat="48.60147" lon="1.9607">
        <ele>124.057</ele>
        <time>2016-03-24T10:14:14.000Z</time>
      </trkpt>
      <trkpt lat="48.60147" lon="1.9607">
        <ele>124.416</ele>
        <time>2016-03-24T10:14:24.000Z</time>
      </trkpt>
      <trkpt lat="48.60147" lon="1.9607">
        <ele>124.579</ele>
        <time>2016-03-24T10:14:59.000Z</time>
      </trkpt>
      <trkpt lat="48.60147" lon="1.9607">
        <ele>124.51</ele>
        <time>2016-03-24T10:15:16.344Z</time>
      </trkpt>
      <trkpt lat="48.60145" lon="1.96085">
        <ele>124.355</ele>
        <time>2016-03-24T10:15:26.000Z</time>
      </trkpt>
      <trkpt lat="48.60145" lon="1.96085">
        <ele>124.389</ele>
        <time>2016-03-24T10:15:36.000Z</time>
      </trkpt>
      <trkpt lat="48.60145" lon="1.96085">
        <ele>124.397</ele>
        <time>2016-03-24T10:15:36.100Z</time>
      </trkpt>
      <trkpt lat="48.6015" lon="1.96105">
        <ele>124.345</ele>
        <time>2016-03-24T10:15:56.633Z</time>
      </trkpt>
      <trkpt lat="48.60155" lon="1.96117">
        <ele>124.505</ele>
        <time>2016-03-24T10:16:06.253Z</time>
      </trkpt>
      <trkpt lat="48.60154" lon="1.96131">
        <ele>125.097</ele>
        <time>2016-03-24T10:16:17.211Z</time>
      </trkpt>
      <trkpt lat="48.60156" lon="1.96145">
        <ele>125.895</ele>
        <time>2016-03-24T10:16:27.321Z</time>
      </trkpt>
      <trkpt lat="48.60156" lon="1.9616">
        <ele>126.681</ele>
        <time>2016-03-24T10:16:37.110Z</time>
      </trkpt>
      <trkpt lat="48.60154" lon="1.96173">
        <ele>127.387</ele>
        <time>2016-03-24T10:16:46.479Z</time>
      </trkpt>
      <trkpt lat="48.60151" lon="1.96187">
        <ele>127.894</ele>
        <time>2016-03-24T10:16:56.688Z</time>
      </trkpt>
      <trkpt lat="48.60152" lon="1.96202">
        <ele>128.357</ele>
        <time>2016-03-24T10:17:06.662Z</time>
      </trkpt>
      <trkpt lat="48.60151" lon="1.96215">
        <ele>129.033</ele>
        <time>2016-03-24T10:17:15.775Z</time>
      </trkpt>
      <trkpt lat="48.60151" lon="1.96229">
        <ele>129.882</ele>
        <time>2016-03-24T10:17:25.861Z</time>
      </trkpt>
      <trkpt lat="48.60153" lon="1.96244">
        <ele>130.775</ele>
        <time>2016-03-24T10:17:36.882Z</time>
      </trkpt>
      <trkpt lat="48.60157" lon="1.96256">
        <ele>131.715</ele>
        <time>2016-03-24T10:17:46.759Z</time>
      </trkpt>
      <trkpt lat="48.60163" lon="1.96266">
        <ele>132.62</ele>
        <time>2016-03-24T10:17:56.521Z</time>
      </trkpt>
      <trkpt lat="48.60169" lon="1.96278">
        <ele>133.356</ele>
        <time>2016-03-24T10:18:06.945Z</time>
      </trkpt>
      <trkpt lat="48.60174" lon="1.9629">
        <ele>133.982</ele>
        <time>2016-03-24T10:18:16.466Z</time>
      </trkpt>
      <trkpt lat="48.6018" lon="1.96301">
        <ele>134.651</ele>
        <time>2016-03-24T10:18:25.727Z</time>
      </trkpt>
      <trkpt lat="48.60185" lon="1.96313">
        <ele>135.445</ele>
        <time>2016-03-24T10:18:34.940Z</time>
      </trkpt>
      <trkpt lat="48.60186" lon="1.96327">
        <ele>136.418</ele>
        <time>2016-03-24T10:18:43.482Z</time>
      </trkpt>
      <trkpt lat="48.60187" lon="1.9634">
        <ele>137.407</ele>
        <time>2016-03-24T10:18:52.192Z</time>
      </trkpt>
      <trkpt lat="48.6019" lon="1.96354">
        <ele>138.159</ele>
        <time>2016-03-24T10:19:01.605Z</time>
      </trkpt>
      <trkpt lat="48.60194" lon="1.96367">
        <ele>138.74</ele>
        <time>2016-03-24T10:19:10.483Z</time>
      </trkpt>
      <trkpt lat="48.60198" lon="1.9638">
        <ele>139.375</ele>
        <time>2016-03-24T10:19:19.075Z</time>
      </trkpt>
      <trkpt lat="48.602" lon="1.96393">
        <ele>140.028</ele>
        <time>2016-03-24T10:19:27.318Z</time>
      </trkpt>
      <trkpt lat="48.602" lon="1.96408">
        <ele>140.516</ele>
        <time>2016-03-24T10:19:36.039Z</time>
      </trkpt>
      <trkpt lat="48.60202" lon="1.96423">
        <ele>140.833</ele>
        <time>2016-03-24T10:19:44.940Z</time>
      </trkpt>
      <trkpt lat="48.60204" lon="1.96437">
        <ele>141.139</ele>
        <time>2016-03-24T10:19:53.623Z</time>
      </trkpt>
      <trkpt lat="48.60207" lon="1.96451">
        <ele>141.448</ele>
        <time>2016-03-24T10:20:02.791Z</time>
      </trkpt>
      <trkpt lat="48.60208" lon="1.96465">
        <ele>141.641</ele>
        <time>2016-03-24T10:20:11.637Z</time>
      </trkpt>
      <trkpt lat="48.60211" lon="1.96478">
        <ele>141.671</ele>
        <time>2016-03-24T10:20:20.230Z</time>
      </trkpt>
      <trkpt lat="48.60211" lon="1.96491">
        <ele>141.506</ele>
        <time>2016-03-24T10:20:27.802Z</time>
      </trkpt>
      <trkpt lat="48.60212" lon="1.96506">
        <ele>141.14</ele>
        <time>2016-03-24T10:20:35.906Z</time>
      </trkpt>
      <trkpt lat="48.6021" lon="1.9652">
        <ele>140.677</ele>
        <time>2016-03-24T10:20:43.974Z</time>
      </trkpt>
      <trkpt lat="48.60209" lon="1.96535">
        <ele>140.265</ele>
        <time>2016-03-24T10:20:52.942Z</time>
      </trkpt>
      <trkpt lat="48.60209" lon="1.96549">
        <ele>139.971</ele>
        <time>2016-03-24T10:21:01.820Z</time>
      </trkpt>
      <trkpt lat="48.60208" lon="1.96563">
        <ele>139.722</ele>
        <time>2016-03-24T10:21:10.702Z</time>
      </trkpt>
      <trkpt lat="48.6021" lon="1.96578">
        <ele>139.319</ele>
        <time>2016-03-24T10:21:18.746Z</time>
      </trkpt>
      <trkpt lat="48.60213" lon="1.96593">
        <ele>138.734</ele>
        <time>2016-03-24T10:21:26.529Z</time>
      </trkpt>
      <trkpt lat="48.60212" lon="1.96608">
        <ele>138.168</ele>
        <time>2016-03-24T10:21:34.296Z</time>
      </trkpt>
      <trkpt lat="48.60211" lon="1.96622">
        <ele>137.781</ele>
        <time>2016-03-24T10:21:42.117Z</time>
      </trkpt>
      <trkpt lat="48.60208" lon="1.96636">
        <ele>137.615</ele>
        <time>2016-03-24T10:21:50.396Z</time>
      </trkpt>
      <trkpt lat="48.60206" lon="1.9665">
        <ele>137.66</ele>
        <time>2016-03-24T10:21:57.772Z</time>
      </trkpt>
      <trkpt lat="48.60204" lon="1.96664">
        <ele>137.798</ele>
        <time>2016-03-24T10:22:05.435Z</time>
      </trkpt>
      <trkpt lat="48.60202" lon="1.96679">
        <ele>137.861</ele>
        <time>2016-03-24T10:22:13.680Z</time>
      </trkpt>
      <trkpt lat="48.60203" lon="1.96693">
        <ele>137.773</ele>
        <time>2016-03-24T10:22:21.822Z</time>
      </trkpt>
      <trkpt lat="48.60206" lon="1.96709">
        <ele>137.561</ele>
        <time>2016-03-24T10:22:31.120Z</time>
      </trkpt>
      <trkpt lat="48.60209" lon="1.96722">
        <ele>137.271</ele>
        <time>2016-03-24T10:22:39.864Z</time>
      </trkpt>
      <trkpt lat="48.60211" lon="1.96737">
        <ele>136.976</ele>
        <time>2016-03-24T10:22:48.873Z</time>
      </trkpt>
      <trkpt lat="48.60216" lon="1.9675">
        <ele>136.757</ele>
        <time>2016-03-24T10:22:57.167Z</time>
      </trkpt>
      <trkpt lat="48.60217" lon="1.96764">
        <ele>136.602</ele>
        <time>2016-03-24T10:23:04.684Z</time>
      </trkpt>
      <trkpt lat="48.60219" lon="1.96778">
        <ele>136.471</ele>
        <time>2016-03-24T10:23:12.824Z</time>
      </trkpt>
      <trkpt lat="48.60222" lon="1.96793">
        <ele>136.359</ele>
        <time>2016-03-24T10:23:20.997Z</time>
      </trkpt>
      <trkpt lat="48.60222" lon="1.96793">
        <ele>136.272</ele>
        <time>2016-03-24T10:23:27.997Z</time>
      </trkpt>
      <trkpt lat="48.60222" lon="1.96793">
        <ele>136.215</ele>
        <time>2016-03-24T10:23:28.097Z</time>
      </trkpt>
      <trkpt lat="48.60227" lon="1.96815">
        <ele>136.18</ele>
        <time>2016-03-24T10:23:38.997Z</time>
      </trkpt>
      <trkpt lat="48.60227" lon="1.96815">
        <ele>136.135</ele>
        <time>2016-03-24T10:23:44.997Z</time>
      </trkpt>
      <trkpt lat="48.60227" lon="1.96815">
        <ele>136.069</ele>
        <time>2016-03-24T10:23:46.738Z</time>
      </trkpt>
      <trkpt lat="48.60232" lon="1.9683">
        <ele>135.975</ele>
        <time>2016-03-24T10:24:06.314Z</time>
      </trkpt>
      <trkpt lat="48.60236" lon="1.96843">
        <ele>135.77</ele>
        <time>2016-03-24T10:24:14.891Z</time>
      </trkpt>
      <trkpt lat="48.60241" lon="1.96855">
        <ele>135.189</ele>
        <time>2016-03-24T10:24:22.469Z</time>
      </trkpt>
      <trkpt lat="48.60245" lon="1.96867">
        <ele>134.407</ele>
        <time>2016-03-24T10:24:29.583Z</time>
      </trkpt>
      <trkpt lat="48.6025" lon="1.9688">
        <ele>133.766</ele>
        <time>2016-03-24T10:24:37.003Z</time>
      </trkpt>
      <trkpt lat="48.60255" lon="1.96892">
        <ele>133.376</ele>
        <time>2016-03-24T10:24:44.404Z</time>
      </trkpt>
      <trkpt lat="48.60259" lon="1.96906">
        <ele>133.107</ele>
        <time>2016-03-24T10:24:53.082Z</time>
      </trkpt>
      <trkpt lat="48.60264" lon="1.96919">
        <ele>132.747</ele>
        <time>2016-03-24T10:25:01.851Z</time>
      </trkpt>
      <trkpt lat="48.6027" lon="1.9693">
        <ele>132.275</ele>
        <time>2016-03-24T10:25:08.663Z</time>
      </trkpt>
      <trkpt lat="48.60276" lon="1.96942">
        <ele>131.843</ele>
        <time>2016-03-24T10:25:15.693Z</time>
      </trkpt>
      <trkpt lat="48.60281" lon="1.96954">
        <ele>131.525</ele>
        <time>2016-03-24T10:25:23.181Z</time>
      </trkpt>
      <trkpt lat="48.60284" lon="1.96968">
        <ele>131.265</ele>
        <time>2016-03-24T10:25:31.319Z</time>
      </trkpt>
      <trkpt lat="48.60287" lon="1.96981">
        <ele>130.974</ele>
        <time>2016-03-24T10:25:39.467Z</time>
      </trkpt>
      <trkpt lat="48.60291" lon="1.96993">
        <ele>130.57</ele>
        <time>2016-03-24T10:25:46.535Z</time>
      </trkpt>
      <trkpt lat="48.60296" lon="1.97006">
        <ele>130.078</ele>
        <time>2016-03-24T10:25:53.997Z</time>
      </trkpt>
      <trkpt lat="48.60296" lon="1.97006">
        <ele>129.669</ele>
        <time>2016-03-24T10:26:03.000Z</time>
      </trkpt>
      <trkpt lat="48.60296" lon="1.97006">
        <ele>129.465</ele>
        <time>2016-03-24T10:26:48.241Z</time>
      </trkpt>
      <trkpt lat="48.60295" lon="1.9702">
        <ele>129.434</ele>
        <time>2016-03-24T10:27:02.756Z</time>
      </trkpt>
      <trkpt lat="48.60292" lon="1.97034">
        <ele>129.408</ele>
        <time>2016-03-24T10:27:12.246Z</time>
      </trkpt>
      <trkpt lat="48.60287" lon="1.97045">
        <ele>129.281</ele>
        <time>2016-03-24T10:27:21.986Z</time>
      </trkpt>
      <trkpt lat="48.60282" lon="1.97058">
        <ele>129.227</ele>
        <time>2016-03-24T10:27:31.904Z</time>
      </trkpt>
      <trkpt lat="48.60276" lon="1.97069">
        <ele>129.469</ele>
        <time>2016-03-24T10:27:39.939Z</time>
      </trkpt>
      <trkpt lat="48.60271" lon="1.9708">
        <ele>129.961</ele>
        <time>2016-03-24T10:27:47.673Z</time>
      </trkpt>
      <trkpt lat="48.60265" lon="1.97091">
        <ele>130.547</ele>
        <time>2016-03-24T10:27:55.381Z</time>
      </trkpt>
      <trkpt lat="48.60259" lon="1.97102">
        <ele>131.073</ele>
        <time>2016-03-24T10:28:03.305Z</time>
      </trkpt>
      <trkpt lat="48.60251" lon="1.97108">
        <ele>131.246</ele>
        <time>2016-03-24T10:28:11.458Z</time>
      </trkpt>
      <trkpt lat="48.60242" lon="1.97105">
        <ele>130.941</ele>
        <time>2016-03-24T10:28:19.999Z</time>
      </trkpt>
      <trkpt lat="48.60234" lon="1.97102">
        <ele>130.472</ele>
        <time>2016-03-24T10:28:28.925Z</time>
      </trkpt>
      <trkpt lat="48.60225" lon="1.97096">
        <ele>130.263</ele>
        <time>2016-03-24T10:28:38.602Z</time>
      </trkpt>
      <trkpt lat="48.60216" lon="1.9709">
        <ele>130.421</ele>
        <time>2016-03-24T10:28:47.381Z</time>
      </trkpt>
      <trkpt lat="48.60207" lon="1.97087">
        <ele>130.804</ele>
        <time>2016-03-24T10:28:57.123Z</time>
      </trkpt>
      <trkpt lat="48.60198" lon="1.97085">
        <ele>131.285</ele>
        <time>2016-03-24T10:29:06.455Z</time>
      </trkpt>
      <trkpt lat="48.60188" lon="1.97082">
        <ele>131.867</ele>
        <time>2016-03-24T10:29:16.638Z</time>
      </trkpt>
      <trkpt lat="48.60178" lon="1.97082">
        <ele>132.48</ele>
        <time>2016-03-24T10:29:26.120Z</time>
      </trkpt>
      <trkpt lat="48.60169" lon="1.97082">
        <ele>132.963</ele>
        <time>2016-03-24T10:29:35.188Z</time>
      </trkpt>
      <trkpt lat="48.60159" lon="1.97083">
        <ele>133.201</ele>
        <time>2016-03-24T10:29:44.996Z</time>
      </trkpt>
      <trkpt lat="48.6015" lon="1.97082">
        <ele>133.243</ele>
        <time>2016-03-24T10:29:55.373Z</time>
      </trkpt>
      <trkpt lat="48.6014" lon="1.97083">
        <ele>133.219</ele>
        <time>2016-03-24T10:30:04.922Z</time>
      </trkpt>
      <trkpt lat="48.60131" lon="1.9708">
        <ele>133.324</ele>
        <time>2016-03-24T10:30:14.377Z</time>
      </trkpt>
      <trkpt lat="48.60122" lon="1.97078">
        <ele>133.771</ele>
        <time>2016-03-24T10:30:23.565Z</time>
      </trkpt>
      <trkpt lat="48.60112" lon="1.97079">
        <ele>134.568</ele>
        <time>2016-03-24T10:30:33.318Z</time>
      </trkpt>
      <trkpt lat="48.60103" lon="1.9708">
        <ele>135.565</ele>
        <time>2016-03-24T10:30:43.390Z</time>
      </trkpt>
      <trkpt lat="48.60094" lon="1.97083">
        <ele>136.669</ele>
        <time>2016-03-24T10:30:54.405Z</time>
      </trkpt>
      <trkpt lat="48.60084" lon="1.97088">
        <ele>137.719</ele>
        <time>2016-03-24T10:31:04.808Z</time>
      </trkpt>
      <trkpt lat="48.60076" lon="1.97094">
        <ele>138.479</ele>
        <time>2016-03-24T10:31:13.607Z</time>
      </trkpt>
      <trkpt lat="48.60066" lon="1.97097">
        <ele>138.915</ele>
        <time>2016-03-24T10:31:21.810Z</time>
      </trkpt>
      <trkpt lat="48.60058" lon="1.97105">
        <ele>139.155</ele>
        <time>2016-03-24T10:31:30.027Z</time>
      </trkpt>
      <trkpt lat="48.6005" lon="1.97113">
        <ele>139.26</ele>
        <time>2016-03-24T10:31:37.560Z</time>
      </trkpt>
      <trkpt lat="48.60043" lon="1.97121">
        <ele>139.252</ele>
        <time>2016-03-24T10:31:45.532Z</time>
      </trkpt>
      <trkpt lat="48.60034" lon="1.97128">
        <ele>139.17</ele>
        <time>2016-03-24T10:31:53.668Z</time>
      </trkpt>
      <trkpt lat="48.60026" lon="1.97135">
        <ele>139.05</ele>
        <time>2016-03-24T10:32:02.047Z</time>
      </trkpt>
      <trkpt lat="48.60016" lon="1.97137">
        <ele>138.986</ele>
        <time>2016-03-24T10:32:10.991Z</time>
      </trkpt>
      <trkpt lat="48.60007" lon="1.97138">
        <ele>139.067</ele>
        <time>2016-03-24T10:32:19.798Z</time>
      </trkpt>
      <trkpt lat="48.59997" lon="1.97139">
        <ele>139.253</ele>
        <time>2016-03-24T10:32:28.208Z</time>
      </trkpt>
      <trkpt lat="48.59988" lon="1.97139">
        <ele>139.43</ele>
        <time>2016-03-24T10:32:36.601Z</time>
      </trkpt>
      <trkpt lat="48.59978" lon="1.97141">
        <ele>139.535</ele>
        <time>2016-03-24T10:32:44.783Z</time>
      </trkpt>
      <trkpt lat="48.59969" lon="1.97144">
        <ele>139.544</ele>
        <time>2016-03-24T10:32:52.996Z</time>
      </trkpt>
      <trkpt lat="48.5996" lon="1.9715">
        <ele>139.426</ele>
        <time>2016-03-24T10:33:02.128Z</time>
      </trkpt>
      <trkpt lat="48.59951" lon="1.97153">
        <ele>139.226</ele>
        <time>2016-03-24T10:33:11.377Z</time>
      </trkpt>
      <trkpt lat="48.59942" lon="1.97156">
        <ele>139.028</ele>
        <time>2016-03-24T10:33:20.035Z</time>
      </trkpt>
      <trkpt lat="48.59932" lon="1.9716">
        <ele>138.833</ele>
        <time>2016-03-24T10:33:28.403Z</time>
      </trkpt>
      <trkpt lat="48.59924" lon="1.97163">
        <ele>138.598</ele>
        <time>2016-03-24T10:33:35.679Z</time>
      </trkpt>
      <trkpt lat="48.59915" lon="1.97167">
        <ele>138.295</ele>
        <time>2016-03-24T10:33:43.238Z</time>
      </trkpt>
      <trkpt lat="48.59906" lon="1.9717">
        <ele>137.918</ele>
        <time>2016-03-24T10:33:51.931Z</time>
      </trkpt>
      <trkpt lat="48.59897" lon="1.97173">
        <ele>137.515</ele>
        <time>2016-03-24T10:34:00.735Z</time>
      </trkpt>
      <trkpt lat="48.59887" lon="1.97178">
        <ele>137.166</ele>
        <time>2016-03-24T10:34:10.520Z</time>
      </trkpt>
      <trkpt lat="48.59879" lon="1.97183">
        <ele>136.931</ele>
        <time>2016-03-24T10:34:18.963Z</time>
      </trkpt>
      <trkpt lat="48.59869" lon="1.97187">
        <ele>136.832</ele>
        <time>2016-03-24T10:34:27.188Z</time>
      </trkpt>
      <trkpt lat="48.59859" lon="1.9719">
        <ele>136.83</ele>
        <time>2016-03-24T10:34:35.508Z</time>
      </trkpt>
      <trkpt lat="48.5985" lon="1.97194">
        <ele>136.869</ele>
        <time>2016-03-24T10:34:43.457Z</time>
      </trkpt>
      <trkpt lat="48.59842" lon="1.97199">
        <ele>136.91</ele>
        <time>2016-03-24T10:34:51.607Z</time>
      </trkpt>
      <trkpt lat="48.59832" lon="1.97202">
        <ele>136.922</ele>
        <time>2016-03-24T10:35:00.446Z</time>
      </trkpt>
      <trkpt lat="48.59823" lon="1.97206">
        <ele>136.862</ele>
        <time>2016-03-24T10:35:09.093Z</time>
      </trkpt>
      <trkpt lat="48.59815" lon="1.97212">
        <ele>136.732</ele>
        <time>2016-03-24T10:35:17.233Z</time>
      </trkpt>
      <trkpt lat="48.59806" lon="1.97216">
        <ele>136.633</ele>
        <time>2016-03-24T10:35:25.269Z</time>
      </trkpt>
      <trkpt lat="48.59797" lon="1.9722">
        <ele>136.634</ele>
        <time>2016-03-24T10:35:34.650Z</time>
      </trkpt>
      <trkpt lat="48.59787" lon="1.97222">
        <ele>136.685</ele>
        <time>2016-03-24T10:35:45.186Z</time>
      </trkpt>
      <trkpt lat="48.59778" lon="1.97225">
        <ele>136.805</ele>
        <time>2016-03-24T10:35:54.860Z</time>
      </trkpt>
      <trkpt lat="48.59769" lon="1.97229">
        <ele>137.028</ele>
        <time>2016-03-24T10:36:02.942Z</time>
      </trkpt>
      <trkpt lat="48.59761" lon="1.97234">
        <ele>137.164</ele>
        <time>2016-03-24T10:36:10.235Z</time>
      </trkpt>
      <trkpt lat="48.59751" lon="1.97239">
        <ele>137.053</ele>
        <time>2016-03-24T10:36:18.514Z</time>
      </trkpt>
      <trkpt lat="48.59743" lon="1.97244">
        <ele>136.781</ele>
        <time>2016-03-24T10:36:26.373Z</time>
      </trkpt>
      <trkpt lat="48.59734" lon="1.97247">
        <ele>136.435</ele>
        <time>2016-03-24T10:36:34.585Z</time>
      </trkpt>
      <trkpt lat="48.59724" lon="1.97251">
        <ele>136.038</ele>
        <time>2016-03-24T10:36:43.654Z</time>
      </trkpt>
      <trkpt lat="48.59716" lon="1.97256">
        <ele>135.644</ele>
        <time>2016-03-24T10:36:52.071Z</time>
      </trkpt>
      <trkpt lat="48.59707" lon="1.97262">
        <ele>135.222</ele>
        <time>2016-03-24T10:37:00.793Z</time>
      </trkpt>
      <trkpt lat="48.59698" lon="1.97267">
        <ele>134.667</ele>
        <time>2016-03-24T10:37:09.099Z</time>
      </trkpt>
      <trkpt lat="48.59689" lon="1.97274">
        <ele>134.063</ele>
        <time>2016-03-24T10:37:18.123Z</time>
      </trkpt>
      <trkpt lat="48.5968" lon="1.97279">
        <ele>133.661</ele>
        <time>2016-03-24T10:37:27.395Z</time>
      </trkpt>
      <trkpt lat="48.59672" lon="1.97285">
        <ele>133.55</ele>
        <time>2016-03-24T10:37:35.593Z</time>
      </trkpt>
      <trkpt lat="48.5966" lon="1.97292">
        <ele>133.647</ele>
        <time>2016-03-24T10:37:47.803Z</time>
      </trkpt>
      <trkpt lat="48.59651" lon="1.97296">
        <ele>133.863</ele>
        <time>2016-03-24T10:37:57.101Z</time>
      </trkpt>
      <trkpt lat="48.59642" lon="1.97301">
        <ele>134.196</ele>
        <time>2016-03-24T10:38:05.951Z</time>
      </trkpt>
      <trkpt lat="48.59633" lon="1.97307">
        <ele>134.664</ele>
        <time>2016-03-24T10:38:15.081Z</time>
      </trkpt>
      <trkpt lat="48.59624" lon="1.97312">
        <ele>135.254</ele>
        <time>2016-03-24T10:38:25.023Z</time>
      </trkpt>
      <trkpt lat="48.59615" lon="1.97317">
        <ele>135.986</ele>
        <time>2016-03-24T10:38:33.569Z</time>
      </trkpt>
      <trkpt lat="48.59605" lon="1.97322">
        <ele>136.738</ele>
        <time>2016-03-24T10:38:42.623Z</time>
      </trkpt>
      <trkpt lat="48.59596" lon="1.97324">
        <ele>137.113</ele>
        <time>2016-03-24T10:38:51.663Z</time>
      </trkpt>
      <trkpt lat="48.59587" lon="1.97328">
        <ele>136.85</ele>
        <time>2016-03-24T10:39:01.993Z</time>
      </trkpt>
      <trkpt lat="48.59578" lon="1.97333">
        <ele>136.218</ele>
        <time>2016-03-24T10:39:10.821Z</time>
      </trkpt>
      <trkpt lat="48.59569" lon="1.97337">
        <ele>135.678</ele>
        <time>2016-03-24T10:39:19.069Z</time>
      </trkpt>
      <trkpt lat="48.5956" lon="1.97341">
        <ele>135.406</ele>
        <time>2016-03-24T10:39:27.594Z</time>
      </trkpt>
      <trkpt lat="48.59552" lon="1.97346">
        <ele>135.262</ele>
        <time>2016-03-24T10:39:36.800Z</time>
      </trkpt>
      <trkpt lat="48.59543" lon="1.97351">
        <ele>135.104</ele>
        <time>2016-03-24T10:39:45.157Z</time>
      </trkpt>
      <trkpt lat="48.59534" lon="1.97359">
        <ele>135.049</ele>
        <time>2016-03-24T10:39:53.912Z</time>
      </trkpt>
      <trkpt lat="48.59526" lon="1.97366">
        <ele>135.226</ele>
        <time>2016-03-24T10:40:01.930Z</time>
      </trkpt>
      <trkpt lat="48.59519" lon="1.97375">
        <ele>135.521</ele>
        <time>2016-03-24T10:40:10.685Z</time>
      </trkpt>
      <trkpt lat="48.59511" lon="1.97384">
        <ele>135.892</ele>
        <time>2016-03-24T10:40:20.742Z</time>
      </trkpt>
      <trkpt lat="48.59503" lon="1.97391">
        <ele>136.429</ele>
        <time>2016-03-24T10:40:29.685Z</time>
      </trkpt>
      <trkpt lat="48.59495" lon="1.97399">
        <ele>137.004</ele>
        <time>2016-03-24T10:40:37.772Z</time>
      </trkpt>
      <trkpt lat="48.59489" lon="1.97409">
        <ele>137.351</ele>
        <time>2016-03-24T10:40:45.542Z</time>
      </trkpt>
      <trkpt lat="48.59483" lon="1.97421">
        <ele>137.384</ele>
        <time>2016-03-24T10:40:54.000Z</time>
      </trkpt>
      <trkpt lat="48.59483" lon="1.97421">
        <ele>137.24</ele>
        <time>2016-03-24T10:41:07.000Z</time>
      </trkpt>
      <trkpt lat="48.59483" lon="1.97421">
        <ele>137.1</ele>
        <time>2016-03-24T10:43:59.938Z</time>
      </trkpt>
      <trkpt lat="48.59475" lon="1.97445">
        <ele>137.046</ele>
        <time>2016-03-24T10:45:05.000Z</time>
      </trkpt>
      <trkpt lat="48.59475" lon="1.97445">
        <ele>137.042</ele>
        <time>2016-03-24T10:45:08.000Z</time>
      </trkpt>
      <trkpt lat="48.59475" lon="1.97445">
        <ele>137.021</ele>
        <time>2016-03-24T10:45:22.068Z</time>
      </trkpt>
      <trkpt lat="48.59475" lon="1.97445">
        <ele>136.905</ele>
        <time>2016-03-24T10:45:42.000Z</time>
      </trkpt>
      <trkpt lat="48.59475" lon="1.97445">
        <ele>136.866</ele>
        <time>2016-03-24T10:48:57.847Z</time>
      </trkpt>
      <trkpt lat="48.59477" lon="1.97459">
        <ele>136.78</ele>
        <time>2016-03-24T10:49:13.713Z</time>
      </trkpt>
      <trkpt lat="48.59477" lon="1.97472">
        <ele>136.75</ele>
        <time>2016-03-24T10:49:24.735Z</time>
      </trkpt>
      <trkpt lat="48.59474" lon="1.97486">
        <ele>136.875</ele>
        <time>2016-03-24T10:49:36.433Z</time>
      </trkpt>
      <trkpt lat="48.59477" lon="1.97499">
        <ele>137.325</ele>
        <time>2016-03-24T10:49:46.429Z</time>
      </trkpt>
      <trkpt lat="48.59477" lon="1.97514">
        <ele>138.08</ele>
        <time>2016-03-24T10:49:54.998Z</time>
      </trkpt>
      <trkpt lat="48.59473" lon="1.97527">
        <ele>138.948</ele>
        <time>2016-03-24T10:50:03.347Z</time>
      </trkpt>
      <trkpt lat="48.59468" lon="1.9754">
        <ele>139.74</ele>
        <time>2016-03-24T10:50:11.157Z</time>
      </trkpt>
      <trkpt lat="48.5946" lon="1.97549">
        <ele>140.404</ele>
        <time>2016-03-24T10:50:19.046Z</time>
      </trkpt>
      <trkpt lat="48.59454" lon="1.97559">
        <ele>140.998</ele>
        <time>2016-03-24T10:50:26.726Z</time>
      </trkpt>
      <trkpt lat="48.59448" lon="1.9757">
        <ele>141.558</ele>
        <time>2016-03-24T10:50:34.570Z</time>
      </trkpt>
      <trkpt lat="48.59442" lon="1.97581">
        <ele>142.161</ele>
        <time>2016-03-24T10:50:43.253Z</time>
      </trkpt>
      <trkpt lat="48.59439" lon="1.97595">
        <ele>142.918</ele>
        <time>2016-03-24T10:50:52.507Z</time>
      </trkpt>
      <trkpt lat="48.59434" lon="1.97607">
        <ele>143.739</ele>
        <time>2016-03-24T10:51:00.918Z</time>
      </trkpt>
      <trkpt lat="48.59433" lon="1.97622">
        <ele>144.431</ele>
        <time>2016-03-24T10:51:09.468Z</time>
      </trkpt>
      <trkpt lat="48.59432" lon="1.97636">
        <ele>145.066</ele>
        <time>2016-03-24T10:51:17.948Z</time>
      </trkpt>
      <trkpt lat="48.59431" lon="1.97651">
        <ele>145.918</ele>
        <time>2016-03-24T10:51:26.947Z</time>
      </trkpt>
      <trkpt lat="48.59432" lon="1.97665">
        <ele>147.019</ele>
        <time>2016-03-24T10:51:35.442Z</time>
      </trkpt>
      <trkpt lat="48.59431" lon="1.97679">
        <ele>148.147</ele>
        <time>2016-03-24T10:51:44.033Z</time>
      </trkpt>
      <trkpt lat="48.59431" lon="1.97693">
        <ele>149.26</ele>
        <time>2016-03-24T10:51:53.092Z</time>
      </trkpt>
      <trkpt lat="48.59434" lon="1.97707">
        <ele>150.425</ele>
        <time>2016-03-24T10:52:03.033Z</time>
      </trkpt>
      <trkpt lat="48.59437" lon="1.97721">
        <ele>151.533</ele>
        <time>2016-03-24T10:52:12.291Z</time>
      </trkpt>
      <trkpt lat="48.5944" lon="1.97734">
        <ele>152.513</ele>
        <time>2016-03-24T10:52:21.000Z</time>
      </trkpt>
      <trkpt lat="48.5944" lon="1.97734">
        <ele>153.302</ele>
        <time>2016-03-24T10:52:24.000Z</time>
      </trkpt>
      <trkpt lat="48.5944" lon="1.97734">
        <ele>153.659</ele>
        <time>2016-03-24T10:52:36.568Z</time>
      </trkpt>
      <trkpt lat="48.59432" lon="1.97747">
        <ele>153.556</ele>
        <time>2016-03-24T10:52:59.327Z</time>
      </trkpt>
      <trkpt lat="48.59422" lon="1.97744">
        <ele>153.64</ele>
        <time>2016-03-24T10:53:08.550Z</time>
      </trkpt>
      <trkpt lat="48.59413" lon="1.97739">
        <ele>154.383</ele>
        <time>2016-03-24T10:53:17.910Z</time>
      </trkpt>
      <trkpt lat="48.59404" lon="1.97734">
        <ele>155.321</ele>
        <time>2016-03-24T10:53:27.160Z</time>
      </trkpt>
      <trkpt lat="48.59395" lon="1.97727">
        <ele>155.901</ele>
        <time>2016-03-24T10:53:36.319Z</time>
      </trkpt>
      <trkpt lat="48.59387" lon="1.9772">
        <ele>156.132</ele>
        <time>2016-03-24T10:53:44.396Z</time>
      </trkpt>
      <trkpt lat="48.59378" lon="1.97714">
        <ele>156.177</ele>
        <time>2016-03-24T10:53:52.222Z</time>
      </trkpt>
      <trkpt lat="48.59369" lon="1.97711">
        <ele>156.167</ele>
        <time>2016-03-24T10:54:00.734Z</time>
      </trkpt>
      <trkpt lat="48.5936" lon="1.9771">
        <ele>156.144</ele>
        <time>2016-03-24T10:54:08.729Z</time>
      </trkpt>
      <trkpt lat="48.59351" lon="1.97716">
        <ele>156.081</ele>
        <time>2016-03-24T10:54:16.789Z</time>
      </trkpt>
      <trkpt lat="48.59348" lon="1.97728">
        <ele>155.956</ele>
        <time>2016-03-24T10:54:25.094Z</time>
      </trkpt>
      <trkpt lat="48.59345" lon="1.97742">
        <ele>155.83</ele>
        <time>2016-03-24T10:54:34.384Z</time>
      </trkpt>
      <trkpt lat="48.5934" lon="1.97755">
        <ele>155.76</ele>
        <time>2016-03-24T10:54:43.496Z</time>
      </trkpt>
      <trkpt lat="48.59337" lon="1.97769">
        <ele>155.732</ele>
        <time>2016-03-24T10:54:52.945Z</time>
      </trkpt>
      <trkpt lat="48.59338" lon="1.97783">
        <ele>155.724</ele>
        <time>2016-03-24T10:55:01.606Z</time>
      </trkpt>
      <trkpt lat="48.59341" lon="1.97798">
        <ele>155.708</ele>
        <time>2016-03-24T10:55:10.406Z</time>
      </trkpt>
      <trkpt lat="48.59344" lon="1.97811">
        <ele>155.658</ele>
        <time>2016-03-24T10:55:18.401Z</time>
      </trkpt>
      <trkpt lat="48.59348" lon="1.97824">
        <ele>155.585</ele>
        <time>2016-03-24T10:55:26.140Z</time>
      </trkpt>
      <trkpt lat="48.59352" lon="1.97837">
        <ele>155.526</ele>
        <time>2016-03-24T10:55:33.935Z</time>
      </trkpt>
      <trkpt lat="48.59356" lon="1.9785">
        <ele>155.542</ele>
        <time>2016-03-24T10:55:41.890Z</time>
      </trkpt>
      <trkpt lat="48.5936" lon="1.97863">
        <ele>155.721</ele>
        <time>2016-03-24T10:55:49.864Z</time>
      </trkpt>
      <trkpt lat="48.59363" lon="1.97876">
        <ele>156.051</ele>
        <time>2016-03-24T10:55:57.492Z</time>
      </trkpt>
      <trkpt lat="48.59366" lon="1.9789">
        <ele>156.417</ele>
        <time>2016-03-24T10:56:05.379Z</time>
      </trkpt>
      <trkpt lat="48.59368" lon="1.97903">
        <ele>156.757</ele>
        <time>2016-03-24T10:56:13.109Z</time>
      </trkpt>
      <trkpt lat="48.5937" lon="1.97918">
        <ele>157.032</ele>
        <time>2016-03-24T10:56:21.100Z</time>
      </trkpt>
      <trkpt lat="48.59372" lon="1.97932">
        <ele>157.194</ele>
        <time>2016-03-24T10:56:28.150Z</time>
      </trkpt>
      <trkpt lat="48.59371" lon="1.97946">
        <ele>157.257</ele>
        <time>2016-03-24T10:56:34.962Z</time>
      </trkpt>
      <trkpt lat="48.59368" lon="1.9796">
        <ele>157.298</ele>
        <time>2016-03-24T10:56:42.524Z</time>
      </trkpt>
      <trkpt lat="48.59365" lon="1.97974">
        <ele>157.364</ele>
        <time>2016-03-24T10:56:50.036Z</time>
      </trkpt>
      <trkpt lat="48.5936" lon="1.97987">
        <ele>157.396</ele>
        <time>2016-03-24T10:56:57.487Z</time>
      </trkpt>
      <trkpt lat="48.59356" lon="1.98">
        <ele>157.334</ele>
        <time>2016-03-24T10:57:04.232Z</time>
      </trkpt>
      <trkpt lat="48.59356" lon="1.98013">
        <ele>157.183</ele>
        <time>2016-03-24T10:57:11.396Z</time>
      </trkpt>
      <trkpt lat="48.59346" lon="1.98015">
        <ele>156.991</ele>
        <time>2016-03-24T10:57:20.518Z</time>
      </trkpt>
      <trkpt lat="48.59337" lon="1.98011">
        <ele>156.839</ele>
        <time>2016-03-24T10:57:30.000Z</time>
      </trkpt>
      <trkpt lat="48.59337" lon="1.98011">
        <ele>156.759</ele>
        <time>2016-03-24T10:57:35.000Z</time>
      </trkpt>
      <trkpt lat="48.59337" lon="1.98011">
        <ele>156.692</ele>
        <time>2016-03-24T10:58:40.728Z</time>
      </trkpt>
      <trkpt lat="48.59347" lon="1.98017">
        <ele>156.58</ele>
        <time>2016-03-24T10:58:57.988Z</time>
      </trkpt>
      <trkpt lat="48.59357" lon="1.98018">
        <ele>156.567</ele>
        <time>2016-03-24T10:59:06.515Z</time>
      </trkpt>
      <trkpt lat="48.5936" lon="1.98031">
        <ele>156.587</ele>
        <time>2016-03-24T10:59:15.614Z</time>
      </trkpt>
      <trkpt lat="48.59365" lon="1.98043">
        <ele>156.683</ele>
        <time>2016-03-24T10:59:24.645Z</time>
      </trkpt>
      <trkpt lat="48.59372" lon="1.98052">
        <ele>156.86</ele>
        <time>2016-03-24T10:59:33.295Z</time>
      </trkpt>
      <trkpt lat="48.5938" lon="1.9806">
        <ele>157.033</ele>
        <time>2016-03-24T10:59:41.835Z</time>
      </trkpt>
      <trkpt lat="48.59387" lon="1.98068">
        <ele>157.125</ele>
        <time>2016-03-24T10:59:50.391Z</time>
      </trkpt>
      <trkpt lat="48.59395" lon="1.98076">
        <ele>157.112</ele>
        <time>2016-03-24T10:59:58.284Z</time>
      </trkpt>
      <trkpt lat="48.59404" lon="1.98081">
        <ele>157.011</ele>
        <time>2016-03-24T11:00:06.091Z</time>
      </trkpt>
      <trkpt lat="48.59413" lon="1.98086">
        <ele>156.893</ele>
        <time>2016-03-24T11:00:14.385Z</time>
      </trkpt>
      <trkpt lat="48.59423" lon="1.98085">
        <ele>156.793</ele>
        <time>2016-03-24T11:00:22.628Z</time>
      </trkpt>
      <trkpt lat="48.59432" lon="1.98077">
        <ele>156.698</ele>
        <time>2016-03-24T11:00:30.871Z</time>
      </trkpt>
      <trkpt lat="48.59441" lon="1.98071">
        <ele>156.692</ele>
        <time>2016-03-24T11:00:38.801Z</time>
      </trkpt>
      <trkpt lat="48.59448" lon="1.98062">
        <ele>156.865</ele>
        <time>2016-03-24T11:00:47.062Z</time>
      </trkpt>
      <trkpt lat="48.59455" lon="1.98052">
        <ele>157.196</ele>
        <time>2016-03-24T11:00:54.570Z</time>
      </trkpt>
      <trkpt lat="48.5946" lon="1.98041">
        <ele>157.569</ele>
        <time>2016-03-24T11:01:02.167Z</time>
      </trkpt>
      <trkpt lat="48.59467" lon="1.98032">
        <ele>157.901</ele>
        <time>2016-03-24T11:01:09.390Z</time>
      </trkpt>
      <trkpt lat="48.59475" lon="1.98023">
        <ele>158.197</ele>
        <time>2016-03-24T11:01:17.325Z</time>
      </trkpt>
      <trkpt lat="48.59483" lon="1.98014">
        <ele>158.491</ele>
        <time>2016-03-24T11:01:26.077Z</time>
      </trkpt>
      <trkpt lat="48.59491" lon="1.98007">
        <ele>158.798</ele>
        <time>2016-03-24T11:01:34.992Z</time>
      </trkpt>
      <trkpt lat="48.59498" lon="1.97998">
        <ele>159.107</ele>
        <time>2016-03-24T11:01:43.610Z</time>
      </trkpt>
      <trkpt lat="48.59506" lon="1.97991">
        <ele>159.343</ele>
        <time>2016-03-24T11:01:51.975Z</time>
      </trkpt>
      <trkpt lat="48.59516" lon="1.97991">
        <ele>159.465</ele>
        <time>2016-03-24T11:02:00.532Z</time>
      </trkpt>
      <trkpt lat="48.59525" lon="1.97998">
        <ele>159.5</ele>
        <time>2016-03-24T11:02:08.729Z</time>
      </trkpt>
      <trkpt lat="48.59534" lon="1.98005">
        <ele>159.47</ele>
        <time>2016-03-24T11:02:16.464Z</time>
      </trkpt>
      <trkpt lat="48.59542" lon="1.98012">
        <ele>159.365</ele>
        <time>2016-03-24T11:02:24.435Z</time>
      </trkpt>
      <trkpt lat="48.5955" lon="1.98018">
        <ele>159.176</ele>
        <time>2016-03-24T11:02:32.523Z</time>
      </trkpt>
      <trkpt lat="48.59559" lon="1.98023">
        <ele>158.919</ele>
        <time>2016-03-24T11:02:40.478Z</time>
      </trkpt>
      <trkpt lat="48.59568" lon="1.98028">
        <ele>158.615</ele>
        <time>2016-03-24T11:02:48.805Z</time>
      </trkpt>
      <trkpt lat="48.59577" lon="1.98031">
        <ele>158.252</ele>
        <time>2016-03-24T11:02:57.697Z</time>
      </trkpt>
      <trkpt lat="48.59587" lon="1.98036">
        <ele>157.841</ele>
        <time>2016-03-24T11:03:06.586Z</time>
      </trkpt>
      <trkpt lat="48.59595" lon="1.98044">
        <ele>157.392</ele>
        <time>2016-03-24T11:03:13.959Z</time>
      </trkpt>
      <trkpt lat="48.59602" lon="1.98053">
        <ele>156.872</ele>
        <time>2016-03-24T11:03:21.650Z</time>
      </trkpt>
      <trkpt lat="48.59608" lon="1.98064">
        <ele>156.325</ele>
        <time>2016-03-24T11:03:29.391Z</time>
      </trkpt>
      <trkpt lat="48.59614" lon="1.98076">
        <ele>155.837</ele>
        <time>2016-03-24T11:03:37.432Z</time>
      </trkpt>
      <trkpt lat="48.59623" lon="1.98085">
        <ele>155.413</ele>
        <time>2016-03-24T11:03:45.663Z</time>
      </trkpt>
      <trkpt lat="48.5963" lon="1.98095">
        <ele>155.048</ele>
        <time>2016-03-24T11:03:53.340Z</time>
      </trkpt>
      <trkpt lat="48.59638" lon="1.98101">
        <ele>154.77</ele>
        <time>2016-03-24T11:04:00.265Z</time>
      </trkpt>
      <trkpt lat="48.59645" lon="1.9811">
        <ele>154.595</ele>
        <time>2016-03-24T11:04:07.463Z</time>
      </trkpt>
      <trkpt lat="48.59654" lon="1.98119">
        <ele>154.509</ele>
        <time>2016-03-24T11:04:15.883Z</time>
      </trkpt>
      <trkpt lat="48.59661" lon="1.98129">
        <ele>154.411</ele>
        <time>2016-03-24T11:04:24.586Z</time>
      </trkpt>
      <trkpt lat="48.59669" lon="1.98138">
        <ele>154.227</ele>
        <time>2016-03-24T11:04:32.502Z</time>
      </trkpt>
      <trkpt lat="48.59676" lon="1.98148">
        <ele>154.019</ele>
        <time>2016-03-24T11:04:40.091Z</time>
      </trkpt>
      <trkpt lat="48.59682" lon="1.98161">
        <ele>153.873</ele>
        <time>2016-03-24T11:04:47.633Z</time>
      </trkpt>
      <trkpt lat="48.59689" lon="1.98171">
        <ele>153.771</ele>
        <time>2016-03-24T11:04:55.408Z</time>
      </trkpt>
      <trkpt lat="48.59697" lon="1.98178">
        <ele>153.521</ele>
        <time>2016-03-24T11:05:02.642Z</time>
      </trkpt>
      <trkpt lat="48.59705" lon="1.98184">
        <ele>152.925</ele>
        <time>2016-03-24T11:05:10.746Z</time>
      </trkpt>
      <trkpt lat="48.59715" lon="1.98189">
        <ele>152.11</ele>
        <time>2016-03-24T11:05:19.911Z</time>
      </trkpt>
      <trkpt lat="48.59724" lon="1.98194">
        <ele>151.282</ele>
        <time>2016-03-24T11:05:28.696Z</time>
      </trkpt>
      <trkpt lat="48.59733" lon="1.98198">
        <ele>150.37</ele>
        <time>2016-03-24T11:05:37.224Z</time>
      </trkpt>
      <trkpt lat="48.59741" lon="1.98203">
        <ele>149.355</ele>
        <time>2016-03-24T11:05:45.363Z</time>
      </trkpt>
      <trkpt lat="48.59751" lon="1.98209">
        <ele>148.31</ele>
        <time>2016-03-24T11:05:53.991Z</time>
      </trkpt>
      <trkpt lat="48.5976" lon="1.98214">
        <ele>147.212</ele>
        <time>2016-03-24T11:06:02.368Z</time>
      </trkpt>
      <trkpt lat="48.5977" lon="1.98217">
        <ele>146.1</ele>
        <time>2016-03-24T11:06:10.972Z</time>
      </trkpt>
      <trkpt lat="48.59779" lon="1.98224">
        <ele>145.105</ele>
        <time>2016-03-24T11:06:20.162Z</time>
      </trkpt>
      <trkpt lat="48.59785" lon="1.98236">
        <ele>144.337</ele>
        <time>2016-03-24T11:06:29.933Z</time>
      </trkpt>
      <trkpt lat="48.59792" lon="1.98245">
        <ele>143.718</ele>
        <time>2016-03-24T11:06:39.663Z</time>
      </trkpt>
      <trkpt lat="48.59801" lon="1.98249">
        <ele>142.901</ele>
        <time>2016-03-24T11:06:50.000Z</time>
      </trkpt>
      <trkpt lat="48.59801" lon="1.98249">
        <ele>141.881</ele>
        <time>2016-03-24T11:06:56.000Z</time>
      </trkpt>
      <trkpt lat="48.59801" lon="1.98249">
        <ele>141.229</ele>
        <time>2016-03-24T11:06:56.100Z</time>
      </trkpt>
      <trkpt lat="48.59811" lon="1.98251">
        <ele>141.207</ele>
        <time>2016-03-24T11:07:08.885Z</time>
      </trkpt>
      <trkpt lat="48.5982" lon="1.98252">
        <ele>140.89</ele>
        <time>2016-03-24T11:07:16.974Z</time>
      </trkpt>
      <trkpt lat="48.59829" lon="1.98257">
        <ele>139.352</ele>
        <time>2016-03-24T11:07:24.360Z</time>
      </trkpt>
      <trkpt lat="48.59838" lon="1.98261">
        <ele>137.038</ele>
        <time>2016-03-24T11:07:31.687Z</time>
      </trkpt>
      <trkpt lat="48.59847" lon="1.98265">
        <ele>134.88</ele>
        <time>2016-03-24T11:07:39.077Z</time>
      </trkpt>
      <trkpt lat="48.59857" lon="1.9827">
        <ele>133.216</ele>
        <time>2016-03-24T11:07:47.176Z</time>
      </trkpt>
      <trkpt lat="48.59866" lon="1.98273">
        <ele>131.941</ele>
        <time>2016-03-24T11:07:54.995Z</time>
      </trkpt>
      <trkpt lat="48.59874" lon="1.98277">
        <ele>130.841</ele>
        <time>2016-03-24T11:08:03.040Z</time>
      </trkpt>
      <trkpt lat="48.59883" lon="1.98285">
        <ele>129.884</ele>
        <time>2016-03-24T11:08:11.000Z</time>
      </trkpt>
      <trkpt lat="48.59883" lon="1.98285">
        <ele>129.156</ele>
        <time>2016-03-24T11:08:21.000Z</time>
      </trkpt>
      <trkpt lat="48.59883" lon="1.98285">
        <ele>128.782</ele>
        <time>2016-03-24T11:08:21.100Z</time>
      </trkpt>
      <trkpt lat="48.59893" lon="1.983">
        <ele>128.765</ele>
        <time>2016-03-24T11:08:47.477Z</time>
      </trkpt>
      <trkpt lat="48.59901" lon="1.98307">
        <ele>128.629</ele>
        <time>2016-03-24T11:08:56.004Z</time>
      </trkpt>
      <trkpt lat="48.59907" lon="1.98318">
        <ele>127.988</ele>
        <time>2016-03-24T11:09:05.101Z</time>
      </trkpt>
      <trkpt lat="48.59912" lon="1.9833">
        <ele>127.102</ele>
        <time>2016-03-24T11:09:12.892Z</time>
      </trkpt>
      <trkpt lat="48.59918" lon="1.9834">
        <ele>126.404</ele>
        <time>2016-03-24T11:09:19.610Z</time>
      </trkpt>
      <trkpt lat="48.59927" lon="1.98348">
        <ele>125.942</ele>
        <time>2016-03-24T11:09:26.289Z</time>
      </trkpt>
      <trkpt lat="48.59936" lon="1.98356">
        <ele>125.528</ele>
        <time>2016-03-24T11:09:33.584Z</time>
      </trkpt>
      <trkpt lat="48.59943" lon="1.98366">
        <ele>125.083</ele>
        <time>2016-03-24T11:09:40.348Z</time>
      </trkpt>
      <trkpt lat="48.59948" lon="1.98378">
        <ele>124.742</ele>
        <time>2016-03-24T11:09:47.344Z</time>
      </trkpt>
      <trkpt lat="48.59954" lon="1.98389">
        <ele>124.537</ele>
        <time>2016-03-24T11:09:54.429Z</time>
      </trkpt>
      <trkpt lat="48.59961" lon="1.98398">
        <ele>124.389</ele>
        <time>2016-03-24T11:10:02.182Z</time>
      </trkpt>
      <trkpt lat="48.59967" lon="1.98411">
        <ele>124.263</ele>
        <time>2016-03-24T11:10:10.289Z</time>
      </trkpt>
      <trkpt lat="48.59974" lon="1.98419">
        <ele>124.125</ele>
        <time>2016-03-24T11:10:16.621Z</time>
      </trkpt>
      <trkpt lat="48.59983" lon="1.98425">
        <ele>123.926</ele>
        <time>2016-03-24T11:10:23.166Z</time>
      </trkpt>
      <trkpt lat="48.59989" lon="1.98435">
        <ele>123.666</ele>
        <time>2016-03-24T11:10:29.748Z</time>
      </trkpt>
      <trkpt lat="48.59996" lon="1.98445">
        <ele>123.396</ele>
        <time>2016-03-24T11:10:37.441Z</time>
      </trkpt>
      <trkpt lat="48.60003" lon="1.98454">
        <ele>123.122</ele>
        <time>2016-03-24T11:10:44.872Z</time>
      </trkpt>
      <trkpt lat="48.60011" lon="1.98464">
        <ele>122.778</ele>
        <time>2016-03-24T11:10:53.261Z</time>
      </trkpt>
      <trkpt lat="48.60017" lon="1.98476">
        <ele>122.336</ele>
        <time>2016-03-24T11:11:01.302Z</time>
      </trkpt>
      <trkpt lat="48.60023" lon="1.98487">
        <ele>121.828</ele>
        <time>2016-03-24T11:11:08.276Z</time>
      </trkpt>
      <trkpt lat="48.60027" lon="1.98499">
        <ele>121.295</ele>
        <time>2016-03-24T11:11:15.588Z</time>
      </trkpt>
      <trkpt lat="48.60028" lon="1.98513">
        <ele>120.772</ele>
        <time>2016-03-24T11:11:24.168Z</time>
      </trkpt>
      <trkpt lat="48.60032" lon="1.98526">
        <ele>120.23</ele>
        <time>2016-03-24T11:11:33.265Z</time>
      </trkpt>
      <trkpt lat="48.60036" lon="1.98539">
        <ele>119.618</ele>
        <time>2016-03-24T11:11:41.749Z</time>
      </trkpt>
      <trkpt lat="48.60043" lon="1.98549">
        <ele>118.975</ele>
        <time>2016-03-24T11:11:49.273Z</time>
      </trkpt>
      <trkpt lat="48.60052" lon="1.98558">
        <ele>118.301</ele>
        <time>2016-03-24T11:11:56.432Z</time>
      </trkpt>
      <trkpt lat="48.6006" lon="1.98565">
        <ele>117.575</ele>
        <time>2016-03-24T11:12:02.870Z</time>
      </trkpt>
      <trkpt lat="48.60069" lon="1.98572">
        <ele>116.931</ele>
        <time>2016-03-24T11:12:10.471Z</time>
      </trkpt>
      <trkpt lat="48.60076" lon="1.9858">
        <ele>116.521</ele>
        <time>2016-03-24T11:12:17.483Z</time>
      </trkpt>
      <trkpt lat="48.60084" lon="1.98587">
        <ele>116.297</ele>
        <time>2016-03-24T11:12:24.658Z</time>
      </trkpt>
      <trkpt lat="48.60091" lon="1.98597">
        <ele>116.093</ele>
        <time>2016-03-24T11:12:31.778Z</time>
      </trkpt>
      <trkpt lat="48.60099" lon="1.98608">
        <ele>115.85</ele>
        <time>2016-03-24T11:12:39.669Z</time>
      </trkpt>
      <trkpt lat="48.60105" lon="1.98618">
        <ele>115.665</ele>
        <time>2016-03-24T11:12:46.743Z</time>
      </trkpt>
      <trkpt lat="48.6011" lon="1.98629">
        <ele>115.616</ele>
        <time>2016-03-24T11:12:53.805Z</time>
      </trkpt>
      <trkpt lat="48.60115" lon="1.98642">
        <ele>115.632</ele>
        <time>2016-03-24T11:13:01.679Z</time>
      </trkpt>
      <trkpt lat="48.60118" lon="1.98657">
        <ele>115.562</ele>
        <time>2016-03-24T11:13:09.735Z</time>
      </trkpt>
      <trkpt lat="48.60124" lon="1.98667">
        <ele>115.38</ele>
        <time>2016-03-24T11:13:17.750Z</time>
      </trkpt>
      <trkpt lat="48.60127" lon="1.98681">
        <ele>115.134</ele>
        <time>2016-03-24T11:13:27.000Z</time>
      </trkpt>
      <trkpt lat="48.60127" lon="1.98681">
        <ele>114.856</ele>
        <time>2016-03-24T11:13:35.000Z</time>
      </trkpt>
      <trkpt lat="48.60127" lon="1.98681">
        <ele>114.659</ele>
        <time>2016-03-24T11:14:15.939Z</time>
      </trkpt>
      <trkpt lat="48.60117" lon="1.98695">
        <ele>114.621</ele>
        <time>2016-03-24T11:14:53.543Z</time>
      </trkpt>
      <trkpt lat="48.60109" lon="1.98701">
        <ele>114.509</ele>
        <time>2016-03-24T11:15:00.970Z</time>
      </trkpt>
      <trkpt lat="48.601" lon="1.98707">
        <ele>114.068</ele>
        <time>2016-03-24T11:15:07.620Z</time>
      </trkpt>
      <trkpt lat="48.60091" lon="1.98714">
        <ele>113.389</ele>
        <time>2016-03-24T11:15:13.193Z</time>
      </trkpt>
      <trkpt lat="48.60083" lon="1.98721">
        <ele>112.732</ele>
        <time>2016-03-24T11:15:19.011Z</time>
      </trkpt>
      <trkpt lat="48.60074" lon="1.98725">
        <ele>112.271</ele>
        <time>2016-03-24T11:15:25.000Z</time>
      </trkpt>
      <trkpt lat="48.60074" lon="1.98725">
        <ele>112.068</ele>
        <time>2016-03-24T11:15:36.000Z</time>
      </trkpt>
      <trkpt lat="48.60074" lon="1.98725">
        <ele>112.049</ele>
        <time>2016-03-24T11:15:36.100Z</time>
      </trkpt>
      <trkpt lat="48.60062" lon="1.98736">
        <ele>112.065</ele>
        <time>2016-03-24T11:15:51.585Z</time>
      </trkpt>
      <trkpt lat="48.60053" lon="1.98741">
        <ele>111.902</ele>
        <time>2016-03-24T11:15:56.757Z</time>
      </trkpt>
      <trkpt lat="48.60044" lon="1.98747">
        <ele>111.46</ele>
        <time>2016-03-24T11:16:02.075Z</time>
      </trkpt>
      <trkpt lat="48.60035" lon="1.98751">
        <ele>110.934</ele>
        <time>2016-03-24T11:16:07.000Z</time>
      </trkpt>
      <trkpt lat="48.60035" lon="1.98751">
        <ele>110.575</ele>
        <time>2016-03-24T11:16:15.000Z</time>
      </trkpt>
      <trkpt lat="48.60035" lon="1.98751">
        <ele>110.425</ele>
        <time>2016-03-24T11:16:15.100Z</time>
      </trkpt>
      <trkpt lat="48.60022" lon="1.98752">
        <ele>110.402</ele>
        <time>2016-03-24T11:16:36.420Z</time>
      </trkpt>
      <trkpt lat="48.60012" lon="1.98754">
        <ele>110.386</ele>
        <time>2016-03-24T11:16:46.357Z</time>
      </trkpt>
      <trkpt lat="48.60003" lon="1.98755">
        <ele>110.304</ele>
        <time>2016-03-24T11:16:54.491Z</time>
      </trkpt>
      <trkpt lat="48.59993" lon="1.98756">
        <ele>110.185</ele>
        <time>2016-03-24T11:17:02.016Z</time>
      </trkpt>
      <trkpt lat="48.59984" lon="1.98759">
        <ele>110.103</ele>
        <time>2016-03-24T11:17:09.364Z</time>
      </trkpt>
      <trkpt lat="48.59974" lon="1.98762">
        <ele>110.089</ele>
        <time>2016-03-24T11:17:17.783Z</time>
      </trkpt>
      <trkpt lat="48.59965" lon="1.98766">
        <ele>110.165</ele>
        <time>2016-03-24T11:17:25.828Z</time>
      </trkpt>
      <trkpt lat="48.59954" lon="1.98767">
        <ele>110.412</ele>
        <time>2016-03-24T11:17:35.499Z</time>
      </trkpt>
      <trkpt lat="48.59945" lon="1.9877">
        <ele>110.807</ele>
        <time>2016-03-24T11:17:44.151Z</time>
      </trkpt>
      <trkpt lat="48.59934" lon="1.98776">
        <ele>111.137</ele>
        <time>2016-03-24T11:17:53.519Z</time>
      </trkpt>
      <trkpt lat="48.59925" lon="1.9878">
        <ele>111.258</ele>
        <time>2016-03-24T11:18:01.567Z</time>
      </trkpt>
      <trkpt lat="48.59916" lon="1.98781">
        <ele>111.289</ele>
        <time>2016-03-24T11:18:11.054Z</time>
      </trkpt>
      <trkpt lat="48.59906" lon="1.98783">
        <ele>111.419</ele>
        <time>2016-03-24T11:18:22.203Z</time>
      </trkpt>
      <trkpt lat="48.59896" lon="1.98786">
        <ele>111.693</ele>
        <time>2016-03-24T11:18:32.041Z</time>
      </trkpt>
      <trkpt lat="48.59887" lon="1.98792">
        <ele>112.016</ele>
        <time>2016-03-24T11:18:39.965Z</time>
      </trkpt>
      <trkpt lat="48.59877" lon="1.98793">
        <ele>112.341</ele>
        <time>2016-03-24T11:18:48.066Z</time>
      </trkpt>
      <trkpt lat="48.59867" lon="1.98792">
        <ele>112.717</ele>
        <time>2016-03-24T11:18:56.680Z</time>
      </trkpt>
      <trkpt lat="48.59858" lon="1.98797">
        <ele>113.172</ele>
        <time>2016-03-24T11:19:06.098Z</time>
      </trkpt>
      <trkpt lat="48.59848" lon="1.98799">
        <ele>113.654</ele>
        <time>2016-03-24T11:19:14.835Z</time>
      </trkpt>
      <trkpt lat="48.59838" lon="1.98798">
        <ele>114.144</ele>
        <time>2016-03-24T11:19:23.673Z</time>
      </trkpt>
      <trkpt lat="48.59829" lon="1.98798">
        <ele>114.6</ele>
        <time>2016-03-24T11:19:33.977Z</time>
      </trkpt>
      <trkpt lat="48.59818" lon="1.98798">
        <ele>114.987</ele>
        <time>2016-03-24T11:19:44.212Z</time>
      </trkpt>
      <trkpt lat="48.59809" lon="1.98799">
        <ele>115.364</ele>
        <time>2016-03-24T11:19:54.947Z</time>
      </trkpt>
      <trkpt lat="48.59799" lon="1.98798">
        <ele>115.766</ele>
        <time>2016-03-24T11:20:08.271Z</time>
      </trkpt>
      <trkpt lat="48.5979" lon="1.988">
        <ele>116.242</ele>
        <time>2016-03-24T11:20:17.674Z</time>
      </trkpt>
      <trkpt lat="48.5978" lon="1.98798">
        <ele>116.784</ele>
        <time>2016-03-24T11:20:25.102Z</time>
      </trkpt>
      <trkpt lat="48.59772" lon="1.98795">
        <ele>117.23</ele>
        <time>2016-03-24T11:20:33.270Z</time>
      </trkpt>
      <trkpt lat="48.59762" lon="1.98797">
        <ele>117.555</ele>
        <time>2016-03-24T11:20:42.289Z</time>
      </trkpt>
      <trkpt lat="48.59754" lon="1.98793">
        <ele>117.891</ele>
        <time>2016-03-24T11:20:50.841Z</time>
      </trkpt>
      <trkpt lat="48.59745" lon="1.98795">
        <ele>118.226</ele>
        <time>2016-03-24T11:20:59.482Z</time>
      </trkpt>
      <trkpt lat="48.59736" lon="1.98792">
        <ele>118.524</ele>
        <time>2016-03-24T11:21:09.390Z</time>
      </trkpt>
      <trkpt lat="48.59727" lon="1.98795">
        <ele>118.841</ele>
        <time>2016-03-24T11:21:22.803Z</time>
      </trkpt>
      <trkpt lat="48.59718" lon="1.98796">
        <ele>119.2</ele>
        <time>2016-03-24T11:21:31.905Z</time>
      </trkpt>
      <trkpt lat="48.59709" lon="1.98797">
        <ele>119.522</ele>
        <time>2016-03-24T11:21:39.536Z</time>
      </trkpt>
      <trkpt lat="48.59698" lon="1.98798">
        <ele>119.847</ele>
        <time>2016-03-24T11:21:48.317Z</time>
      </trkpt>
      <trkpt lat="48.5969" lon="1.98793">
        <ele>120.325</ele>
        <time>2016-03-24T11:21:56.915Z</time>
      </trkpt>
      <trkpt lat="48.5968" lon="1.98793">
        <ele>120.942</ele>
        <time>2016-03-24T11:22:06.947Z</time>
      </trkpt>
      <trkpt lat="48.59671" lon="1.98788">
        <ele>121.532</ele>
        <time>2016-03-24T11:22:16.777Z</time>
      </trkpt>
      <trkpt lat="48.59662" lon="1.98791">
        <ele>122.056</ele>
        <time>2016-03-24T11:22:27.128Z</time>
      </trkpt>
      <trkpt lat="48.59653" lon="1.98789">
        <ele>122.535</ele>
        <time>2016-03-24T11:22:35.238Z</time>
      </trkpt>
      <trkpt lat="48.59643" lon="1.9879">
        <ele>122.95</ele>
        <time>2016-03-24T11:22:43.217Z</time>
      </trkpt>
      <trkpt lat="48.59634" lon="1.9879">
        <ele>123.335</ele>
        <time>2016-03-24T11:22:52.489Z</time>
      </trkpt>
      <trkpt lat="48.59625" lon="1.98792">
        <ele>123.856</ele>
        <time>2016-03-24T11:23:02.016Z</time>
      </trkpt>
      <trkpt lat="48.59616" lon="1.9879">
        <ele>124.559</ele>
        <time>2016-03-24T11:23:12.548Z</time>
      </trkpt>
      <trkpt lat="48.59607" lon="1.98793">
        <ele>125.33</ele>
        <time>2016-03-24T11:23:23.755Z</time>
      </trkpt>
      <trkpt lat="48.59598" lon="1.98796">
        <ele>126.019</ele>
        <time>2016-03-24T11:23:33.392Z</time>
      </trkpt>
      <trkpt lat="48.59588" lon="1.98797">
        <ele>126.547</ele>
        <time>2016-03-24T11:23:42.770Z</time>
      </trkpt>
      <trkpt lat="48.5958" lon="1.98802">
        <ele>126.894</ele>
        <time>2016-03-24T11:23:51.797Z</time>
      </trkpt>
      <trkpt lat="48.5957" lon="1.988">
        <ele>127.087</ele>
        <time>2016-03-24T11:24:01.104Z</time>
      </trkpt>
      <trkpt lat="48.59561" lon="1.98806">
        <ele>127.167</ele>
        <time>2016-03-24T11:24:07.796Z</time>
      </trkpt>
      <trkpt lat="48.59552" lon="1.98809">
        <ele>127.186</ele>
        <time>2016-03-24T11:24:14.015Z</time>
      </trkpt>
      <trkpt lat="48.59543" lon="1.98805">
        <ele>127.209</ele>
        <time>2016-03-24T11:24:20.582Z</time>
      </trkpt>
      <trkpt lat="48.59534" lon="1.98806">
        <ele>127.277</ele>
        <time>2016-03-24T11:24:29.826Z</time>
      </trkpt>
      <trkpt lat="48.59525" lon="1.98809">
        <ele>127.275</ele>
        <time>2016-03-24T11:24:38.175Z</time>
      </trkpt>
      <trkpt lat="48.59515" lon="1.98809">
        <ele>127.044</ele>
        <time>2016-03-24T11:24:46.536Z</time>
      </trkpt>
      <trkpt lat="48.59506" lon="1.9881">
        <ele>126.635</ele>
        <time>2016-03-24T11:24:55.000Z</time>
      </trkpt>
      <trkpt lat="48.59506" lon="1.9881">
        <ele>126.258</ele>
        <time>2016-03-24T11:24:59.000Z</time>
      </trkpt>
      <trkpt lat="48.59506" lon="1.9881">
        <ele>126.058</ele>
        <time>2016-03-24T11:25:03.594Z</time>
      </trkpt>
      <trkpt lat="48.59496" lon="1.9881">
        <ele>126.025</ele>
        <time>2016-03-24T11:25:22.371Z</time>
      </trkpt>
      <trkpt lat="48.59487" lon="1.9881">
        <ele>126</ele>
        <time>2016-03-24T11:25:33.382Z</time>
      </trkpt>
      <trkpt lat="48.59478" lon="1.98813">
        <ele>125.74</ele>
        <time>2016-03-24T11:25:41.281Z</time>
      </trkpt>
      <trkpt lat="48.59469" lon="1.98811">
        <ele>125.133</ele>
        <time>2016-03-24T11:25:48.127Z</time>
      </trkpt>
      <trkpt lat="48.5946" lon="1.98811">
        <ele>124.349</ele>
        <time>2016-03-24T11:25:54.788Z</time>
      </trkpt>
      <trkpt lat="48.5945" lon="1.98813">
        <ele>123.641</ele>
        <time>2016-03-24T11:26:02.483Z</time>
      </trkpt>
      <trkpt lat="48.59441" lon="1.98813">
        <ele>123.069</ele>
        <time>2016-03-24T11:26:10.623Z</time>
      </trkpt>
      <trkpt lat="48.59431" lon="1.98814">
        <ele>122.593</ele>
        <time>2016-03-24T11:26:18.919Z</time>
      </trkpt>
      <trkpt lat="48.59422" lon="1.98816">
        <ele>122.207</ele>
        <time>2016-03-24T11:26:27.146Z</time>
      </trkpt>
      <trkpt lat="48.59412" lon="1.98819">
        <ele>121.904</ele>
        <time>2016-03-24T11:26:35.014Z</time>
      </trkpt>
      <trkpt lat="48.59403" lon="1.98822">
        <ele>121.678</ele>
        <time>2016-03-24T11:26:42.306Z</time>
      </trkpt>
      <trkpt lat="48.59393" lon="1.98824">
        <ele>121.504</ele>
        <time>2016-03-24T11:26:49.803Z</time>
      </trkpt>
      <trkpt lat="48.59383" lon="1.98825">
        <ele>121.315</ele>
        <time>2016-03-24T11:26:57.852Z</time>
      </trkpt>
      <trkpt lat="48.59374" lon="1.98829">
        <ele>121.04</ele>
        <time>2016-03-24T11:27:05.538Z</time>
      </trkpt>
      <trkpt lat="48.59366" lon="1.98834">
        <ele>120.687</ele>
        <time>2016-03-24T11:27:12.558Z</time>
      </trkpt>
      <trkpt lat="48.59357" lon="1.98839">
        <ele>120.369</ele>
        <time>2016-03-24T11:27:19.973Z</time>
      </trkpt>
      <trkpt lat="48.59347" lon="1.98842">
        <ele>120.186</ele>
        <time>2016-03-24T11:27:28.284Z</time>
      </trkpt>
      <trkpt lat="48.59338" lon="1.98846">
        <ele>120.128</ele>
        <time>2016-03-24T11:27:36.397Z</time>
      </trkpt>
      <trkpt lat="48.59329" lon="1.98847">
        <ele>120.155</ele>
        <time>2016-03-24T11:27:44.294Z</time>
      </trkpt>
      <trkpt lat="48.5932" lon="1.98851">
        <ele>120.245</ele>
        <time>2016-03-24T11:27:51.037Z</time>
      </trkpt>
      <trkpt lat="48.59311" lon="1.98856">
        <ele>120.39</ele>
        <time>2016-03-24T11:27:58.166Z</time>
      </trkpt>
      <trkpt lat="48.59301" lon="1.98859">
        <ele>120.574</ele>
        <time>2016-03-24T11:28:05.504Z</time>
      </trkpt>
      <trkpt lat="48.59292" lon="1.98862">
        <ele>120.741</ele>
        <time>2016-03-24T11:28:13.321Z</time>
      </trkpt>
      <trkpt lat="48.59283" lon="1.98867">
        <ele>120.817</ele>
        <time>2016-03-24T11:28:22.074Z</time>
      </trkpt>
      <trkpt lat="48.59274" lon="1.98868">
        <ele>120.78</ele>
        <time>2016-03-24T11:28:31.432Z</time>
      </trkpt>
      <trkpt lat="48.59265" lon="1.98874">
        <ele>120.648</ele>
        <time>2016-03-24T11:28:40.573Z</time>
      </trkpt>
      <trkpt lat="48.59255" lon="1.98878">
        <ele>120.469</ele>
        <time>2016-03-24T11:28:49.370Z</time>
      </trkpt>
      <trkpt lat="48.59247" lon="1.98885">
        <ele>120.322</ele>
        <time>2016-03-24T11:28:58.028Z</time>
      </trkpt>
      <trkpt lat="48.59239" lon="1.98893">
        <ele>120.304</ele>
        <time>2016-03-24T11:29:06.021Z</time>
      </trkpt>
      <trkpt lat="48.59234" lon="1.98905">
        <ele>120.441</ele>
        <time>2016-03-24T11:29:14.338Z</time>
      </trkpt>
      <trkpt lat="48.59228" lon="1.98917">
        <ele>120.719</ele>
        <time>2016-03-24T11:29:23.137Z</time>
      </trkpt>
      <trkpt lat="48.59221" lon="1.98925">
        <ele>121.098</ele>
        <time>2016-03-24T11:29:31.114Z</time>
      </trkpt>
      <trkpt lat="48.59215" lon="1.98937">
        <ele>121.455</ele>
        <time>2016-03-24T11:29:39.203Z</time>
      </trkpt>
      <trkpt lat="48.5921" lon="1.98949">
        <ele>121.692</ele>
        <time>2016-03-24T11:29:46.737Z</time>
      </trkpt>
      <trkpt lat="48.59204" lon="1.98961">
        <ele>121.831</ele>
        <time>2016-03-24T11:29:54.921Z</time>
      </trkpt>
      <trkpt lat="48.592" lon="1.98973">
        <ele>121.858</ele>
        <time>2016-03-24T11:30:03.645Z</time>
      </trkpt>
      <trkpt lat="48.59192" lon="1.98982">
        <ele>121.77</ele>
        <time>2016-03-24T11:30:13.234Z</time>
      </trkpt>
      <trkpt lat="48.59186" lon="1.98992">
        <ele>121.594</ele>
        <time>2016-03-24T11:30:21.824Z</time>
      </trkpt>
      <trkpt lat="48.59179" lon="1.99001">
        <ele>121.367</ele>
        <time>2016-03-24T11:30:30.577Z</time>
      </trkpt>
      <trkpt lat="48.59172" lon="1.9901">
        <ele>121.099</ele>
        <time>2016-03-24T11:30:39.524Z</time>
      </trkpt>
      <trkpt lat="48.59164" lon="1.99018">
        <ele>120.738</ele>
        <time>2016-03-24T11:30:48.496Z</time>
      </trkpt>
      <trkpt lat="48.59156" lon="1.99025">
        <ele>120.255</ele>
        <time>2016-03-24T11:30:56.419Z</time>
      </trkpt>
      <trkpt lat="48.59149" lon="1.99034">
        <ele>119.748</ele>
        <time>2016-03-24T11:31:04.284Z</time>
      </trkpt>
      <trkpt lat="48.59141" lon="1.99043">
        <ele>119.317</ele>
        <time>2016-03-24T11:31:11.927Z</time>
      </trkpt>
      <trkpt lat="48.59134" lon="1.99053">
        <ele>118.971</ele>
        <time>2016-03-24T11:31:20.028Z</time>
      </trkpt>
      <trkpt lat="48.59126" lon="1.99062">
        <ele>118.631</ele>
        <time>2016-03-24T11:31:28.560Z</time>
      </trkpt>
      <trkpt lat="48.59118" lon="1.9907">
        <ele>118.2</ele>
        <time>2016-03-24T11:31:36.156Z</time>
      </trkpt>
      <trkpt lat="48.5911" lon="1.99079">
        <ele>117.703</ele>
        <time>2016-03-24T11:31:44.536Z</time>
      </trkpt>
      <trkpt lat="48.59101" lon="1.99086">
        <ele>117.283</ele>
        <time>2016-03-24T11:31:52.444Z</time>
      </trkpt>
      <trkpt lat="48.59093" lon="1.99094">
        <ele>116.962</ele>
        <time>2016-03-24T11:32:00.939Z</time>
      </trkpt>
      <trkpt lat="48.59085" lon="1.99102">
        <ele>116.669</ele>
        <time>2016-03-24T11:32:09.484Z</time>
      </trkpt>
      <trkpt lat="48.59078" lon="1.9911">
        <ele>116.431</ele>
        <time>2016-03-24T11:32:18.191Z</time>
      </trkpt>
      <trkpt lat="48.5907" lon="1.99119">
        <ele>116.235</ele>
        <time>2016-03-24T11:32:26.543Z</time>
      </trkpt>
      <trkpt lat="48.59061" lon="1.99117">
        <ele>116.008</ele>
        <time>2016-03-24T11:32:34.453Z</time>
      </trkpt>
      <trkpt lat="48.59052" lon="1.99113">
        <ele>115.741</ele>
        <time>2016-03-24T11:32:43.181Z</time>
      </trkpt>
      <trkpt lat="48.59043" lon="1.9911">
        <ele>115.446</ele>
        <time>2016-03-24T11:32:51.203Z</time>
      </trkpt>
      <trkpt lat="48.59035" lon="1.99104">
        <ele>115.122</ele>
        <time>2016-03-24T11:32:59.227Z</time>
      </trkpt>
      <trkpt lat="48.59026" lon="1.99097">
        <ele>114.793</ele>
        <time>2016-03-24T11:33:07.718Z</time>
      </trkpt>
      <trkpt lat="48.59017" lon="1.99091">
        <ele>114.517</ele>
        <time>2016-03-24T11:33:16.034Z</time>
      </trkpt>
      <trkpt lat="48.59009" lon="1.99086">
        <ele>114.352</ele>
        <time>2016-03-24T11:33:23.899Z</time>
      </trkpt>
      <trkpt lat="48.59" lon="1.9908">
        <ele>114.225</ele>
        <time>2016-03-24T11:33:32.167Z</time>
      </trkpt>
      <trkpt lat="48.58991" lon="1.99074">
        <ele>114.047</ele>
        <time>2016-03-24T11:33:40.461Z</time>
      </trkpt>
      <trkpt lat="48.58982" lon="1.99069">
        <ele>113.899</ele>
        <time>2016-03-24T11:33:49.031Z</time>
      </trkpt>
      <trkpt lat="48.58973" lon="1.99065">
        <ele>113.868</ele>
        <time>2016-03-24T11:33:57.764Z</time>
      </trkpt>
      <trkpt lat="48.58964" lon="1.9906">
        <ele>113.849</ele>
        <time>2016-03-24T11:34:06.000Z</time>
      </trkpt>
      <trkpt lat="48.58964" lon="1.9906">
        <ele>113.743</ele>
        <time>2016-03-24T11:34:18.000Z</time>
      </trkpt>
      <trkpt lat="48.58964" lon="1.9906">
        <ele>113.622</ele>
        <time>2016-03-24T11:35:00.779Z</time>
      </trkpt>
      <trkpt lat="48.5895" lon="1.99048">
        <ele>113.589</ele>
        <time>2016-03-24T11:35:18.000Z</time>
      </trkpt>
      <trkpt lat="48.5895" lon="1.99048">
        <ele>113.619</ele>
        <time>2016-03-24T11:35:20.000Z</time>
      </trkpt>
      <trkpt lat="48.5895" lon="1.99048">
        <ele>113.622</ele>
        <time>2016-03-24T11:35:23.490Z</time>
      </trkpt>
      <trkpt lat="48.5894" lon="1.99043">
        <ele>113.569</ele>
        <time>2016-03-24T11:35:37.211Z</time>
      </trkpt>
      <trkpt lat="48.5893" lon="1.99039">
        <ele>113.672</ele>
        <time>2016-03-24T11:35:45.591Z</time>
      </trkpt>
      <trkpt lat="48.58921" lon="1.99035">
        <ele>114.103</ele>
        <time>2016-03-24T11:35:53.267Z</time>
      </trkpt>
      <trkpt lat="48.58911" lon="1.99031">
        <ele>114.636</ele>
        <time>2016-03-24T11:36:01.083Z</time>
      </trkpt>
      <trkpt lat="48.58902" lon="1.99025">
        <ele>114.965</ele>
        <time>2016-03-24T11:36:09.484Z</time>
      </trkpt>
      <trkpt lat="48.58893" lon="1.9902">
        <ele>115.107</ele>
        <time>2016-03-24T11:36:17.103Z</time>
      </trkpt>
      <trkpt lat="48.58884" lon="1.99014">
        <ele>115.235</ele>
        <time>2016-03-24T11:36:25.325Z</time>
      </trkpt>
      <trkpt lat="48.58874" lon="1.9901">
        <ele>115.419</ele>
        <time>2016-03-24T11:36:33.656Z</time>
      </trkpt>
      <trkpt lat="48.58865" lon="1.99004">
        <ele>115.589</ele>
        <time>2016-03-24T11:36:41.628Z</time>
      </trkpt>
      <trkpt lat="48.58856" lon="1.98997">
        <ele>115.722</ele>
        <time>2016-03-24T11:36:49.658Z</time>
      </trkpt>
      <trkpt lat="48.58847" lon="1.98991">
        <ele>115.861</ele>
        <time>2016-03-24T11:36:58.079Z</time>
      </trkpt>
      <trkpt lat="48.58839" lon="1.98984">
        <ele>115.976</ele>
        <time>2016-03-24T11:37:06.000Z</time>
      </trkpt>
      <trkpt lat="48.58839" lon="1.98984">
        <ele>116.015</ele>
        <time>2016-03-24T11:37:15.000Z</time>
      </trkpt>
      <trkpt lat="48.58839" lon="1.98984">
        <ele>115.99</ele>
        <time>2016-03-24T11:37:15.100Z</time>
      </trkpt>
      <trkpt lat="48.58828" lon="1.98984">
        <ele>115.936</ele>
        <time>2016-03-24T11:37:34.727Z</time>
      </trkpt>
      <trkpt lat="48.58819" lon="1.98981">
        <ele>115.892</ele>
        <time>2016-03-24T11:37:44.105Z</time>
      </trkpt>
      <trkpt lat="48.58808" lon="1.98977">
        <ele>115.845</ele>
        <time>2016-03-24T11:37:53.998Z</time>
      </trkpt>
      <trkpt lat="48.588" lon="1.98972">
        <ele>115.771</ele>
        <time>2016-03-24T11:38:02.578Z</time>
      </trkpt>
      <trkpt lat="48.58791" lon="1.98967">
        <ele>115.812</ele>
        <time>2016-03-24T11:38:11.125Z</time>
      </trkpt>
      <trkpt lat="48.58781" lon="1.98961">
        <ele>116.157</ele>
        <time>2016-03-24T11:38:20.340Z</time>
      </trkpt>
      <trkpt lat="48.58773" lon="1.98954">
        <ele>116.742</ele>
        <time>2016-03-24T11:38:28.687Z</time>
      </trkpt>
      <trkpt lat="48.58764" lon="1.98949">
        <ele>117.382</ele>
        <time>2016-03-24T11:38:38.492Z</time>
      </trkpt>
      <trkpt lat="48.58755" lon="1.98944">
        <ele>117.937</ele>
        <time>2016-03-24T11:38:49.267Z</time>
      </trkpt>
      <trkpt lat="48.58746" lon="1.9894">
        <ele>118.278</ele>
        <time>2016-03-24T11:39:00.478Z</time>
      </trkpt>
      <trkpt lat="48.58737" lon="1.98933">
        <ele>118.389</ele>
        <time>2016-03-24T11:39:10.146Z</time>
      </trkpt>
      <trkpt lat="48.58727" lon="1.98928">
        <ele>118.443</ele>
        <time>2016-03-24T11:39:19.390Z</time>
      </trkpt>
      <trkpt lat="48.58718" lon="1.98925">
        <ele>118.574</ele>
        <time>2016-03-24T11:39:27.808Z</time>
      </trkpt>
      <trkpt lat="48.58709" lon="1.98921">
        <ele>118.707</ele>
        <time>2016-03-24T11:39:36.142Z</time>
      </trkpt>
      <trkpt lat="48.587" lon="1.98916">
        <ele>118.738</ele>
        <time>2016-03-24T11:39:44.048Z</time>
      </trkpt>
      <trkpt lat="48.5869" lon="1.98911">
        <ele>118.719</ele>
        <time>2016-03-24T11:39:52.092Z</time>
      </trkpt>
      <trkpt lat="48.58681" lon="1.98907">
        <ele>118.775</ele>
        <time>2016-03-24T11:39:59.782Z</time>
      </trkpt>
      <trkpt lat="48.58673" lon="1.98901">
        <ele>118.937</ele>
        <time>2016-03-24T11:40:07.540Z</time>
      </trkpt>
      <trkpt lat="48.58664" lon="1.98893">
        <ele>119.094</ele>
        <time>2016-03-24T11:40:16.028Z</time>
      </trkpt>
      <trkpt lat="48.58655" lon="1.98887">
        <ele>119.159</ele>
        <time>2016-03-24T11:40:24.426Z</time>
      </trkpt>
      <trkpt lat="48.58646" lon="1.98882">
        <ele>119.195</ele>
        <time>2016-03-24T11:40:33.381Z</time>
      </trkpt>
      <trkpt lat="48.58637" lon="1.98881">
        <ele>119.272</ele>
        <time>2016-03-24T11:40:41.766Z</time>
      </trkpt>
      <trkpt lat="48.58628" lon="1.98884">
        <ele>119.372</ele>
        <time>2016-03-24T11:40:50.890Z</time>
      </trkpt>
      <trkpt lat="48.5862" lon="1.98892">
        <ele>119.478</ele>
        <time>2016-03-24T11:40:59.776Z</time>
      </trkpt>
      <trkpt lat="48.58611" lon="1.98896">
        <ele>119.735</ele>
        <time>2016-03-24T11:41:08.308Z</time>
      </trkpt>
      <trkpt lat="48.58603" lon="1.98903">
        <ele>120.26</ele>
        <time>2016-03-24T11:41:16.822Z</time>
      </trkpt>
      <trkpt lat="48.58593" lon="1.98906">
        <ele>120.908</ele>
        <time>2016-03-24T11:41:25.136Z</time>
      </trkpt>
      <trkpt lat="48.58585" lon="1.9891">
        <ele>121.481</ele>
        <time>2016-03-24T11:41:33.831Z</time>
      </trkpt>
      <trkpt lat="48.58576" lon="1.98918">
        <ele>121.951</ele>
        <time>2016-03-24T11:41:43.428Z</time>
      </trkpt>
      <trkpt lat="48.58567" lon="1.98921">
        <ele>122.417</ele>
        <time>2016-03-24T11:41:52.162Z</time>
      </trkpt>
      <trkpt lat="48.58559" lon="1.98928">
        <ele>123.002</ele>
        <time>2016-03-24T11:42:01.334Z</time>
      </trkpt>
      <trkpt lat="48.58551" lon="1.98935">
        <ele>123.605</ele>
        <time>2016-03-24T11:42:10.142Z</time>
      </trkpt>
      <trkpt lat="48.58542" lon="1.98942">
        <ele>123.776</ele>
        <time>2016-03-24T11:42:18.896Z</time>
      </trkpt>
      <trkpt lat="48.58533" lon="1.98938">
        <ele>123.176</ele>
        <time>2016-03-24T11:42:27.817Z</time>
      </trkpt>
      <trkpt lat="48.58532" lon="1.98924">
        <ele>121.986</ele>
        <time>2016-03-24T11:42:36.109Z</time>
      </trkpt>
      <trkpt lat="48.58531" lon="1.9891">
        <ele>120.602</ele>
        <time>2016-03-24T11:42:43.822Z</time>
      </trkpt>
      <trkpt lat="48.58531" lon="1.98895">
        <ele>119.288</ele>
        <time>2016-03-24T11:42:52.346Z</time>
      </trkpt>
      <trkpt lat="48.58531" lon="1.98881">
        <ele>118.167</ele>
        <time>2016-03-24T11:43:01.469Z</time>
      </trkpt>
      <trkpt lat="48.58528" lon="1.98868">
        <ele>117.141</ele>
        <time>2016-03-24T11:43:11.533Z</time>
      </trkpt>
      <trkpt lat="48.5852" lon="1.9886">
        <ele>116.124</ele>
        <time>2016-03-24T11:43:22.000Z</time>
      </trkpt>
      <trkpt lat="48.5852" lon="1.9886">
        <ele>115.32</ele>
        <time>2016-03-24T11:43:45.000Z</time>
      </trkpt>
      <trkpt lat="48.5852" lon="1.9886">
        <ele>114.952</ele>
        <time>2016-03-24T12:03:59.755Z</time>
      </trkpt>
      <trkpt lat="48.5852" lon="1.9886">
        <ele>115.075</ele>
        <time>2016-03-24T12:04:08.000Z</time>
      </trkpt>
      <trkpt lat="48.5852" lon="1.9886">
        <ele>115.137</ele>
        <time>2016-03-24T12:05:01.001Z</time>
      </trkpt>
      <trkpt lat="48.5852" lon="1.9886">
        <ele>114.994</ele>
        <time>2016-03-24T12:05:16.000Z</time>
      </trkpt>
      <trkpt lat="48.5852" lon="1.9886">
        <ele>114.941</ele>
        <time>2016-03-24T12:17:02.302Z</time>
      </trkpt>
      <trkpt lat="48.58527" lon="1.98851">
        <ele>114.891</ele>
        <time>2016-03-24T12:17:13.000Z</time>
      </trkpt>
      <trkpt lat="48.58527" lon="1.98851">
        <ele>114.868</ele>
        <time>2016-03-24T12:17:22.000Z</time>
      </trkpt>
      <trkpt lat="48.58527" lon="1.98851">
        <ele>114.844</ele>
        <time>2016-03-24T12:17:43.873Z</time>
      </trkpt>
      <trkpt lat="48.58527" lon="1.98867">
        <ele>114.759</ele>
        <time>2016-03-24T12:18:01.000Z</time>
      </trkpt>
      <trkpt lat="48.58527" lon="1.98867">
        <ele>114.734</ele>
        <time>2016-03-24T12:18:05.000Z</time>
      </trkpt>
      <trkpt lat="48.58527" lon="1.98867">
        <ele>114.713</ele>
        <time>2016-03-24T12:18:05.100Z</time>
      </trkpt>
      <trkpt lat="48.58533" lon="1.98879">
        <ele>114.627</ele>
        <time>2016-03-24T12:18:19.031Z</time>
      </trkpt>
      <trkpt lat="48.58537" lon="1.98893">
        <ele>115.005</ele>
        <time>2016-03-24T12:18:27.672Z</time>
      </trkpt>
      <trkpt lat="48.58535" lon="1.98906">
        <ele>116.142</ele>
        <time>2016-03-24T12:18:36.078Z</time>
      </trkpt>
      <trkpt lat="48.58529" lon="1.98917">
        <ele>117.526</ele>
        <time>2016-03-24T12:18:45.769Z</time>
      </trkpt>
      <trkpt lat="48.58531" lon="1.98931">
        <ele>118.634</ele>
        <time>2016-03-24T12:18:55.126Z</time>
      </trkpt>
      <trkpt lat="48.58532" lon="1.98944">
        <ele>119.655</ele>
        <time>2016-03-24T12:19:03.000Z</time>
      </trkpt>
      <trkpt lat="48.58532" lon="1.98944">
        <ele>120.628</ele>
        <time>2016-03-24T12:19:08.000Z</time>
      </trkpt>
      <trkpt lat="48.58532" lon="1.98944">
        <ele>121.141</ele>
        <time>2016-03-24T12:19:09.770Z</time>
      </trkpt>
      <trkpt lat="48.58536" lon="1.98956">
        <ele>120.724</ele>
        <time>2016-03-24T12:19:26.347Z</time>
      </trkpt>
      <trkpt lat="48.58536" lon="1.9897">
        <ele>120.97</ele>
        <time>2016-03-24T12:19:38.127Z</time>
      </trkpt>
      <trkpt lat="48.58533" lon="1.98983">
        <ele>122.342</ele>
        <time>2016-03-24T12:19:50.558Z</time>
      </trkpt>
      <trkpt lat="48.58534" lon="1.98997">
        <ele>124.546</ele>
        <time>2016-03-24T12:20:04.000Z</time>
      </trkpt>
      <trkpt lat="48.58534" lon="1.98997">
        <ele>126.684</ele>
        <time>2016-03-24T12:20:05.264Z</time>
      </trkpt>
      <trkpt lat="48.58534" lon="1.98997">
        <ele>127.801</ele>
        <time>2016-03-24T12:20:05.364Z</time>
      </trkpt>
      <trkpt lat="48.58526" lon="1.99005">
        <ele>127.016</ele>
        <time>2016-03-24T12:20:25.665Z</time>
      </trkpt>
      <trkpt lat="48.58519" lon="1.99014">
        <ele>127.448</ele>
        <time>2016-03-24T12:20:40.000Z</time>
      </trkpt>
      <trkpt lat="48.58519" lon="1.99014">
        <ele>129.561</ele>
        <time>2016-03-24T12:20:41.000Z</time>
      </trkpt>
      <trkpt lat="48.58519" lon="1.99014">
        <ele>131.425</ele>
        <time>2016-03-24T12:20:49.248Z</time>
      </trkpt>
      <trkpt lat="48.58509" lon="1.9901">
        <ele>131.354</ele>
        <time>2016-03-24T12:21:03.495Z</time>
      </trkpt>
      <trkpt lat="48.58502" lon="1.99">
        <ele>131.314</ele>
        <time>2016-03-24T12:21:12.000Z</time>
      </trkpt>
      <trkpt lat="48.58502" lon="1.99">
        <ele>133.186</ele>
        <time>2016-03-24T12:21:28.000Z</time>
      </trkpt>
      <trkpt lat="48.58502" lon="1.99">
        <ele>135.106</ele>
        <time>2016-03-24T12:21:29.197Z</time>
      </trkpt>
      <trkpt lat="48.58502" lon="1.99">
        <ele>133.968</ele>
        <time>2016-03-24T12:21:51.000Z</time>
      </trkpt>
      <trkpt lat="48.58502" lon="1.99">
        <ele>133.266</ele>
        <time>2016-03-24T12:22:31.000Z</time>
      </trkpt>
      <trkpt lat="48.58502" lon="1.99">
        <ele>133.25</ele>
        <time>2016-03-24T12:22:34.447Z</time>
      </trkpt>
      <trkpt lat="48.58491" lon="1.98998">
        <ele>133.424</ele>
        <time>2016-03-24T12:22:54.714Z</time>
      </trkpt>
      <trkpt lat="48.58484" lon="1.99007">
        <ele>133.459</ele>
        <time>2016-03-24T12:23:06.054Z</time>
      </trkpt>
      <trkpt lat="48.58475" lon="1.99009">
        <ele>133.88</ele>
        <time>2016-03-24T12:23:16.590Z</time>
      </trkpt>
      <trkpt lat="48.58466" lon="1.99015">
        <ele>134.411</ele>
        <time>2016-03-24T12:23:28.008Z</time>
      </trkpt>
      <trkpt lat="48.58462" lon="1.99027">
        <ele>135.083</ele>
        <time>2016-03-24T12:23:40.999Z</time>
      </trkpt>
      <trkpt lat="48.58462" lon="1.99027">
        <ele>136.125</ele>
        <time>2016-03-24T12:23:52.999Z</time>
      </trkpt>
      <trkpt lat="48.58462" lon="1.99027">
        <ele>136.887</ele>
        <time>2016-03-24T12:26:02.352Z</time>
      </trkpt>
      <trkpt lat="48.58462" lon="1.99027">
        <ele>136.337</ele>
        <time>2016-03-24T12:28:52.999Z</time>
      </trkpt>
      <trkpt lat="48.58462" lon="1.99027">
        <ele>136.036</ele>
        <time>2016-03-24T12:28:53.099Z</time>
      </trkpt>
      <trkpt lat="48.58467" lon="1.99011">
        <ele>136.062</ele>
        <time>2016-03-24T12:29:19.484Z</time>
      </trkpt>
      <trkpt lat="48.58473" lon="1.99002">
        <ele>136.253</ele>
        <time>2016-03-24T12:29:31.800Z</time>
      </trkpt>
      <trkpt lat="48.58482" lon="1.99">
        <ele>136.23</ele>
        <time>2016-03-24T12:29:42.662Z</time>
      </trkpt>
      <trkpt lat="48.58491" lon="1.98996">
        <ele>135.902</ele>
        <time>2016-03-24T12:29:51.507Z</time>
      </trkpt>
      <trkpt lat="48.585" lon="1.98995">
        <ele>135.635</ele>
        <time>2016-03-24T12:29:59.999Z</time>
      </trkpt>
      <trkpt lat="48.585" lon="1.98995">
        <ele>135.668</ele>
        <time>2016-03-24T12:30:12.999Z</time>
      </trkpt>
      <trkpt lat="48.585" lon="1.98995">
        <ele>135.78</ele>
        <time>2016-03-24T12:30:16.103Z</time>
      </trkpt>
      <trkpt lat="48.58505" lon="1.99009">
        <ele>135.734</ele>
        <time>2016-03-24T12:30:55.999Z</time>
      </trkpt>
      <trkpt lat="48.58505" lon="1.99009">
        <ele>135.612</ele>
        <time>2016-03-24T12:30:58.999Z</time>
      </trkpt>
      <trkpt lat="48.58505" lon="1.99009">
        <ele>135.55</ele>
        <time>2016-03-24T12:30:59.099Z</time>
      </trkpt>
      <trkpt lat="48.58505" lon="1.99009">
        <ele>135.502</ele>
        <time>2016-03-24T12:32:11.999Z</time>
      </trkpt>
      <trkpt lat="48.58505" lon="1.99009">
        <ele>135.458</ele>
        <time>2016-03-24T12:32:55.999Z</time>
      </trkpt>
      <trkpt lat="48.58505" lon="1.99009">
        <ele>135.408</ele>
        <time>2016-03-24T12:34:28.645Z</time>
      </trkpt>
      <trkpt lat="48.58515" lon="1.99013">
        <ele>135.359</ele>
        <time>2016-03-24T12:34:46.062Z</time>
      </trkpt>
      <trkpt lat="48.58522" lon="1.99004">
        <ele>135.31</ele>
        <time>2016-03-24T12:34:57.975Z</time>
      </trkpt>
      <trkpt lat="48.5853" lon="1.98996">
        <ele>134.895</ele>
        <time>2016-03-24T12:35:09.262Z</time>
      </trkpt>
      <trkpt lat="48.58525" lon="1.98983">
        <ele>133.623</ele>
        <time>2016-03-24T12:35:19.844Z</time>
      </trkpt>
      <trkpt lat="48.58518" lon="1.98973">
        <ele>131.613</ele>
        <time>2016-03-24T12:35:29.212Z</time>
      </trkpt>
      <trkpt lat="48.58509" lon="1.98968">
        <ele>129.542</ele>
        <time>2016-03-24T12:35:38.806Z</time>
      </trkpt>
      <trkpt lat="48.58499" lon="1.98968">
        <ele>127.883</ele>
        <time>2016-03-24T12:35:49.470Z</time>
      </trkpt>
      <trkpt lat="48.5849" lon="1.98967">
        <ele>126.548</ele>
        <time>2016-03-24T12:35:58.827Z</time>
      </trkpt>
      <trkpt lat="48.58482" lon="1.9896">
        <ele>125.199</ele>
        <time>2016-03-24T12:36:07.378Z</time>
      </trkpt>
      <trkpt lat="48.58475" lon="1.98951">
        <ele>123.831</ele>
        <time>2016-03-24T12:36:16.412Z</time>
      </trkpt>
      <trkpt lat="48.58469" lon="1.98941">
        <ele>122.527</ele>
        <time>2016-03-24T12:36:26.654Z</time>
      </trkpt>
      <trkpt lat="48.58463" lon="1.9893">
        <ele>121.224</ele>
        <time>2016-03-24T12:36:36.643Z</time>
      </trkpt>
      <trkpt lat="48.58456" lon="1.98921">
        <ele>119.854</ele>
        <time>2016-03-24T12:36:46.338Z</time>
      </trkpt>
      <trkpt lat="48.58451" lon="1.98908">
        <ele>118.309</ele>
        <time>2016-03-24T12:36:58.264Z</time>
      </trkpt>
      <trkpt lat="48.58442" lon="1.98907">
        <ele>116.47</ele>
        <time>2016-03-24T12:37:09.268Z</time>
      </trkpt>
      <trkpt lat="48.58433" lon="1.98905">
        <ele>114.612</ele>
        <time>2016-03-24T12:37:18.313Z</time>
      </trkpt>
      <trkpt lat="48.58425" lon="1.98896">
        <ele>113.147</ele>
        <time>2016-03-24T12:37:27.317Z</time>
      </trkpt>
      <trkpt lat="48.5842" lon="1.98884">
        <ele>112.107</ele>
        <time>2016-03-24T12:37:36.400Z</time>
      </trkpt>
      <trkpt lat="48.58416" lon="1.98871">
        <ele>111.339</ele>
        <time>2016-03-24T12:37:44.831Z</time>
      </trkpt>
      <trkpt lat="48.58409" lon="1.98861">
        <ele>110.716</ele>
        <time>2016-03-24T12:37:53.000Z</time>
      </trkpt>
      <trkpt lat="48.58409" lon="1.98861">
        <ele>110.146</ele>
        <time>2016-03-24T12:37:59.000Z</time>
      </trkpt>
      <trkpt lat="48.58409" lon="1.98861">
        <ele>109.787</ele>
        <time>2016-03-24T12:38:07.049Z</time>
      </trkpt>
      <trkpt lat="48.58406" lon="1.98841">
        <ele>109.764</ele>
        <time>2016-03-24T12:38:25.443Z</time>
      </trkpt>
      <trkpt lat="48.58402" lon="1.98828">
        <ele>109.804</ele>
        <time>2016-03-24T12:38:34.830Z</time>
      </trkpt>
      <trkpt lat="48.58399" lon="1.98814">
        <ele>109.666</ele>
        <time>2016-03-24T12:38:43.948Z</time>
      </trkpt>
      <trkpt lat="48.58395" lon="1.98802">
        <ele>109.431</ele>
        <time>2016-03-24T12:38:52.344Z</time>
      </trkpt>
      <trkpt lat="48.58385" lon="1.98801">
        <ele>109.145</ele>
        <time>2016-03-24T12:39:03.419Z</time>
      </trkpt>
      <trkpt lat="48.58383" lon="1.98787">
        <ele>108.753</ele>
        <time>2016-03-24T12:39:15.282Z</time>
      </trkpt>
      <trkpt lat="48.58379" lon="1.98774">
        <ele>108.295</ele>
        <time>2016-03-24T12:39:26.564Z</time>
      </trkpt>
      <trkpt lat="48.58375" lon="1.9876">
        <ele>107.762</ele>
        <time>2016-03-24T12:39:36.714Z</time>
      </trkpt>
      <trkpt lat="48.58371" lon="1.98747">
        <ele>107.14</ele>
        <time>2016-03-24T12:39:45.521Z</time>
      </trkpt>
      <trkpt lat="48.58367" lon="1.98733">
        <ele>106.56</ele>
        <time>2016-03-24T12:39:53.750Z</time>
      </trkpt>
      <trkpt lat="48.58363" lon="1.98719">
        <ele>106.136</ele>
        <time>2016-03-24T12:40:01.819Z</time>
      </trkpt>
      <trkpt lat="48.58359" lon="1.98707">
        <ele>105.909</ele>
        <time>2016-03-24T12:40:09.667Z</time>
      </trkpt>
      <trkpt lat="48.58357" lon="1.98693">
        <ele>105.849</ele>
        <time>2016-03-24T12:40:18.459Z</time>
      </trkpt>
      <trkpt lat="48.58353" lon="1.98679">
        <ele>105.862</ele>
        <time>2016-03-24T12:40:27.327Z</time>
      </trkpt>
      <trkpt lat="48.58349" lon="1.98666">
        <ele>105.875</ele>
        <time>2016-03-24T12:40:35.498Z</time>
      </trkpt>
      <trkpt lat="48.58345" lon="1.98652">
        <ele>105.826</ele>
        <time>2016-03-24T12:40:43.662Z</time>
      </trkpt>
      <trkpt lat="48.5834" lon="1.98639">
        <ele>105.689</ele>
        <time>2016-03-24T12:40:52.170Z</time>
      </trkpt>
      <trkpt lat="48.58336" lon="1.98627">
        <ele>105.544</ele>
        <time>2016-03-24T12:41:00.085Z</time>
      </trkpt>
      <trkpt lat="48.58332" lon="1.98613">
        <ele>105.445</ele>
        <time>2016-03-24T12:41:08.225Z</time>
      </trkpt>
      <trkpt lat="48.58328" lon="1.986">
        <ele>105.39</ele>
        <time>2016-03-24T12:41:16.749Z</time>
      </trkpt>
      <trkpt lat="48.58319" lon="1.986">
        <ele>105.395</ele>
        <time>2016-03-24T12:41:26.672Z</time>
      </trkpt>
      <trkpt lat="48.5831" lon="1.98606">
        <ele>105.435</ele>
        <time>2016-03-24T12:41:36.281Z</time>
      </trkpt>
      <trkpt lat="48.58301" lon="1.98612">
        <ele>105.425</ele>
        <time>2016-03-24T12:41:45.369Z</time>
      </trkpt>
      <trkpt lat="48.58292" lon="1.98616">
        <ele>105.353</ele>
        <time>2016-03-24T12:41:54.035Z</time>
      </trkpt>
      <trkpt lat="48.58282" lon="1.98613">
        <ele>105.311</ele>
        <time>2016-03-24T12:42:02.965Z</time>
      </trkpt>
      <trkpt lat="48.58273" lon="1.9861">
        <ele>105.425</ele>
        <time>2016-03-24T12:42:11.859Z</time>
      </trkpt>
      <trkpt lat="48.58264" lon="1.98604">
        <ele>105.737</ele>
        <time>2016-03-24T12:42:21.662Z</time>
      </trkpt>
      <trkpt lat="48.58257" lon="1.98593">
        <ele>106.173</ele>
        <time>2016-03-24T12:42:32.243Z</time>
      </trkpt>
      <trkpt lat="48.58249" lon="1.98587">
        <ele>106.675</ele>
        <time>2016-03-24T12:42:43.797Z</time>
      </trkpt>
      <trkpt lat="48.58241" lon="1.98579">
        <ele>107.202</ele>
        <time>2016-03-24T12:42:52.982Z</time>
      </trkpt>
      <trkpt lat="48.58233" lon="1.98571">
        <ele>107.678</ele>
        <time>2016-03-24T12:43:01.957Z</time>
      </trkpt>
      <trkpt lat="48.58226" lon="1.98562">
        <ele>108.142</ele>
        <time>2016-03-24T12:43:13.425Z</time>
      </trkpt>
      <trkpt lat="48.58217" lon="1.98555">
        <ele>108.818</ele>
        <time>2016-03-24T12:43:24.731Z</time>
      </trkpt>
      <trkpt lat="48.5821" lon="1.98546">
        <ele>109.855</ele>
        <time>2016-03-24T12:43:33.160Z</time>
      </trkpt>
      <trkpt lat="48.58202" lon="1.9854">
        <ele>111.059</ele>
        <time>2016-03-24T12:43:41.058Z</time>
      </trkpt>
      <trkpt lat="48.58193" lon="1.98534">
        <ele>112.097</ele>
        <time>2016-03-24T12:43:49.747Z</time>
      </trkpt>
      <trkpt lat="48.58184" lon="1.98531">
        <ele>112.955</ele>
        <time>2016-03-24T12:43:58.515Z</time>
      </trkpt>
      <trkpt lat="48.58175" lon="1.98528">
        <ele>113.818</ele>
        <time>2016-03-24T12:44:07.782Z</time>
      </trkpt>
      <trkpt lat="48.58165" lon="1.98523">
        <ele>114.635</ele>
        <time>2016-03-24T12:44:17.631Z</time>
      </trkpt>
      <trkpt lat="48.58156" lon="1.98521">
        <ele>115.272</ele>
        <time>2016-03-24T12:44:26.198Z</time>
      </trkpt>
      <trkpt lat="48.58147" lon="1.98516">
        <ele>115.76</ele>
        <time>2016-03-24T12:44:35.620Z</time>
      </trkpt>
      <trkpt lat="48.58138" lon="1.98512">
        <ele>116.118</ele>
        <time>2016-03-24T12:44:45.661Z</time>
      </trkpt>
      <trkpt lat="48.58128" lon="1.98507">
        <ele>116.346</ele>
        <time>2016-03-24T12:44:55.796Z</time>
      </trkpt>
      <trkpt lat="48.58119" lon="1.98501">
        <ele>116.642</ele>
        <time>2016-03-24T12:45:04.894Z</time>
      </trkpt>
      <trkpt lat="48.58111" lon="1.98495">
        <ele>117.084</ele>
        <time>2016-03-24T12:45:13.761Z</time>
      </trkpt>
      <trkpt lat="48.58102" lon="1.98491">
        <ele>117.515</ele>
        <time>2016-03-24T12:45:23.000Z</time>
      </trkpt>
      <trkpt lat="48.58102" lon="1.98491">
        <ele>117.813</ele>
        <time>2016-03-24T12:45:25.000Z</time>
      </trkpt>
      <trkpt lat="48.58102" lon="1.98491">
        <ele>117.93</ele>
        <time>2016-03-24T12:47:04.024Z</time>
      </trkpt>
      <trkpt lat="48.58083" lon="1.98482">
        <ele>117.865</ele>
        <time>2016-03-24T12:47:37.677Z</time>
      </trkpt>
      <trkpt lat="48.58074" lon="1.9848">
        <ele>117.893</ele>
        <time>2016-03-24T12:47:48.912Z</time>
      </trkpt>
      <trkpt lat="48.58064" lon="1.98479">
        <ele>118.222</ele>
        <time>2016-03-24T12:47:58.021Z</time>
      </trkpt>
      <trkpt lat="48.58055" lon="1.98475">
        <ele>118.646</ele>
        <time>2016-03-24T12:48:08.185Z</time>
      </trkpt>
      <trkpt lat="48.58046" lon="1.98473">
        <ele>118.885</ele>
        <time>2016-03-24T12:48:18.219Z</time>
      </trkpt>
      <trkpt lat="48.58037" lon="1.98469">
        <ele>118.87</ele>
        <time>2016-03-24T12:48:27.120Z</time>
      </trkpt>
      <trkpt lat="48.58028" lon="1.98465">
        <ele>118.67</ele>
        <time>2016-03-24T12:48:35.865Z</time>
      </trkpt>
      <trkpt lat="48.58019" lon="1.98461">
        <ele>118.458</ele>
        <time>2016-03-24T12:48:45.777Z</time>
      </trkpt>
      <trkpt lat="48.58011" lon="1.98453">
        <ele>118.327</ele>
        <time>2016-03-24T12:48:55.182Z</time>
      </trkpt>
      <trkpt lat="48.58002" lon="1.98447">
        <ele>118.094</ele>
        <time>2016-03-24T12:49:03.169Z</time>
      </trkpt>
      <trkpt lat="48.57993" lon="1.98443">
        <ele>117.504</ele>
        <time>2016-03-24T12:49:11.852Z</time>
      </trkpt>
      <trkpt lat="48.57984" lon="1.98438">
        <ele>116.593</ele>
        <time>2016-03-24T12:49:20.777Z</time>
      </trkpt>
      <trkpt lat="48.57977" lon="1.9843">
        <ele>115.493</ele>
        <time>2016-03-24T12:49:29.528Z</time>
      </trkpt>
      <trkpt lat="48.57969" lon="1.98421">
        <ele>114.373</ele>
        <time>2016-03-24T12:49:38.835Z</time>
      </trkpt>
      <trkpt lat="48.5796" lon="1.98415">
        <ele>113.446</ele>
        <time>2016-03-24T12:49:47.687Z</time>
      </trkpt>
      <trkpt lat="48.57951" lon="1.98411">
        <ele>112.666</ele>
        <time>2016-03-24T12:49:55.347Z</time>
      </trkpt>
      <trkpt lat="48.57942" lon="1.98403">
        <ele>111.847</ele>
        <time>2016-03-24T12:50:03.229Z</time>
      </trkpt>
      <trkpt lat="48.57934" lon="1.98397">
        <ele>110.975</ele>
        <time>2016-03-24T12:50:11.015Z</time>
      </trkpt>
      <trkpt lat="48.57926" lon="1.98389">
        <ele>110.113</ele>
        <time>2016-03-24T12:50:19.484Z</time>
      </trkpt>
      <trkpt lat="48.57918" lon="1.98382">
        <ele>109.334</ele>
        <time>2016-03-24T12:50:27.624Z</time>
      </trkpt>
      <trkpt lat="48.5791" lon="1.98375">
        <ele>108.627</ele>
        <time>2016-03-24T12:50:35.728Z</time>
      </trkpt>
      <trkpt lat="48.57902" lon="1.98369">
        <ele>107.984</ele>
        <time>2016-03-24T12:50:43.906Z</time>
      </trkpt>
      <trkpt lat="48.57893" lon="1.98363">
        <ele>107.473</ele>
        <time>2016-03-24T12:50:51.637Z</time>
      </trkpt>
      <trkpt lat="48.57884" lon="1.98356">
        <ele>107.071</ele>
        <time>2016-03-24T12:51:00.170Z</time>
      </trkpt>
      <trkpt lat="48.57876" lon="1.98348">
        <ele>106.626</ele>
        <time>2016-03-24T12:51:08.709Z</time>
      </trkpt>
      <trkpt lat="48.57868" lon="1.98342">
        <ele>106.12</ele>
        <time>2016-03-24T12:51:16.351Z</time>
      </trkpt>
      <trkpt lat="48.5786" lon="1.98334">
        <ele>105.663</ele>
        <time>2016-03-24T12:51:25.057Z</time>
      </trkpt>
      <trkpt lat="48.57852" lon="1.98325">
        <ele>105.317</ele>
        <time>2016-03-24T12:51:34.564Z</time>
      </trkpt>
      <trkpt lat="48.57843" lon="1.98318">
        <ele>104.987</ele>
        <time>2016-03-24T12:51:43.625Z</time>
      </trkpt>
      <trkpt lat="48.57835" lon="1.98312">
        <ele>104.6</ele>
        <time>2016-03-24T12:51:52.252Z</time>
      </trkpt>
      <trkpt lat="48.57826" lon="1.98307">
        <ele>104.2</ele>
        <time>2016-03-24T12:52:00.477Z</time>
      </trkpt>
      <trkpt lat="48.57818" lon="1.98298">
        <ele>103.862</ele>
        <time>2016-03-24T12:52:08.980Z</time>
      </trkpt>
      <trkpt lat="48.57809" lon="1.98295">
        <ele>103.536</ele>
        <time>2016-03-24T12:52:17.216Z</time>
      </trkpt>
      <trkpt lat="48.578" lon="1.98292">
        <ele>103.082</ele>
        <time>2016-03-24T12:52:25.657Z</time>
      </trkpt>
      <trkpt lat="48.57791" lon="1.98287">
        <ele>102.503</ele>
        <time>2016-03-24T12:52:33.893Z</time>
      </trkpt>
      <trkpt lat="48.57786" lon="1.98275">
        <ele>102.008</ele>
        <time>2016-03-24T12:52:41.824Z</time>
      </trkpt>
      <trkpt lat="48.57783" lon="1.98262">
        <ele>101.675</ele>
        <time>2016-03-24T12:52:50.000Z</time>
      </trkpt>
      <trkpt lat="48.57783" lon="1.98262">
        <ele>101.489</ele>
        <time>2016-03-24T12:52:52.000Z</time>
      </trkpt>
      <trkpt lat="48.57783" lon="1.98262">
        <ele>101.428</ele>
        <time>2016-03-24T12:53:05.966Z</time>
      </trkpt>
      <trkpt lat="48.57783" lon="1.98262">
        <ele>101.39</ele>
        <time>2016-03-24T12:53:20.000Z</time>
      </trkpt>
      <trkpt lat="48.57783" lon="1.98262">
        <ele>101.364</ele>
        <time>2016-03-24T12:53:50.062Z</time>
      </trkpt>
      <trkpt lat="48.57779" lon="1.98245">
        <ele>101.331</ele>
        <time>2016-03-24T12:54:13.781Z</time>
      </trkpt>
      <trkpt lat="48.57779" lon="1.98231">
        <ele>101.435</ele>
        <time>2016-03-24T12:54:25.504Z</time>
      </trkpt>
      <trkpt lat="48.57778" lon="1.98217">
        <ele>101.83</ele>
        <time>2016-03-24T12:54:34.643Z</time>
      </trkpt>
      <trkpt lat="48.57776" lon="1.98202">
        <ele>102.305</ele>
        <time>2016-03-24T12:54:42.823Z</time>
      </trkpt>
      <trkpt lat="48.57772" lon="1.98189">
        <ele>102.738</ele>
        <time>2016-03-24T12:54:51.024Z</time>
      </trkpt>
      <trkpt lat="48.57771" lon="1.98174">
        <ele>103.166</ele>
        <time>2016-03-24T12:54:59.524Z</time>
      </trkpt>
      <trkpt lat="48.57769" lon="1.9816">
        <ele>103.564</ele>
        <time>2016-03-24T12:55:08.152Z</time>
      </trkpt>
      <trkpt lat="48.57769" lon="1.98146">
        <ele>103.888</ele>
        <time>2016-03-24T12:55:15.581Z</time>
      </trkpt>
      <trkpt lat="48.57767" lon="1.98132">
        <ele>104.152</ele>
        <time>2016-03-24T12:55:23.159Z</time>
      </trkpt>
      <trkpt lat="48.57766" lon="1.98117">
        <ele>104.405</ele>
        <time>2016-03-24T12:55:31.349Z</time>
      </trkpt>
      <trkpt lat="48.57765" lon="1.98102">
        <ele>104.634</ele>
        <time>2016-03-24T12:55:39.753Z</time>
      </trkpt>
      <trkpt lat="48.57764" lon="1.98087">
        <ele>104.866</ele>
        <time>2016-03-24T12:55:48.082Z</time>
      </trkpt>
      <trkpt lat="48.57763" lon="1.98073">
        <ele>105.179</ele>
        <time>2016-03-24T12:55:55.888Z</time>
      </trkpt>
      <trkpt lat="48.5776" lon="1.9806">
        <ele>105.521</ele>
        <time>2016-03-24T12:56:03.064Z</time>
      </trkpt>
      <trkpt lat="48.57758" lon="1.98046">
        <ele>105.804</ele>
        <time>2016-03-24T12:56:11.063Z</time>
      </trkpt>
      <trkpt lat="48.57759" lon="1.98031">
        <ele>106.015</ele>
        <time>2016-03-24T12:56:20.058Z</time>
      </trkpt>
      <trkpt lat="48.5776" lon="1.98016">
        <ele>106.231</ele>
        <time>2016-03-24T12:56:29.061Z</time>
      </trkpt>
      <trkpt lat="48.5776" lon="1.98001">
        <ele>106.495</ele>
        <time>2016-03-24T12:56:37.261Z</time>
      </trkpt>
      <trkpt lat="48.57761" lon="1.97988">
        <ele>106.711</ele>
        <time>2016-03-24T12:56:45.286Z</time>
      </trkpt>
      <trkpt lat="48.57764" lon="1.97973">
        <ele>106.829</ele>
        <time>2016-03-24T12:56:53.892Z</time>
      </trkpt>
      <trkpt lat="48.57765" lon="1.97958">
        <ele>106.985</ele>
        <time>2016-03-24T12:57:02.722Z</time>
      </trkpt>
      <trkpt lat="48.57767" lon="1.97943">
        <ele>107.28</ele>
        <time>2016-03-24T12:57:11.331Z</time>
      </trkpt>
      <trkpt lat="48.57768" lon="1.97929">
        <ele>107.648</ele>
        <time>2016-03-24T12:57:19.526Z</time>
      </trkpt>
      <trkpt lat="48.5777" lon="1.97915">
        <ele>107.965</ele>
        <time>2016-03-24T12:57:27.656Z</time>
      </trkpt>
      <trkpt lat="48.57772" lon="1.979">
        <ele>108.222</ele>
        <time>2016-03-24T12:57:35.578Z</time>
      </trkpt>
      <trkpt lat="48.57775" lon="1.97887">
        <ele>108.462</ele>
        <time>2016-03-24T12:57:43.443Z</time>
      </trkpt>
      <trkpt lat="48.57777" lon="1.97874">
        <ele>108.679</ele>
        <time>2016-03-24T12:57:50.779Z</time>
      </trkpt>
      <trkpt lat="48.57779" lon="1.9786">
        <ele>108.853</ele>
        <time>2016-03-24T12:57:58.360Z</time>
      </trkpt>
      <trkpt lat="48.5778" lon="1.97843">
        <ele>108.988</ele>
        <time>2016-03-24T12:58:07.909Z</time>
      </trkpt>
      <trkpt lat="48.57781" lon="1.97826">
        <ele>109.094</ele>
        <time>2016-03-24T12:58:19.235Z</time>
      </trkpt>
      <trkpt lat="48.57783" lon="1.97813">
        <ele>109.241</ele>
        <time>2016-03-24T12:58:28.586Z</time>
      </trkpt>
      <trkpt lat="48.57785" lon="1.97799">
        <ele>109.466</ele>
        <time>2016-03-24T12:58:38.356Z</time>
      </trkpt>
      <trkpt lat="48.57786" lon="1.97784">
        <ele>109.669</ele>
        <time>2016-03-24T12:58:47.568Z</time>
      </trkpt>
      <trkpt lat="48.5779" lon="1.9777">
        <ele>109.745</ele>
        <time>2016-03-24T12:58:56.357Z</time>
      </trkpt>
      <trkpt lat="48.57794" lon="1.97757">
        <ele>109.722</ele>
        <time>2016-03-24T12:59:03.276Z</time>
      </trkpt>
      <trkpt lat="48.57797" lon="1.97743">
        <ele>109.675</ele>
        <time>2016-03-24T12:59:11.000Z</time>
      </trkpt>
      <trkpt lat="48.57797" lon="1.97743">
        <ele>109.653</ele>
        <time>2016-03-24T12:59:17.000Z</time>
      </trkpt>
      <trkpt lat="48.57797" lon="1.97743">
        <ele>109.636</ele>
        <time>2016-03-24T12:59:17.100Z</time>
      </trkpt>
      <trkpt lat="48.57799" lon="1.97719">
        <ele>109.601</ele>
        <time>2016-03-24T12:59:38.470Z</time>
      </trkpt>
      <trkpt lat="48.57791" lon="1.97711">
        <ele>109.628</ele>
        <time>2016-03-24T12:59:46.000Z</time>
      </trkpt>
      <trkpt lat="48.57791" lon="1.97711">
        <ele>109.779</ele>
        <time>2016-03-24T12:59:52.000Z</time>
      </trkpt>
      <trkpt lat="48.57791" lon="1.97711">
        <ele>109.899</ele>
        <time>2016-03-24T13:00:28.464Z</time>
      </trkpt>
      <trkpt lat="48.57791" lon="1.97711">
        <ele>109.733</ele>
        <time>2016-03-24T13:00:50.000Z</time>
      </trkpt>
      <trkpt lat="48.57791" lon="1.97711">
        <ele>109.656</ele>
        <time>2016-03-24T13:04:23.627Z</time>
      </trkpt>
      <trkpt lat="48.57797" lon="1.977">
        <ele>109.627</ele>
        <time>2016-03-24T13:04:38.665Z</time>
      </trkpt>
      <trkpt lat="48.57796" lon="1.97684">
        <ele>109.616</ele>
        <time>2016-03-24T13:04:48.265Z</time>
      </trkpt>
      <trkpt lat="48.57796" lon="1.97669">
        <ele>109.67</ele>
        <time>2016-03-24T13:04:56.705Z</time>
      </trkpt>
      <trkpt lat="48.57794" lon="1.97655">
        <ele>109.853</ele>
        <time>2016-03-24T13:05:05.163Z</time>
      </trkpt>
      <trkpt lat="48.57794" lon="1.9764">
        <ele>110.151</ele>
        <time>2016-03-24T13:05:13.794Z</time>
      </trkpt>
      <trkpt lat="48.57795" lon="1.97627">
        <ele>110.491</ele>
        <time>2016-03-24T13:05:22.527Z</time>
      </trkpt>
      <trkpt lat="48.57794" lon="1.97612">
        <ele>110.792</ele>
        <time>2016-03-24T13:05:31.798Z</time>
      </trkpt>
      <trkpt lat="48.57794" lon="1.97597">
        <ele>110.988</ele>
        <time>2016-03-24T13:05:40.689Z</time>
      </trkpt>
      <trkpt lat="48.57794" lon="1.97583">
        <ele>111.081</ele>
        <time>2016-03-24T13:05:49.026Z</time>
      </trkpt>
      <trkpt lat="48.57792" lon="1.97569">
        <ele>111.159</ele>
        <time>2016-03-24T13:05:57.465Z</time>
      </trkpt>
      <trkpt lat="48.57788" lon="1.97555">
        <ele>111.313</ele>
        <time>2016-03-24T13:06:05.732Z</time>
      </trkpt>
      <trkpt lat="48.57787" lon="1.9754">
        <ele>111.501</ele>
        <time>2016-03-24T13:06:14.206Z</time>
      </trkpt>
      <trkpt lat="48.57783" lon="1.97526">
        <ele>111.622</ele>
        <time>2016-03-24T13:06:22.351Z</time>
      </trkpt>
      <trkpt lat="48.57781" lon="1.97511">
        <ele>111.707</ele>
        <time>2016-03-24T13:06:29.794Z</time>
      </trkpt>
      <trkpt lat="48.5778" lon="1.97497">
        <ele>111.83</ele>
        <time>2016-03-24T13:06:36.407Z</time>
      </trkpt>
      <trkpt lat="48.57778" lon="1.97483">
        <ele>112.032</ele>
        <time>2016-03-24T13:06:43.830Z</time>
      </trkpt>
      <trkpt lat="48.57778" lon="1.97469">
        <ele>112.308</ele>
        <time>2016-03-24T13:06:51.465Z</time>
      </trkpt>
      <trkpt lat="48.57778" lon="1.97455">
        <ele>112.603</ele>
        <time>2016-03-24T13:07:00.288Z</time>
      </trkpt>
      <trkpt lat="48.57776" lon="1.97442">
        <ele>112.903</ele>
        <time>2016-03-24T13:07:09.882Z</time>
      </trkpt>
      <trkpt lat="48.57773" lon="1.97429">
        <ele>113.191</ele>
        <time>2016-03-24T13:07:18.310Z</time>
      </trkpt>
      <trkpt lat="48.57772" lon="1.97413">
        <ele>113.372</ele>
        <time>2016-03-24T13:07:26.394Z</time>
      </trkpt>
      <trkpt lat="48.5777" lon="1.97399">
        <ele>113.412</ele>
        <time>2016-03-24T13:07:33.402Z</time>
      </trkpt>
      <trkpt lat="48.57765" lon="1.97385">
        <ele>113.376</ele>
        <time>2016-03-24T13:07:40.314Z</time>
      </trkpt>
      <trkpt lat="48.57764" lon="1.97371">
        <ele>113.345</ele>
        <time>2016-03-24T13:07:48.235Z</time>
      </trkpt>
      <trkpt lat="48.57764" lon="1.97356">
        <ele>113.348</ele>
        <time>2016-03-24T13:07:57.040Z</time>
      </trkpt>
      <trkpt lat="48.57763" lon="1.97343">
        <ele>113.419</ele>
        <time>2016-03-24T13:08:05.361Z</time>
      </trkpt>
      <trkpt lat="48.57762" lon="1.97328">
        <ele>113.623</ele>
        <time>2016-03-24T13:08:13.401Z</time>
      </trkpt>
      <trkpt lat="48.57759" lon="1.97314">
        <ele>113.932</ele>
        <time>2016-03-24T13:08:21.624Z</time>
      </trkpt>
      <trkpt lat="48.57757" lon="1.973">
        <ele>114.263</ele>
        <time>2016-03-24T13:08:29.236Z</time>
      </trkpt>
      <trkpt lat="48.57754" lon="1.97287">
        <ele>114.56</ele>
        <time>2016-03-24T13:08:37.246Z</time>
      </trkpt>
      <trkpt lat="48.57752" lon="1.97272">
        <ele>114.779</ele>
        <time>2016-03-24T13:08:45.869Z</time>
      </trkpt>
      <trkpt lat="48.5775" lon="1.97258">
        <ele>114.901</ele>
        <time>2016-03-24T13:08:53.880Z</time>
      </trkpt>
      <trkpt lat="48.57748" lon="1.97243">
        <ele>114.913</ele>
        <time>2016-03-24T13:09:02.090Z</time>
      </trkpt>
      <trkpt lat="48.57746" lon="1.97229">
        <ele>114.788</ele>
        <time>2016-03-24T13:09:09.831Z</time>
      </trkpt>
      <trkpt lat="48.57743" lon="1.97215">
        <ele>114.566</ele>
        <time>2016-03-24T13:09:17.830Z</time>
      </trkpt>
      <trkpt lat="48.57742" lon="1.97201">
        <ele>114.324</ele>
        <time>2016-03-24T13:09:25.623Z</time>
      </trkpt>
      <trkpt lat="48.5774" lon="1.97187">
        <ele>114.066</ele>
        <time>2016-03-24T13:09:32.965Z</time>
      </trkpt>
      <trkpt lat="48.57739" lon="1.97173">
        <ele>113.776</ele>
        <time>2016-03-24T13:09:40.635Z</time>
      </trkpt>
      <trkpt lat="48.57736" lon="1.97158">
        <ele>113.458</ele>
        <time>2016-03-24T13:09:48.755Z</time>
      </trkpt>
      <trkpt lat="48.57734" lon="1.97144">
        <ele>113.144</ele>
        <time>2016-03-24T13:09:56.537Z</time>
      </trkpt>
      <trkpt lat="48.57731" lon="1.9713">
        <ele>112.911</ele>
        <time>2016-03-24T13:10:04.325Z</time>
      </trkpt>
      <trkpt lat="48.57729" lon="1.97117">
        <ele>112.79</ele>
        <time>2016-03-24T13:10:12.057Z</time>
      </trkpt>
      <trkpt lat="48.57726" lon="1.97104">
        <ele>112.71</ele>
        <time>2016-03-24T13:10:19.959Z</time>
      </trkpt>
      <trkpt lat="48.57726" lon="1.9709">
        <ele>112.601</ele>
        <time>2016-03-24T13:10:27.811Z</time>
      </trkpt>
      <trkpt lat="48.57722" lon="1.97077">
        <ele>112.452</ele>
        <time>2016-03-24T13:10:36.086Z</time>
      </trkpt>
      <trkpt lat="48.57719" lon="1.97063">
        <ele>112.287</ele>
        <time>2016-03-24T13:10:43.932Z</time>
      </trkpt>
      <trkpt lat="48.57715" lon="1.9705">
        <ele>112.114</ele>
        <time>2016-03-24T13:10:51.322Z</time>
      </trkpt>
      <trkpt lat="48.5771" lon="1.97038">
        <ele>111.954</ele>
        <time>2016-03-24T13:10:58.953Z</time>
      </trkpt>
      <trkpt lat="48.57706" lon="1.97025">
        <ele>111.845</ele>
        <time>2016-03-24T13:11:06.637Z</time>
      </trkpt>
      <trkpt lat="48.577" lon="1.97012">
        <ele>111.765</ele>
        <time>2016-03-24T13:11:14.512Z</time>
      </trkpt>
      <trkpt lat="48.57695" lon="1.97">
        <ele>111.624</ele>
        <time>2016-03-24T13:11:22.615Z</time>
      </trkpt>
      <trkpt lat="48.57691" lon="1.96987">
        <ele>111.36</ele>
        <time>2016-03-24T13:11:30.209Z</time>
      </trkpt>
      <trkpt lat="48.57687" lon="1.96975">
        <ele>110.979</ele>
        <time>2016-03-24T13:11:37.948Z</time>
      </trkpt>
      <trkpt lat="48.57682" lon="1.96962">
        <ele>110.545</ele>
        <time>2016-03-24T13:11:46.710Z</time>
      </trkpt>
      <trkpt lat="48.57678" lon="1.9695">
        <ele>110.121</ele>
        <time>2016-03-24T13:11:55.005Z</time>
      </trkpt>
      <trkpt lat="48.57674" lon="1.96936">
        <ele>109.746</ele>
        <time>2016-03-24T13:12:03.255Z</time>
      </trkpt>
      <trkpt lat="48.57669" lon="1.96923">
        <ele>109.433</ele>
        <time>2016-03-24T13:12:11.019Z</time>
      </trkpt>
      <trkpt lat="48.57667" lon="1.9691">
        <ele>109.103</ele>
        <time>2016-03-24T13:12:18.756Z</time>
      </trkpt>
      <trkpt lat="48.57664" lon="1.96896">
        <ele>108.724</ele>
        <time>2016-03-24T13:12:27.103Z</time>
      </trkpt>
      <trkpt lat="48.57662" lon="1.96882">
        <ele>108.433</ele>
        <time>2016-03-24T13:12:34.822Z</time>
      </trkpt>
      <trkpt lat="48.57661" lon="1.96867">
        <ele>108.292</ele>
        <time>2016-03-24T13:12:42.967Z</time>
      </trkpt>
      <trkpt lat="48.57659" lon="1.96853">
        <ele>108.197</ele>
        <time>2016-03-24T13:12:50.715Z</time>
      </trkpt>
      <trkpt lat="48.57656" lon="1.96841">
        <ele>108.055</ele>
        <time>2016-03-24T13:12:58.554Z</time>
      </trkpt>
      <trkpt lat="48.5765" lon="1.96828">
        <ele>107.794</ele>
        <time>2016-03-24T13:13:07.141Z</time>
      </trkpt>
      <trkpt lat="48.57646" lon="1.96814">
        <ele>107.389</ele>
        <time>2016-03-24T13:13:15.781Z</time>
      </trkpt>
      <trkpt lat="48.57643" lon="1.968">
        <ele>106.914</ele>
        <time>2016-03-24T13:13:23.767Z</time>
      </trkpt>
      <trkpt lat="48.5764" lon="1.96787">
        <ele>106.515</ele>
        <time>2016-03-24T13:13:31.321Z</time>
      </trkpt>
      <trkpt lat="48.57638" lon="1.96773">
        <ele>106.275</ele>
        <time>2016-03-24T13:13:38.793Z</time>
      </trkpt>
      <trkpt lat="48.57636" lon="1.96759">
        <ele>106.187</ele>
        <time>2016-03-24T13:13:46.953Z</time>
      </trkpt>
      <trkpt lat="48.57634" lon="1.96745">
        <ele>106.249</ele>
        <time>2016-03-24T13:13:55.265Z</time>
      </trkpt>
      <trkpt lat="48.57633" lon="1.96731">
        <ele>106.436</ele>
        <time>2016-03-24T13:14:03.202Z</time>
      </trkpt>
      <trkpt lat="48.57631" lon="1.96716">
        <ele>106.7</ele>
        <time>2016-03-24T13:14:11.154Z</time>
      </trkpt>
      <trkpt lat="48.5763" lon="1.96703">
        <ele>107.054</ele>
        <time>2016-03-24T13:14:18.785Z</time>
      </trkpt>
      <trkpt lat="48.57628" lon="1.96689">
        <ele>107.484</ele>
        <time>2016-03-24T13:14:26.378Z</time>
      </trkpt>
      <trkpt lat="48.57626" lon="1.96676">
        <ele>107.92</ele>
        <time>2016-03-24T13:14:33.925Z</time>
      </trkpt>
      <trkpt lat="48.57625" lon="1.96663">
        <ele>108.274</ele>
        <time>2016-03-24T13:14:41.679Z</time>
      </trkpt>
      <trkpt lat="48.57623" lon="1.96648">
        <ele>108.466</ele>
        <time>2016-03-24T13:14:49.928Z</time>
      </trkpt>
      <trkpt lat="48.5762" lon="1.96633">
        <ele>108.499</ele>
        <time>2016-03-24T13:14:58.038Z</time>
      </trkpt>
      <trkpt lat="48.57617" lon="1.96619">
        <ele>108.478</ele>
        <time>2016-03-24T13:15:06.000Z</time>
      </trkpt>
      <trkpt lat="48.57617" lon="1.96619">
        <ele>108.477</ele>
        <time>2016-03-24T13:15:14.000Z</time>
      </trkpt>
      <trkpt lat="48.57617" lon="1.96619">
        <ele>108.473</ele>
        <time>2016-03-24T13:15:45.769Z</time>
      </trkpt>
      <trkpt lat="48.57613" lon="1.96604">
        <ele>108.43</ele>
        <time>2016-03-24T13:16:03.126Z</time>
      </trkpt>
      <trkpt lat="48.57605" lon="1.96608">
        <ele>108.375</ele>
        <time>2016-03-24T13:16:13.788Z</time>
      </trkpt>
      <trkpt lat="48.57595" lon="1.9661">
        <ele>108.239</ele>
        <time>2016-03-24T13:16:23.928Z</time>
      </trkpt>
      <trkpt lat="48.57586" lon="1.96611">
        <ele>107.83</ele>
        <time>2016-03-24T13:16:32.240Z</time>
      </trkpt>
      <trkpt lat="48.57577" lon="1.96611">
        <ele>107.126</ele>
        <time>2016-03-24T13:16:40.391Z</time>
      </trkpt>
      <trkpt lat="48.57568" lon="1.96615">
        <ele>106.366</ele>
        <time>2016-03-24T13:16:48.495Z</time>
      </trkpt>
      <trkpt lat="48.57559" lon="1.96617">
        <ele>105.756</ele>
        <time>2016-03-24T13:16:56.137Z</time>
      </trkpt>
      <trkpt lat="48.57549" lon="1.96619">
        <ele>105.334</ele>
        <time>2016-03-24T13:17:03.694Z</time>
      </trkpt>
      <trkpt lat="48.57541" lon="1.96611">
        <ele>105.07</ele>
        <time>2016-03-24T13:17:11.183Z</time>
      </trkpt>
      <trkpt lat="48.57536" lon="1.96598">
        <ele>104.934</ele>
        <time>2016-03-24T13:17:18.920Z</time>
      </trkpt>
      <trkpt lat="48.57531" lon="1.96584">
        <ele>104.898</ele>
        <time>2016-03-24T13:17:26.120Z</time>
      </trkpt>
      <trkpt lat="48.57527" lon="1.96572">
        <ele>104.934</ele>
        <time>2016-03-24T13:17:33.132Z</time>
      </trkpt>
      <trkpt lat="48.57522" lon="1.96559">
        <ele>104.987</ele>
        <time>2016-03-24T13:17:40.839Z</time>
      </trkpt>
      <trkpt lat="48.57518" lon="1.96547">
        <ele>105.023</ele>
        <time>2016-03-24T13:17:48.363Z</time>
      </trkpt>
      <trkpt lat="48.57513" lon="1.96534">
        <ele>105.051</ele>
        <time>2016-03-24T13:17:56.740Z</time>
      </trkpt>
      <trkpt lat="48.5751" lon="1.96521">
        <ele>105.137</ele>
        <time>2016-03-24T13:18:05.994Z</time>
      </trkpt>
      <trkpt lat="48.57504" lon="1.96509">
        <ele>105.311</ele>
        <time>2016-03-24T13:18:14.507Z</time>
      </trkpt>
      <trkpt lat="48.57498" lon="1.96497">
        <ele>105.493</ele>
        <time>2016-03-24T13:18:22.511Z</time>
      </trkpt>
      <trkpt lat="48.57493" lon="1.96483">
        <ele>105.601</ele>
        <time>2016-03-24T13:18:30.083Z</time>
      </trkpt>
      <trkpt lat="48.57489" lon="1.96471">
        <ele>105.641</ele>
        <time>2016-03-24T13:18:37.578Z</time>
      </trkpt>
      <trkpt lat="48.57485" lon="1.96458">
        <ele>105.668</ele>
        <time>2016-03-24T13:18:45.784Z</time>
      </trkpt>
      <trkpt lat="48.5748" lon="1.96446">
        <ele>105.759</ele>
        <time>2016-03-24T13:18:53.542Z</time>
      </trkpt>
      <trkpt lat="48.57477" lon="1.96432">
        <ele>105.9</ele>
        <time>2016-03-24T13:19:01.697Z</time>
      </trkpt>
      <trkpt lat="48.57475" lon="1.96417">
        <ele>105.887</ele>
        <time>2016-03-24T13:19:09.670Z</time>
      </trkpt>
      <trkpt lat="48.57471" lon="1.96405">
        <ele>105.614</ele>
        <time>2016-03-24T13:19:17.354Z</time>
      </trkpt>
      <trkpt lat="48.5747" lon="1.96391">
        <ele>105.299</ele>
        <time>2016-03-24T13:19:24.689Z</time>
      </trkpt>
      <trkpt lat="48.57472" lon="1.96376">
        <ele>105.165</ele>
        <time>2016-03-24T13:19:32.105Z</time>
      </trkpt>
      <trkpt lat="48.57475" lon="1.96361">
        <ele>105.2</ele>
        <time>2016-03-24T13:19:39.725Z</time>
      </trkpt>
      <trkpt lat="48.57477" lon="1.96347">
        <ele>105.324</ele>
        <time>2016-03-24T13:19:47.613Z</time>
      </trkpt>
      <trkpt lat="48.57478" lon="1.96333">
        <ele>105.456</ele>
        <time>2016-03-24T13:19:55.954Z</time>
      </trkpt>
      <trkpt lat="48.57479" lon="1.96318">
        <ele>105.552</ele>
        <time>2016-03-24T13:20:04.591Z</time>
      </trkpt>
      <trkpt lat="48.57479" lon="1.96304">
        <ele>105.609</ele>
        <time>2016-03-24T13:20:12.405Z</time>
      </trkpt>
      <trkpt lat="48.5748" lon="1.96289">
        <ele>105.654</ele>
        <time>2016-03-24T13:20:20.165Z</time>
      </trkpt>
      <trkpt lat="48.57481" lon="1.96274">
        <ele>105.711</ele>
        <time>2016-03-24T13:20:28.177Z</time>
      </trkpt>
      <trkpt lat="48.57482" lon="1.96259">
        <ele>105.763</ele>
        <time>2016-03-24T13:20:35.899Z</time>
      </trkpt>
      <trkpt lat="48.57482" lon="1.96245">
        <ele>105.814</ele>
        <time>2016-03-24T13:20:43.210Z</time>
      </trkpt>
      <trkpt lat="48.57482" lon="1.9623">
        <ele>105.89</ele>
        <time>2016-03-24T13:20:50.896Z</time>
      </trkpt>
      <trkpt lat="48.57482" lon="1.96216">
        <ele>105.962</ele>
        <time>2016-03-24T13:20:58.748Z</time>
      </trkpt>
      <trkpt lat="48.57482" lon="1.96202">
        <ele>106.001</ele>
        <time>2016-03-24T13:21:06.493Z</time>
      </trkpt>
      <trkpt lat="48.57481" lon="1.96187">
        <ele>106.025</ele>
        <time>2016-03-24T13:21:14.939Z</time>
      </trkpt>
      <trkpt lat="48.5748" lon="1.96173">
        <ele>106.04</ele>
        <time>2016-03-24T13:21:23.259Z</time>
      </trkpt>
      <trkpt lat="48.5748" lon="1.96158">
        <ele>106.047</ele>
        <time>2016-03-24T13:21:31.429Z</time>
      </trkpt>
      <trkpt lat="48.57479" lon="1.96143">
        <ele>106.05</ele>
        <time>2016-03-24T13:21:39.470Z</time>
      </trkpt>
      <trkpt lat="48.57478" lon="1.96129">
        <ele>106.053</ele>
        <time>2016-03-24T13:21:47.282Z</time>
      </trkpt>
      <trkpt lat="48.57475" lon="1.96115">
        <ele>106.064</ele>
        <time>2016-03-24T13:21:55.325Z</time>
      </trkpt>
      <trkpt lat="48.57472" lon="1.96102">
        <ele>106.083</ele>
        <time>2016-03-24T13:22:02.893Z</time>
      </trkpt>
      <trkpt lat="48.57469" lon="1.96089">
        <ele>106.111</ele>
        <time>2016-03-24T13:22:10.257Z</time>
      </trkpt>
      <trkpt lat="48.57466" lon="1.96075">
        <ele>106.153</ele>
        <time>2016-03-24T13:22:18.271Z</time>
      </trkpt>
      <trkpt lat="48.57464" lon="1.96061">
        <ele>106.233</ele>
        <time>2016-03-24T13:22:25.826Z</time>
      </trkpt>
      <trkpt lat="48.57463" lon="1.96047">
        <ele>106.318</ele>
        <time>2016-03-24T13:22:33.434Z</time>
      </trkpt>
      <trkpt lat="48.57462" lon="1.96033">
        <ele>106.328</ele>
        <time>2016-03-24T13:22:40.822Z</time>
      </trkpt>
      <trkpt lat="48.57461" lon="1.96019">
        <ele>106.255</ele>
        <time>2016-03-24T13:22:48.629Z</time>
      </trkpt>
      <trkpt lat="48.57459" lon="1.96004">
        <ele>106.164</ele>
        <time>2016-03-24T13:22:56.965Z</time>
      </trkpt>
      <trkpt lat="48.57457" lon="1.9599">
        <ele>106.105</ele>
        <time>2016-03-24T13:23:05.214Z</time>
      </trkpt>
      <trkpt lat="48.57457" lon="1.95975">
        <ele>106.086</ele>
        <time>2016-03-24T13:23:13.795Z</time>
      </trkpt>
      <trkpt lat="48.57457" lon="1.95961">
        <ele>106.08</ele>
        <time>2016-03-24T13:23:22.411Z</time>
      </trkpt>
      <trkpt lat="48.57456" lon="1.95947">
        <ele>106.067</ele>
        <time>2016-03-24T13:23:31.841Z</time>
      </trkpt>
      <trkpt lat="48.57457" lon="1.95932">
        <ele>106.059</ele>
        <time>2016-03-24T13:23:40.285Z</time>
      </trkpt>
      <trkpt lat="48.57457" lon="1.95918">
        <ele>106.082</ele>
        <time>2016-03-24T13:23:48.566Z</time>
      </trkpt>
      <trkpt lat="48.57453" lon="1.95905">
        <ele>106.128</ele>
        <time>2016-03-24T13:23:56.149Z</time>
      </trkpt>
      <trkpt lat="48.57452" lon="1.9589">
        <ele>106.192</ele>
        <time>2016-03-24T13:24:04.189Z</time>
      </trkpt>
      <trkpt lat="48.5745" lon="1.95875">
        <ele>106.288</ele>
        <time>2016-03-24T13:24:12.153Z</time>
      </trkpt>
      <trkpt lat="48.5745" lon="1.95861">
        <ele>106.438</ele>
        <time>2016-03-24T13:24:19.525Z</time>
      </trkpt>
      <trkpt lat="48.57449" lon="1.95846">
        <ele>106.626</ele>
        <time>2016-03-24T13:24:27.519Z</time>
      </trkpt>
      <trkpt lat="48.57447" lon="1.95831">
        <ele>106.793</ele>
        <time>2016-03-24T13:24:35.942Z</time>
      </trkpt>
      <trkpt lat="48.5745" lon="1.95818">
        <ele>106.946</ele>
        <time>2016-03-24T13:24:44.012Z</time>
      </trkpt>
      <trkpt lat="48.57455" lon="1.95804">
        <ele>107.215</ele>
        <time>2016-03-24T13:24:52.997Z</time>
      </trkpt>
      <trkpt lat="48.57455" lon="1.95804">
        <ele>107.594</ele>
        <time>2016-03-24T13:25:03.997Z</time>
      </trkpt>
      <trkpt lat="48.57455" lon="1.95804">
        <ele>107.825</ele>
        <time>2016-03-24T13:25:28.861Z</time>
      </trkpt>
      <trkpt lat="48.5746" lon="1.9577">
        <ele>107.768</ele>
        <time>2016-03-24T13:26:07.558Z</time>
      </trkpt>
      <trkpt lat="48.57464" lon="1.95757">
        <ele>107.791</ele>
        <time>2016-03-24T13:26:17.042Z</time>
      </trkpt>
      <trkpt lat="48.57465" lon="1.95742">
        <ele>108.192</ele>
        <time>2016-03-24T13:26:26.460Z</time>
      </trkpt>
      <trkpt lat="48.57466" lon="1.95728">
        <ele>108.73</ele>
        <time>2016-03-24T13:26:34.754Z</time>
      </trkpt>
      <trkpt lat="48.57465" lon="1.95714">
        <ele>109.061</ele>
        <time>2016-03-24T13:26:42.813Z</time>
      </trkpt>
      <trkpt lat="48.57463" lon="1.95699">
        <ele>109.121</ele>
        <time>2016-03-24T13:26:51.748Z</time>
      </trkpt>
      <trkpt lat="48.57456" lon="1.9569">
        <ele>109.012</ele>
        <time>2016-03-24T13:27:00.518Z</time>
      </trkpt>
      <trkpt lat="48.57448" lon="1.95681">
        <ele>108.836</ele>
        <time>2016-03-24T13:27:08.831Z</time>
      </trkpt>
      <trkpt lat="48.57439" lon="1.95674">
        <ele>108.56</ele>
        <time>2016-03-24T13:27:17.510Z</time>
      </trkpt>
      <trkpt lat="48.57431" lon="1.95666">
        <ele>108.077</ele>
        <time>2016-03-24T13:27:25.638Z</time>
      </trkpt>
      <trkpt lat="48.57423" lon="1.95659">
        <ele>107.447</ele>
        <time>2016-03-24T13:27:34.669Z</time>
      </trkpt>
      <trkpt lat="48.57415" lon="1.95651">
        <ele>106.951</ele>
        <time>2016-03-24T13:27:44.927Z</time>
      </trkpt>
      <trkpt lat="48.57409" lon="1.95639">
        <ele>106.727</ele>
        <time>2016-03-24T13:27:55.199Z</time>
      </trkpt>
      <trkpt lat="48.57403" lon="1.95628">
        <ele>106.638</ele>
        <time>2016-03-24T13:28:03.479Z</time>
      </trkpt>
      <trkpt lat="48.57398" lon="1.95616">
        <ele>106.566</ele>
        <time>2016-03-24T13:28:11.870Z</time>
      </trkpt>
      <trkpt lat="48.57393" lon="1.95604">
        <ele>106.544</ele>
        <time>2016-03-24T13:28:20.000Z</time>
      </trkpt>
      <trkpt lat="48.57393" lon="1.95604">
        <ele>106.62</ele>
        <time>2016-03-24T13:28:29.000Z</time>
      </trkpt>
      <trkpt lat="48.57393" lon="1.95604">
        <ele>106.685</ele>
        <time>2016-03-24T13:28:29.100Z</time>
      </trkpt>
      <trkpt lat="48.57388" lon="1.9559">
        <ele>106.631</ele>
        <time>2016-03-24T13:29:00.978Z</time>
      </trkpt>
      <trkpt lat="48.57385" lon="1.95577">
        <ele>106.46</ele>
        <time>2016-03-24T13:29:09.328Z</time>
      </trkpt>
      <trkpt lat="48.57381" lon="1.95563">
        <ele>106.237</ele>
        <time>2016-03-24T13:29:17.330Z</time>
      </trkpt>
      <trkpt lat="48.5738" lon="1.95549">
        <ele>106.064</ele>
        <time>2016-03-24T13:29:24.735Z</time>
      </trkpt>
      <trkpt lat="48.57377" lon="1.95535">
        <ele>105.946</ele>
        <time>2016-03-24T13:29:32.711Z</time>
      </trkpt>
      <trkpt lat="48.57374" lon="1.95521">
        <ele>105.811</ele>
        <time>2016-03-24T13:29:40.287Z</time>
      </trkpt>
      <trkpt lat="48.5737" lon="1.95507">
        <ele>105.713</ele>
        <time>2016-03-24T13:29:48.761Z</time>
      </trkpt>
      <trkpt lat="48.57368" lon="1.95493">
        <ele>105.746</ele>
        <time>2016-03-24T13:29:56.734Z</time>
      </trkpt>
      <trkpt lat="48.57363" lon="1.9548">
        <ele>105.892</ele>
        <time>2016-03-24T13:30:05.671Z</time>
      </trkpt>
      <trkpt lat="48.57359" lon="1.95467">
        <ele>106.055</ele>
        <time>2016-03-24T13:30:13.552Z</time>
      </trkpt>
      <trkpt lat="48.57352" lon="1.95457">
        <ele>106.173</ele>
        <time>2016-03-24T13:30:20.945Z</time>
      </trkpt>
      <trkpt lat="48.57345" lon="1.95447">
        <ele>106.259</ele>
        <time>2016-03-24T13:30:29.325Z</time>
      </trkpt>
      <trkpt lat="48.57339" lon="1.95437">
        <ele>106.347</ele>
        <time>2016-03-24T13:30:37.946Z</time>
      </trkpt>
      <trkpt lat="48.5733" lon="1.95431">
        <ele>106.469</ele>
        <time>2016-03-24T13:30:45.963Z</time>
      </trkpt>
      <trkpt lat="48.57322" lon="1.95422">
        <ele>106.621</ele>
        <time>2016-03-24T13:30:54.337Z</time>
      </trkpt>
      <trkpt lat="48.57317" lon="1.95409">
        <ele>106.665</ele>
        <time>2016-03-24T13:31:03.320Z</time>
      </trkpt>
      <trkpt lat="48.57313" lon="1.95396">
        <ele>106.522</ele>
        <time>2016-03-24T13:31:14.206Z</time>
      </trkpt>
      <trkpt lat="48.57304" lon="1.95393">
        <ele>106.335</ele>
        <time>2016-03-24T13:31:28.496Z</time>
      </trkpt>
      <trkpt lat="48.57295" lon="1.95398">
        <ele>106.249</ele>
        <time>2016-03-24T13:31:41.150Z</time>
      </trkpt>
      <trkpt lat="48.57286" lon="1.95398">
        <ele>106.239</ele>
        <time>2016-03-24T13:31:50.534Z</time>
      </trkpt>
      <trkpt lat="48.57278" lon="1.9539">
        <ele>106.239</ele>
        <time>2016-03-24T13:31:59.094Z</time>
      </trkpt>
      <trkpt lat="48.57272" lon="1.95378">
        <ele>106.223</ele>
        <time>2016-03-24T13:32:07.221Z</time>
      </trkpt>
      <trkpt lat="48.57265" lon="1.95367">
        <ele>106.193</ele>
        <time>2016-03-24T13:32:15.140Z</time>
      </trkpt>
      <trkpt lat="48.5726" lon="1.95355">
        <ele>106.153</ele>
        <time>2016-03-24T13:32:23.419Z</time>
      </trkpt>
      <trkpt lat="48.57255" lon="1.95343">
        <ele>106.188</ele>
        <time>2016-03-24T13:32:31.152Z</time>
      </trkpt>
      <trkpt lat="48.57251" lon="1.95329">
        <ele>106.369</ele>
        <time>2016-03-24T13:32:38.416Z</time>
      </trkpt>
      <trkpt lat="48.57247" lon="1.95315">
        <ele>106.61</ele>
        <time>2016-03-24T13:32:45.821Z</time>
      </trkpt>
      <trkpt lat="48.57246" lon="1.953">
        <ele>106.799</ele>
        <time>2016-03-24T13:32:53.098Z</time>
      </trkpt>
      <trkpt lat="48.57245" lon="1.95287">
        <ele>106.93</ele>
        <time>2016-03-24T13:32:59.541Z</time>
      </trkpt>
      <trkpt lat="48.57243" lon="1.95273">
        <ele>107.078</ele>
        <time>2016-03-24T13:33:06.844Z</time>
      </trkpt>
      <trkpt lat="48.5724" lon="1.95259">
        <ele>107.293</ele>
        <time>2016-03-24T13:33:15.366Z</time>
      </trkpt>
      <trkpt lat="48.5724" lon="1.95245">
        <ele>107.57</ele>
        <time>2016-03-24T13:33:24.274Z</time>
      </trkpt>
      <trkpt lat="48.57239" lon="1.95231">
        <ele>107.892</ele>
        <time>2016-03-24T13:33:33.108Z</time>
      </trkpt>
      <trkpt lat="48.57237" lon="1.95216">
        <ele>108.201</ele>
        <time>2016-03-24T13:33:42.343Z</time>
      </trkpt>
      <trkpt lat="48.57237" lon="1.95201">
        <ele>108.423</ele>
        <time>2016-03-24T13:33:51.907Z</time>
      </trkpt>
      <trkpt lat="48.57237" lon="1.95187">
        <ele>108.547</ele>
        <time>2016-03-24T13:34:00.634Z</time>
      </trkpt>
      <trkpt lat="48.57234" lon="1.95174">
        <ele>108.601</ele>
        <time>2016-03-24T13:34:09.499Z</time>
      </trkpt>
      <trkpt lat="48.57229" lon="1.95162">
        <ele>108.627</ele>
        <time>2016-03-24T13:34:18.712Z</time>
      </trkpt>
      <trkpt lat="48.57222" lon="1.95154">
        <ele>108.682</ele>
        <time>2016-03-24T13:34:27.170Z</time>
      </trkpt>
      <trkpt lat="48.57214" lon="1.95146">
        <ele>108.803</ele>
        <time>2016-03-24T13:34:35.964Z</time>
      </trkpt>
      <trkpt lat="48.57205" lon="1.95141">
        <ele>108.94</ele>
        <time>2016-03-24T13:34:45.263Z</time>
      </trkpt>
      <trkpt lat="48.57196" lon="1.95143">
        <ele>109.071</ele>
        <time>2016-03-24T13:34:55.773Z</time>
      </trkpt>
      <trkpt lat="48.57187" lon="1.95147">
        <ele>109.228</ele>
        <time>2016-03-24T13:35:05.953Z</time>
      </trkpt>
      <trkpt lat="48.57177" lon="1.9515">
        <ele>109.419</ele>
        <time>2016-03-24T13:35:15.846Z</time>
      </trkpt>
      <trkpt lat="48.57168" lon="1.95151">
        <ele>109.629</ele>
        <time>2016-03-24T13:35:24.812Z</time>
      </trkpt>
      <trkpt lat="48.57158" lon="1.9515">
        <ele>109.865</ele>
        <time>2016-03-24T13:35:34.220Z</time>
      </trkpt>
      <trkpt lat="48.57149" lon="1.95147">
        <ele>110.133</ele>
        <time>2016-03-24T13:35:43.020Z</time>
      </trkpt>
      <trkpt lat="48.5714" lon="1.95142">
        <ele>110.381</ele>
        <time>2016-03-24T13:35:50.991Z</time>
      </trkpt>
      <trkpt lat="48.57134" lon="1.95132">
        <ele>110.552</ele>
        <time>2016-03-24T13:35:58.689Z</time>
      </trkpt>
      <trkpt lat="48.5713" lon="1.95119">
        <ele>110.765</ele>
        <time>2016-03-24T13:36:05.993Z</time>
      </trkpt>
      <trkpt lat="48.57126" lon="1.95106">
        <ele>111.085</ele>
        <time>2016-03-24T13:36:14.449Z</time>
      </trkpt>
      <trkpt lat="48.5712" lon="1.95094">
        <ele>111.351</ele>
        <time>2016-03-24T13:36:23.592Z</time>
      </trkpt>
      <trkpt lat="48.57114" lon="1.95083">
        <ele>111.431</ele>
        <time>2016-03-24T13:36:32.754Z</time>
      </trkpt>
      <trkpt lat="48.57111" lon="1.9507">
        <ele>111.397</ele>
        <time>2016-03-24T13:36:41.261Z</time>
      </trkpt>
      <trkpt lat="48.57106" lon="1.95058">
        <ele>111.319</ele>
        <time>2016-03-24T13:36:50.197Z</time>
      </trkpt>
      <trkpt lat="48.57097" lon="1.95059">
        <ele>111.209</ele>
        <time>2016-03-24T13:37:00.042Z</time>
      </trkpt>
      <trkpt lat="48.57088" lon="1.95063">
        <ele>111.098</ele>
        <time>2016-03-24T13:37:10.489Z</time>
      </trkpt>
      <trkpt lat="48.57079" lon="1.95067">
        <ele>111.026</ele>
        <time>2016-03-24T13:37:20.677Z</time>
      </trkpt>
      <trkpt lat="48.5707" lon="1.95064">
        <ele>110.999</ele>
        <time>2016-03-24T13:37:30.491Z</time>
      </trkpt>
      <trkpt lat="48.57062" lon="1.95055">
        <ele>110.996</ele>
        <time>2016-03-24T13:37:39.569Z</time>
      </trkpt>
      <trkpt lat="48.57055" lon="1.95046">
        <ele>110.995</ele>
        <time>2016-03-24T13:37:48.777Z</time>
      </trkpt>
      <trkpt lat="48.57048" lon="1.95035">
        <ele>111.023</ele>
        <time>2016-03-24T13:38:00.000Z</time>
      </trkpt>
      <trkpt lat="48.57048" lon="1.95035">
        <ele>111.1</ele>
        <time>2016-03-24T13:38:00.000Z</time>
      </trkpt>
      <trkpt lat="48.57048" lon="1.95035">
        <ele>111.148</ele>
        <time>2016-03-24T13:38:20.542Z</time>
      </trkpt>
      <trkpt lat="48.57046" lon="1.95022">
        <ele>111.019</ele>
        <time>2016-03-24T13:39:07.194Z</time>
      </trkpt>
      <trkpt lat="48.5705" lon="1.95008">
        <ele>110.938</ele>
        <time>2016-03-24T13:39:18.773Z</time>
      </trkpt>
      <trkpt lat="48.57054" lon="1.94995">
        <ele>110.822</ele>
        <time>2016-03-24T13:39:28.305Z</time>
      </trkpt>
      <trkpt lat="48.57059" lon="1.94983">
        <ele>110.56</ele>
        <time>2016-03-24T13:39:36.610Z</time>
      </trkpt>
      <trkpt lat="48.57065" lon="1.94972">
        <ele>110.11</ele>
        <time>2016-03-24T13:39:44.517Z</time>
      </trkpt>
      <trkpt lat="48.5707" lon="1.9496">
        <ele>109.671</ele>
        <time>2016-03-24T13:39:52.636Z</time>
      </trkpt>
      <trkpt lat="48.57076" lon="1.9495">
        <ele>109.457</ele>
        <time>2016-03-24T13:40:01.373Z</time>
      </trkpt>
      <trkpt lat="48.57082" lon="1.9494">
        <ele>109.474</ele>
        <time>2016-03-24T13:40:10.198Z</time>
      </trkpt>
      <trkpt lat="48.57089" lon="1.94929">
        <ele>109.647</ele>
        <time>2016-03-24T13:40:19.571Z</time>
      </trkpt>
      <trkpt lat="48.57097" lon="1.9492">
        <ele>109.903</ele>
        <time>2016-03-24T13:40:28.288Z</time>
      </trkpt>
      <trkpt lat="48.57104" lon="1.94912">
        <ele>110.162</ele>
        <time>2016-03-24T13:40:35.992Z</time>
      </trkpt>
      <trkpt lat="48.57112" lon="1.94904">
        <ele>110.318</ele>
        <time>2016-03-24T13:40:44.000Z</time>
      </trkpt>
      <trkpt lat="48.57112" lon="1.94904">
        <ele>110.329</ele>
        <time>2016-03-24T13:40:52.999Z</time>
      </trkpt>
      <trkpt lat="48.57112" lon="1.94904">
        <ele>110.271</ele>
        <time>2016-03-24T13:40:53.580Z</time>
      </trkpt>
      <trkpt lat="48.57128" lon="1.94901">
        <ele>110.217</ele>
        <time>2016-03-24T13:41:18.194Z</time>
      </trkpt>
      <trkpt lat="48.57138" lon="1.94902">
        <ele>110.117</ele>
        <time>2016-03-24T13:41:28.433Z</time>
      </trkpt>
      <trkpt lat="48.57144" lon="1.94911">
        <ele>109.922</ele>
        <time>2016-03-24T13:41:38.129Z</time>
      </trkpt>
      <trkpt lat="48.57152" lon="1.94921">
        <ele>109.686</ele>
        <time>2016-03-24T13:41:48.628Z</time>
      </trkpt>
      <trkpt lat="48.57158" lon="1.94932">
        <ele>109.454</ele>
        <time>2016-03-24T13:41:57.982Z</time>
      </trkpt>
      <trkpt lat="48.57165" lon="1.94941">
        <ele>109.226</ele>
        <time>2016-03-24T13:42:06.623Z</time>
      </trkpt>
      <trkpt lat="48.57173" lon="1.9495">
        <ele>109.047</ele>
        <time>2016-03-24T13:42:16.032Z</time>
      </trkpt>
      <trkpt lat="48.57181" lon="1.94956">
        <ele>108.979</ele>
        <time>2016-03-24T13:42:25.983Z</time>
      </trkpt>
      <trkpt lat="48.57188" lon="1.94966">
        <ele>109.025</ele>
        <time>2016-03-24T13:42:35.880Z</time>
      </trkpt>
      <trkpt lat="48.57197" lon="1.94973">
        <ele>109.104</ele>
        <time>2016-03-24T13:42:45.120Z</time>
      </trkpt>
      <trkpt lat="48.57206" lon="1.9498">
        <ele>109.163</ele>
        <time>2016-03-24T13:42:54.984Z</time>
      </trkpt>
      <trkpt lat="48.57215" lon="1.9498">
        <ele>109.286</ele>
        <time>2016-03-24T13:43:04.617Z</time>
      </trkpt>
      <trkpt lat="48.57224" lon="1.94975">
        <ele>109.529</ele>
        <time>2016-03-24T13:43:14.468Z</time>
      </trkpt>
      <trkpt lat="48.5723" lon="1.94965">
        <ele>109.864</ele>
        <time>2016-03-24T13:43:24.378Z</time>
      </trkpt>
      <trkpt lat="48.57234" lon="1.94951">
        <ele>110.273</ele>
        <time>2016-03-24T13:43:35.421Z</time>
      </trkpt>
      <trkpt lat="48.5723" lon="1.94937">
        <ele>110.749</ele>
        <time>2016-03-24T13:43:45.700Z</time>
      </trkpt>
      <trkpt lat="48.57223" lon="1.94925">
        <ele>111.217</ele>
        <time>2016-03-24T13:43:54.279Z</time>
      </trkpt>
      <trkpt lat="48.57218" lon="1.94913">
        <ele>111.59</ele>
        <time>2016-03-24T13:44:02.174Z</time>
      </trkpt>
      <trkpt lat="48.57214" lon="1.94901">
        <ele>111.807</ele>
        <time>2016-03-24T13:44:10.816Z</time>
      </trkpt>
      <trkpt lat="48.57209" lon="1.9489">
        <ele>111.911</ele>
        <time>2016-03-24T13:44:19.349Z</time>
      </trkpt>
      <trkpt lat="48.57205" lon="1.94877">
        <ele>111.941</ele>
        <time>2016-03-24T13:44:27.644Z</time>
      </trkpt>
      <trkpt lat="48.57199" lon="1.94866">
        <ele>111.916</ele>
        <time>2016-03-24T13:44:36.182Z</time>
      </trkpt>
      <trkpt lat="48.57193" lon="1.94854">
        <ele>111.868</ele>
        <time>2016-03-24T13:44:44.904Z</time>
      </trkpt>
      <trkpt lat="48.57188" lon="1.94842">
        <ele>111.826</ele>
        <time>2016-03-24T13:44:53.148Z</time>
      </trkpt>
      <trkpt lat="48.57183" lon="1.94829">
        <ele>111.787</ele>
        <time>2016-03-24T13:45:01.960Z</time>
      </trkpt>
      <trkpt lat="48.57176" lon="1.94817">
        <ele>111.756</ele>
        <time>2016-03-24T13:45:11.588Z</time>
      </trkpt>
      <trkpt lat="48.5717" lon="1.94805">
        <ele>111.726</ele>
        <time>2016-03-24T13:45:20.442Z</time>
      </trkpt>
      <trkpt lat="48.57165" lon="1.94793">
        <ele>111.685</ele>
        <time>2016-03-24T13:45:28.629Z</time>
      </trkpt>
      <trkpt lat="48.5716" lon="1.94781">
        <ele>111.638</ele>
        <time>2016-03-24T13:45:37.336Z</time>
      </trkpt>
      <trkpt lat="48.57154" lon="1.9477">
        <ele>111.603</ele>
        <time>2016-03-24T13:45:45.878Z</time>
      </trkpt>
      <trkpt lat="48.57149" lon="1.94758">
        <ele>111.593</ele>
        <time>2016-03-24T13:45:54.809Z</time>
      </trkpt>
      <trkpt lat="48.57144" lon="1.94747">
        <ele>111.603</ele>
        <time>2016-03-24T13:46:02.737Z</time>
      </trkpt>
      <trkpt lat="48.57138" lon="1.94736">
        <ele>111.628</ele>
        <time>2016-03-24T13:46:10.506Z</time>
      </trkpt>
      <trkpt lat="48.57133" lon="1.94723">
        <ele>111.651</ele>
        <time>2016-03-24T13:46:18.725Z</time>
      </trkpt>
      <trkpt lat="48.57128" lon="1.94712">
        <ele>111.6</ele>
        <time>2016-03-24T13:46:26.552Z</time>
      </trkpt>
      <trkpt lat="48.57122" lon="1.94701">
        <ele>111.451</ele>
        <time>2016-03-24T13:46:34.817Z</time>
      </trkpt>
      <trkpt lat="48.5712" lon="1.94688">
        <ele>111.253</ele>
        <time>2016-03-24T13:46:43.822Z</time>
      </trkpt>
      <trkpt lat="48.57116" lon="1.94673">
        <ele>111.041</ele>
        <time>2016-03-24T13:46:54.121Z</time>
      </trkpt>
      <trkpt lat="48.57112" lon="1.94659">
        <ele>110.843</ele>
        <time>2016-03-24T13:47:02.588Z</time>
      </trkpt>
      <trkpt lat="48.57113" lon="1.94645">
        <ele>110.647</ele>
        <time>2016-03-24T13:47:10.430Z</time>
      </trkpt>
      <trkpt lat="48.57116" lon="1.94631">
        <ele>110.417</ele>
        <time>2016-03-24T13:47:19.026Z</time>
      </trkpt>
      <trkpt lat="48.57116" lon="1.94617">
        <ele>110.204</ele>
        <time>2016-03-24T13:47:27.141Z</time>
      </trkpt>
      <trkpt lat="48.57116" lon="1.94603">
        <ele>110.105</ele>
        <time>2016-03-24T13:47:35.091Z</time>
      </trkpt>
      <trkpt lat="48.57117" lon="1.94588">
        <ele>110.166</ele>
        <time>2016-03-24T13:47:44.001Z</time>
      </trkpt>
      <trkpt lat="48.57118" lon="1.94573">
        <ele>110.365</ele>
        <time>2016-03-24T13:47:52.968Z</time>
      </trkpt>
      <trkpt lat="48.57118" lon="1.94557">
        <ele>110.655</ele>
        <time>2016-03-24T13:48:01.910Z</time>
      </trkpt>
      <trkpt lat="48.57119" lon="1.94542">
        <ele>111.033</ele>
        <time>2016-03-24T13:48:10.840Z</time>
      </trkpt>
      <trkpt lat="48.57119" lon="1.94527">
        <ele>111.494</ele>
        <time>2016-03-24T13:48:19.643Z</time>
      </trkpt>
      <trkpt lat="48.5712" lon="1.94513">
        <ele>111.918</ele>
        <time>2016-03-24T13:48:28.240Z</time>
      </trkpt>
      <trkpt lat="48.5712" lon="1.94499">
        <ele>112.168</ele>
        <time>2016-03-24T13:48:37.713Z</time>
      </trkpt>
      <trkpt lat="48.57121" lon="1.94484">
        <ele>112.244</ele>
        <time>2016-03-24T13:48:48.198Z</time>
      </trkpt>
      <trkpt lat="48.57122" lon="1.9447">
        <ele>112.234</ele>
        <time>2016-03-24T13:49:01.785Z</time>
      </trkpt>
      <trkpt lat="48.57124" lon="1.94456">
        <ele>112.129</ele>
        <time>2016-03-24T13:49:13.888Z</time>
      </trkpt>
      <trkpt lat="48.57124" lon="1.94442">
        <ele>111.87</ele>
        <time>2016-03-24T13:49:23.577Z</time>
      </trkpt>
      <trkpt lat="48.57125" lon="1.94428">
        <ele>111.537</ele>
        <time>2016-03-24T13:49:32.735Z</time>
      </trkpt>
      <trkpt lat="48.57128" lon="1.94413">
        <ele>111.268</ele>
        <time>2016-03-24T13:49:42.316Z</time>
      </trkpt>
      <trkpt lat="48.57128" lon="1.94398">
        <ele>111.101</ele>
        <time>2016-03-24T13:49:51.913Z</time>
      </trkpt>
      <trkpt lat="48.57128" lon="1.94385">
        <ele>111.027</ele>
        <time>2016-03-24T13:50:00.409Z</time>
      </trkpt>
      <trkpt lat="48.57129" lon="1.9437">
        <ele>111.046</ele>
        <time>2016-03-24T13:50:09.578Z</time>
      </trkpt>
      <trkpt lat="48.5713" lon="1.94356">
        <ele>111.164</ele>
        <time>2016-03-24T13:50:19.118Z</time>
      </trkpt>
      <trkpt lat="48.5713" lon="1.94341">
        <ele>111.406</ele>
        <time>2016-03-24T13:50:29.852Z</time>
      </trkpt>
      <trkpt lat="48.57131" lon="1.94327">
        <ele>111.822</ele>
        <time>2016-03-24T13:50:39.845Z</time>
      </trkpt>
      <trkpt lat="48.57133" lon="1.94313">
        <ele>112.38</ele>
        <time>2016-03-24T13:50:48.919Z</time>
      </trkpt>
      <trkpt lat="48.57134" lon="1.94299">
        <ele>112.926</ele>
        <time>2016-03-24T13:50:57.964Z</time>
      </trkpt>
      <trkpt lat="48.57134" lon="1.94285">
        <ele>113.394</ele>
        <time>2016-03-24T13:51:06.805Z</time>
      </trkpt>
      <trkpt lat="48.57134" lon="1.94271">
        <ele>113.805</ele>
        <time>2016-03-24T13:51:15.571Z</time>
      </trkpt>
      <trkpt lat="48.57135" lon="1.94258">
        <ele>114.151</ele>
        <time>2016-03-24T13:51:24.391Z</time>
      </trkpt>
      <trkpt lat="48.57135" lon="1.94243">
        <ele>114.459</ele>
        <time>2016-03-24T13:51:34.187Z</time>
      </trkpt>
      <trkpt lat="48.57136" lon="1.94228">
        <ele>114.829</ele>
        <time>2016-03-24T13:51:43.481Z</time>
      </trkpt>
      <trkpt lat="48.57138" lon="1.94214">
        <ele>115.306</ele>
        <time>2016-03-24T13:51:52.000Z</time>
      </trkpt>
      <trkpt lat="48.57138" lon="1.94214">
        <ele>115.753</ele>
        <time>2016-03-24T13:52:03.000Z</time>
      </trkpt>
      <trkpt lat="48.57138" lon="1.94214">
        <ele>115.953</ele>
        <time>2016-03-24T13:52:03.100Z</time>
      </trkpt>
      <trkpt lat="48.57137" lon="1.94196">
        <ele>115.723</ele>
        <time>2016-03-24T13:52:21.427Z</time>
      </trkpt>
      <trkpt lat="48.57137" lon="1.94183">
        <ele>115.679</ele>
        <time>2016-03-24T13:52:30.160Z</time>
      </trkpt>
      <trkpt lat="48.57136" lon="1.94168">
        <ele>115.798</ele>
        <time>2016-03-24T13:52:39.067Z</time>
      </trkpt>
      <trkpt lat="48.57135" lon="1.94154">
        <ele>115.808</ele>
        <time>2016-03-24T13:52:48.829Z</time>
      </trkpt>
      <trkpt lat="48.57129" lon="1.94144">
        <ele>115.478</ele>
        <time>2016-03-24T13:52:59.761Z</time>
      </trkpt>
      <trkpt lat="48.57124" lon="1.94132">
        <ele>115.03</ele>
        <time>2016-03-24T13:53:10.851Z</time>
      </trkpt>
      <trkpt lat="48.5713" lon="1.94122">
        <ele>114.761</ele>
        <time>2016-03-24T13:53:23.551Z</time>
      </trkpt>
      <trkpt lat="48.57139" lon="1.94119">
        <ele>114.877</ele>
        <time>2016-03-24T13:53:36.881Z</time>
      </trkpt>
      <trkpt lat="48.57148" lon="1.94117">
        <ele>115.844</ele>
        <time>2016-03-24T13:53:50.752Z</time>
      </trkpt>
      <trkpt lat="48.57157" lon="1.94114">
        <ele>117.725</ele>
        <time>2016-03-24T13:54:02.967Z</time>
      </trkpt>
      <trkpt lat="48.57165" lon="1.94107">
        <ele>119.852</ele>
        <time>2016-03-24T13:54:13.404Z</time>
      </trkpt>
      <trkpt lat="48.57173" lon="1.94097">
        <ele>121.59</ele>
        <time>2016-03-24T13:54:23.955Z</time>
      </trkpt>
      <trkpt lat="48.57181" lon="1.94089">
        <ele>122.748</ele>
        <time>2016-03-24T13:54:34.087Z</time>
      </trkpt>
      <trkpt lat="48.57188" lon="1.94078">
        <ele>123.407</ele>
        <time>2016-03-24T13:54:44.956Z</time>
      </trkpt>
      <trkpt lat="48.57194" lon="1.94067">
        <ele>123.771</ele>
        <time>2016-03-24T13:54:55.336Z</time>
      </trkpt>
      <trkpt lat="48.5719" lon="1.94054">
        <ele>124.008</ele>
        <time>2016-03-24T13:55:06.337Z</time>
      </trkpt>
      <trkpt lat="48.57186" lon="1.94041">
        <ele>124.311</ele>
        <time>2016-03-24T13:55:14.911Z</time>
      </trkpt>
      <trkpt lat="48.57182" lon="1.94028">
        <ele>124.685</ele>
        <time>2016-03-24T13:55:23.405Z</time>
      </trkpt>
      <trkpt lat="48.57178" lon="1.94015">
        <ele>124.922</ele>
        <time>2016-03-24T13:55:33.180Z</time>
      </trkpt>
      <trkpt lat="48.57176" lon="1.94001">
        <ele>124.914</ele>
        <time>2016-03-24T13:55:44.558Z</time>
      </trkpt>
      <trkpt lat="48.57168" lon="1.93994">
        <ele>124.664</ele>
        <time>2016-03-24T13:56:09.265Z</time>
      </trkpt>
      <trkpt lat="48.57162" lon="1.93981">
        <ele>124.171</ele>
        <time>2016-03-24T13:56:19.237Z</time>
      </trkpt>
      <trkpt lat="48.57157" lon="1.93968">
        <ele>123.59</ele>
        <time>2016-03-24T13:56:25.876Z</time>
      </trkpt>
      <trkpt lat="48.57158" lon="1.93953">
        <ele>123.188</ele>
        <time>2016-03-24T13:56:32.995Z</time>
      </trkpt>
      <trkpt lat="48.57153" lon="1.9394">
        <ele>123.012</ele>
        <time>2016-03-24T13:56:41.727Z</time>
      </trkpt>
      <trkpt lat="48.57146" lon="1.9393">
        <ele>122.931</ele>
        <time>2016-03-24T13:56:51.733Z</time>
      </trkpt>
      <trkpt lat="48.57144" lon="1.93917">
        <ele>122.9</ele>
        <time>2016-03-24T13:57:00.331Z</time>
      </trkpt>
      <trkpt lat="48.57145" lon="1.93901">
        <ele>122.925</ele>
        <time>2016-03-24T13:57:09.324Z</time>
      </trkpt>
      <trkpt lat="48.57144" lon="1.93887">
        <ele>122.959</ele>
        <time>2016-03-24T13:57:18.541Z</time>
      </trkpt>
      <trkpt lat="48.57151" lon="1.93878">
        <ele>122.966</ele>
        <time>2016-03-24T13:57:29.197Z</time>
      </trkpt>
      <trkpt lat="48.57154" lon="1.93864">
        <ele>122.974</ele>
        <time>2016-03-24T13:57:39.883Z</time>
      </trkpt>
      <trkpt lat="48.57152" lon="1.93851">
        <ele>123.013</ele>
        <time>2016-03-24T13:57:49.875Z</time>
      </trkpt>
      <trkpt lat="48.57149" lon="1.93838">
        <ele>123.057</ele>
        <time>2016-03-24T13:57:59.228Z</time>
      </trkpt>
      <trkpt lat="48.57145" lon="1.93825">
        <ele>122.999</ele>
        <time>2016-03-24T13:58:09.057Z</time>
      </trkpt>
      <trkpt lat="48.57141" lon="1.93811">
        <ele>122.793</ele>
        <time>2016-03-24T13:58:19.026Z</time>
      </trkpt>
      <trkpt lat="48.57137" lon="1.93799">
        <ele>122.266</ele>
        <time>2016-03-24T13:58:29.036Z</time>
      </trkpt>
      <trkpt lat="48.57133" lon="1.93785">
        <ele>121.256</ele>
        <time>2016-03-24T13:58:39.120Z</time>
      </trkpt>
      <trkpt lat="48.57139" lon="1.93774">
        <ele>120.025</ele>
        <time>2016-03-24T13:58:49.159Z</time>
      </trkpt>
      <trkpt lat="48.57148" lon="1.93769">
        <ele>119.064</ele>
        <time>2016-03-24T13:59:00.765Z</time>
      </trkpt>
      <trkpt lat="48.57157" lon="1.93769">
        <ele>118.672</ele>
        <time>2016-03-24T13:59:11.803Z</time>
      </trkpt>
      <trkpt lat="48.57166" lon="1.93763">
        <ele>118.939</ele>
        <time>2016-03-24T13:59:21.339Z</time>
      </trkpt>
      <trkpt lat="48.57175" lon="1.93764">
        <ele>119.582</ele>
        <time>2016-03-24T13:59:30.099Z</time>
      </trkpt>
      <trkpt lat="48.57184" lon="1.93758">
        <ele>120.188</ele>
        <time>2016-03-24T13:59:39.603Z</time>
      </trkpt>
      <trkpt lat="48.57192" lon="1.93751">
        <ele>120.615</ele>
        <time>2016-03-24T13:59:50.264Z</time>
      </trkpt>
      <trkpt lat="48.572" lon="1.93746">
        <ele>121.018</ele>
        <time>2016-03-24T14:00:00.000Z</time>
      </trkpt>
      <trkpt lat="48.572" lon="1.93746">
        <ele>121.464</ele>
        <time>2016-03-24T14:00:05.000Z</time>
      </trkpt>
      <trkpt lat="48.572" lon="1.93746">
        <ele>121.73</ele>
        <time>2016-03-24T14:00:37.257Z</time>
      </trkpt>
      <trkpt lat="48.57205" lon="1.93734">
        <ele>121.629</ele>
        <time>2016-03-24T14:00:52.873Z</time>
      </trkpt>
      <trkpt lat="48.57205" lon="1.93734">
        <ele>121.629</ele>
        <time>2016-03-24T14:00:52.873Z</time>
      </trkpt>
      <trkpt lat="48.57206" lon="1.93717">
        <ele>122.081</ele>
        <time>2016-03-24T14:01:06.612Z</time>
      </trkpt>
      <trkpt lat="48.572" lon="1.93707">
        <ele>122.025</ele>
        <time>2016-03-24T14:01:18.000Z</time>
      </trkpt>
      <trkpt lat="48.572" lon="1.93707">
        <ele>121.986</ele>
        <time>2016-03-24T14:01:23.000Z</time>
      </trkpt>
    </trkseg>
  </trk>
</gpx>